<?xml version="1.0" encoding="UTF-8" standalone="no" ?>
<gpx xmlns="http://www.topografix.com/GPX/1/1" xmlns:xsi="http://www.w3.org/2001/XMLSchema-instance" xsi:schemaLocation="http://www.topografix.com/GPX/1/1 http://www.topografix.com/GPX/1/1/gpx.xsd" version="1.1" creator="VisuGPX - https://www.visugpx.com">
  <metadata>
    <name>PIC TRAVERSIER, CLOT MEA</name>
    <desc><![CDATA[grp_trc:]]></desc>
  </metadata>
  <trk>
    <name><![CDATA[17 nov. 2021]]></name>
    <cmt><![CDATA[08:30:22]]></cmt>
    <desc><![CDATA[comment ...]]></desc>
    <trkseg>
      <trkpt lat="44.71891" lon="6.90432">
        <ele>1978</ele>
        <time>2021-11-17T07:30:21Z</time>
      </trkpt>
      <trkpt lat="44.71893" lon="6.90429">
        <ele>1977</ele>
        <time>2021-11-17T07:30:22Z</time>
      </trkpt>
      <trkpt lat="44.71892" lon="6.90426">
        <ele>1975</ele>
        <time>2021-11-17T07:30:54Z</time>
      </trkpt>
      <trkpt lat="44.71892" lon="6.90424">
        <ele>1979</ele>
        <time>2021-11-17T07:31:04Z</time>
      </trkpt>
      <trkpt lat="44.71893" lon="6.90422">
        <ele>1979</ele>
        <time>2021-11-17T07:31:26Z</time>
      </trkpt>
      <trkpt lat="44.71891" lon="6.90421">
        <ele>1977</ele>
        <time>2021-11-17T07:31:30Z</time>
      </trkpt>
      <trkpt lat="44.71892" lon="6.90419">
        <ele>1977</ele>
        <time>2021-11-17T07:31:33Z</time>
      </trkpt>
      <trkpt lat="44.71893" lon="6.90417">
        <ele>1977</ele>
        <time>2021-11-17T07:31:37Z</time>
      </trkpt>
      <trkpt lat="44.719" lon="6.90403">
        <ele>1978</ele>
        <time>2021-11-17T07:31:47Z</time>
      </trkpt>
      <trkpt lat="44.71902" lon="6.90402">
        <ele>1979</ele>
        <time>2021-11-17T07:31:50Z</time>
      </trkpt>
      <trkpt lat="44.71903" lon="6.904">
        <ele>1979</ele>
        <time>2021-11-17T07:31:53Z</time>
      </trkpt>
      <trkpt lat="44.71904" lon="6.90401">
        <ele>1978</ele>
        <time>2021-11-17T07:32:07Z</time>
      </trkpt>
      <trkpt lat="44.71908" lon="6.90394">
        <ele>1978</ele>
        <time>2021-11-17T07:32:12Z</time>
      </trkpt>
      <trkpt lat="44.71909" lon="6.90391">
        <ele>1978</ele>
        <time>2021-11-17T07:32:15Z</time>
      </trkpt>
      <trkpt lat="44.71911" lon="6.90388">
        <ele>1979</ele>
        <time>2021-11-17T07:32:31Z</time>
      </trkpt>
      <trkpt lat="44.71913" lon="6.90386">
        <ele>1979</ele>
        <time>2021-11-17T07:32:33Z</time>
      </trkpt>
      <trkpt lat="44.71913" lon="6.90382">
        <ele>1980</ele>
        <time>2021-11-17T07:32:35Z</time>
      </trkpt>
      <trkpt lat="44.71912" lon="6.90379">
        <ele>1980</ele>
        <time>2021-11-17T07:32:37Z</time>
      </trkpt>
      <trkpt lat="44.71914" lon="6.90377">
        <ele>1980</ele>
        <time>2021-11-17T07:32:45Z</time>
      </trkpt>
      <trkpt lat="44.71911" lon="6.90377">
        <ele>1982</ele>
        <time>2021-11-17T07:33:15Z</time>
      </trkpt>
      <trkpt lat="44.71909" lon="6.90376">
        <ele>1983</ele>
        <time>2021-11-17T07:33:17Z</time>
      </trkpt>
      <trkpt lat="44.71906" lon="6.90375">
        <ele>1983</ele>
        <time>2021-11-17T07:33:19Z</time>
      </trkpt>
      <trkpt lat="44.71903" lon="6.90373">
        <ele>1983</ele>
        <time>2021-11-17T07:33:21Z</time>
      </trkpt>
      <trkpt lat="44.71901" lon="6.90371">
        <ele>1984</ele>
        <time>2021-11-17T07:33:23Z</time>
      </trkpt>
      <trkpt lat="44.71899" lon="6.90371">
        <ele>1984</ele>
        <time>2021-11-17T07:33:37Z</time>
      </trkpt>
      <trkpt lat="44.71898" lon="6.9037">
        <ele>1984</ele>
        <time>2021-11-17T07:33:39Z</time>
      </trkpt>
      <trkpt lat="44.71895" lon="6.9037">
        <ele>1983</ele>
        <time>2021-11-17T07:33:41Z</time>
      </trkpt>
      <trkpt lat="44.71893" lon="6.90369">
        <ele>1983</ele>
        <time>2021-11-17T07:33:44Z</time>
      </trkpt>
      <trkpt lat="44.71893" lon="6.90367">
        <ele>1983</ele>
        <time>2021-11-17T07:33:50Z</time>
      </trkpt>
      <trkpt lat="44.71893" lon="6.90365">
        <ele>1982</ele>
        <time>2021-11-17T07:34:06Z</time>
      </trkpt>
      <trkpt lat="44.71892" lon="6.90367">
        <ele>1981</ele>
        <time>2021-11-17T07:34:46Z</time>
      </trkpt>
      <trkpt lat="44.71884" lon="6.90374">
        <ele>1981</ele>
        <time>2021-11-17T07:35:02Z</time>
      </trkpt>
      <trkpt lat="44.71881" lon="6.90378">
        <ele>1981</ele>
        <time>2021-11-17T07:35:05Z</time>
      </trkpt>
      <trkpt lat="44.7188" lon="6.9038">
        <ele>1981</ele>
        <time>2021-11-17T07:35:06Z</time>
      </trkpt>
      <trkpt lat="44.71878" lon="6.90381">
        <ele>1981</ele>
        <time>2021-11-17T07:35:07Z</time>
      </trkpt>
      <trkpt lat="44.71876" lon="6.90383">
        <ele>1981</ele>
        <time>2021-11-17T07:35:09Z</time>
      </trkpt>
      <trkpt lat="44.71874" lon="6.90385">
        <ele>1982</ele>
        <time>2021-11-17T07:35:11Z</time>
      </trkpt>
      <trkpt lat="44.71869" lon="6.90392">
        <ele>1984</ele>
        <time>2021-11-17T07:35:17Z</time>
      </trkpt>
      <trkpt lat="44.71867" lon="6.90398">
        <ele>1983</ele>
        <time>2021-11-17T07:35:21Z</time>
      </trkpt>
      <trkpt lat="44.71865" lon="6.90402">
        <ele>1981</ele>
        <time>2021-11-17T07:35:26Z</time>
      </trkpt>
      <trkpt lat="44.71863" lon="6.90405">
        <ele>1981</ele>
        <time>2021-11-17T07:35:28Z</time>
      </trkpt>
      <trkpt lat="44.71861" lon="6.90408">
        <ele>1981</ele>
        <time>2021-11-17T07:35:30Z</time>
      </trkpt>
      <trkpt lat="44.71859" lon="6.90409">
        <ele>1981</ele>
        <time>2021-11-17T07:35:32Z</time>
      </trkpt>
      <trkpt lat="44.71857" lon="6.90411">
        <ele>1982</ele>
        <time>2021-11-17T07:35:34Z</time>
      </trkpt>
      <trkpt lat="44.71856" lon="6.90413">
        <ele>1982</ele>
        <time>2021-11-17T07:35:36Z</time>
      </trkpt>
      <trkpt lat="44.71855" lon="6.90416">
        <ele>1983</ele>
        <time>2021-11-17T07:35:38Z</time>
      </trkpt>
      <trkpt lat="44.71852" lon="6.90421">
        <ele>1984</ele>
        <time>2021-11-17T07:35:42Z</time>
      </trkpt>
      <trkpt lat="44.71849" lon="6.90427">
        <ele>1985</ele>
        <time>2021-11-17T07:35:46Z</time>
      </trkpt>
      <trkpt lat="44.71844" lon="6.90435">
        <ele>1982</ele>
        <time>2021-11-17T07:35:52Z</time>
      </trkpt>
      <trkpt lat="44.71834" lon="6.90442">
        <ele>1979</ele>
        <time>2021-11-17T07:36:02Z</time>
      </trkpt>
      <trkpt lat="44.71819" lon="6.90461">
        <ele>1980</ele>
        <time>2021-11-17T07:36:20Z</time>
      </trkpt>
      <trkpt lat="44.71816" lon="6.90465">
        <ele>1980</ele>
        <time>2021-11-17T07:36:24Z</time>
      </trkpt>
      <trkpt lat="44.71803" lon="6.90488">
        <ele>1982</ele>
        <time>2021-11-17T07:36:41Z</time>
      </trkpt>
      <trkpt lat="44.71801" lon="6.90491">
        <ele>1983</ele>
        <time>2021-11-17T07:36:44Z</time>
      </trkpt>
      <trkpt lat="44.71799" lon="6.90493">
        <ele>1983</ele>
        <time>2021-11-17T07:36:46Z</time>
      </trkpt>
      <trkpt lat="44.71798" lon="6.90495">
        <ele>1983</ele>
        <time>2021-11-17T07:36:47Z</time>
      </trkpt>
      <trkpt lat="44.71794" lon="6.90502">
        <ele>1985</ele>
        <time>2021-11-17T07:36:53Z</time>
      </trkpt>
      <trkpt lat="44.71793" lon="6.90505">
        <ele>1985</ele>
        <time>2021-11-17T07:36:55Z</time>
      </trkpt>
      <trkpt lat="44.71785" lon="6.9052">
        <ele>1983</ele>
        <time>2021-11-17T07:37:07Z</time>
      </trkpt>
      <trkpt lat="44.71783" lon="6.90522">
        <ele>1982</ele>
        <time>2021-11-17T07:37:09Z</time>
      </trkpt>
      <trkpt lat="44.7178" lon="6.90525">
        <ele>1981</ele>
        <time>2021-11-17T07:37:13Z</time>
      </trkpt>
      <trkpt lat="44.71778" lon="6.90527">
        <ele>1981</ele>
        <time>2021-11-17T07:37:15Z</time>
      </trkpt>
      <trkpt lat="44.71775" lon="6.90531">
        <ele>1980</ele>
        <time>2021-11-17T07:37:19Z</time>
      </trkpt>
      <trkpt lat="44.71772" lon="6.90538">
        <ele>1979</ele>
        <time>2021-11-17T07:37:24Z</time>
      </trkpt>
      <trkpt lat="44.71769" lon="6.90541">
        <ele>1980</ele>
        <time>2021-11-17T07:37:28Z</time>
      </trkpt>
      <trkpt lat="44.71766" lon="6.90552">
        <ele>1981</ele>
        <time>2021-11-17T07:37:36Z</time>
      </trkpt>
      <trkpt lat="44.71763" lon="6.90563">
        <ele>1981</ele>
        <time>2021-11-17T07:37:42Z</time>
      </trkpt>
      <trkpt lat="44.71763" lon="6.90566">
        <ele>1982</ele>
        <time>2021-11-17T07:37:44Z</time>
      </trkpt>
      <trkpt lat="44.71757" lon="6.90578">
        <ele>1983</ele>
        <time>2021-11-17T07:37:52Z</time>
      </trkpt>
      <trkpt lat="44.71755" lon="6.9058">
        <ele>1984</ele>
        <time>2021-11-17T07:37:55Z</time>
      </trkpt>
      <trkpt lat="44.71754" lon="6.90583">
        <ele>1985</ele>
        <time>2021-11-17T07:37:57Z</time>
      </trkpt>
      <trkpt lat="44.71752" lon="6.90586">
        <ele>1985</ele>
        <time>2021-11-17T07:37:59Z</time>
      </trkpt>
      <trkpt lat="44.71752" lon="6.90588">
        <ele>1985</ele>
        <time>2021-11-17T07:38:01Z</time>
      </trkpt>
      <trkpt lat="44.71748" lon="6.90592">
        <ele>1986</ele>
        <time>2021-11-17T07:38:05Z</time>
      </trkpt>
      <trkpt lat="44.71746" lon="6.90595">
        <ele>1987</ele>
        <time>2021-11-17T07:38:07Z</time>
      </trkpt>
      <trkpt lat="44.71742" lon="6.90599">
        <ele>1987</ele>
        <time>2021-11-17T07:38:11Z</time>
      </trkpt>
      <trkpt lat="44.71737" lon="6.90602">
        <ele>1988</ele>
        <time>2021-11-17T07:38:15Z</time>
      </trkpt>
      <trkpt lat="44.71736" lon="6.90603">
        <ele>1988</ele>
        <time>2021-11-17T07:38:20Z</time>
      </trkpt>
      <trkpt lat="44.71735" lon="6.90604">
        <ele>1988</ele>
        <time>2021-11-17T07:38:22Z</time>
      </trkpt>
      <trkpt lat="44.71734" lon="6.90606">
        <ele>1988</ele>
        <time>2021-11-17T07:38:24Z</time>
      </trkpt>
      <trkpt lat="44.71731" lon="6.90609">
        <ele>1988</ele>
        <time>2021-11-17T07:38:28Z</time>
      </trkpt>
      <trkpt lat="44.71727" lon="6.90617">
        <ele>1989</ele>
        <time>2021-11-17T07:38:34Z</time>
      </trkpt>
      <trkpt lat="44.71723" lon="6.90621">
        <ele>1989</ele>
        <time>2021-11-17T07:38:40Z</time>
      </trkpt>
      <trkpt lat="44.7172" lon="6.90626">
        <ele>1989</ele>
        <time>2021-11-17T07:38:44Z</time>
      </trkpt>
      <trkpt lat="44.71713" lon="6.90635">
        <ele>1989</ele>
        <time>2021-11-17T07:38:52Z</time>
      </trkpt>
      <trkpt lat="44.71706" lon="6.90641">
        <ele>1990</ele>
        <time>2021-11-17T07:39:00Z</time>
      </trkpt>
      <trkpt lat="44.71704" lon="6.90645">
        <ele>1991</ele>
        <time>2021-11-17T07:39:05Z</time>
      </trkpt>
      <trkpt lat="44.71703" lon="6.90647">
        <ele>1991</ele>
        <time>2021-11-17T07:39:08Z</time>
      </trkpt>
      <trkpt lat="44.71701" lon="6.90654">
        <ele>1992</ele>
        <time>2021-11-17T07:39:13Z</time>
      </trkpt>
      <trkpt lat="44.71699" lon="6.90656">
        <ele>1993</ele>
        <time>2021-11-17T07:39:15Z</time>
      </trkpt>
      <trkpt lat="44.71691" lon="6.90675">
        <ele>1996</ele>
        <time>2021-11-17T07:39:30Z</time>
      </trkpt>
      <trkpt lat="44.7169" lon="6.90678">
        <ele>1996</ele>
        <time>2021-11-17T07:39:32Z</time>
      </trkpt>
      <trkpt lat="44.71689" lon="6.9068">
        <ele>1997</ele>
        <time>2021-11-17T07:39:34Z</time>
      </trkpt>
      <trkpt lat="44.71686" lon="6.90686">
        <ele>1999</ele>
        <time>2021-11-17T07:39:42Z</time>
      </trkpt>
      <trkpt lat="44.71683" lon="6.90689">
        <ele>1999</ele>
        <time>2021-11-17T07:39:46Z</time>
      </trkpt>
      <trkpt lat="44.71678" lon="6.90693">
        <ele>1999</ele>
        <time>2021-11-17T07:39:52Z</time>
      </trkpt>
      <trkpt lat="44.71676" lon="6.90698">
        <ele>1999</ele>
        <time>2021-11-17T07:39:56Z</time>
      </trkpt>
      <trkpt lat="44.71673" lon="6.90704">
        <ele>2000</ele>
        <time>2021-11-17T07:40:03Z</time>
      </trkpt>
      <trkpt lat="44.71673" lon="6.90707">
        <ele>2000</ele>
        <time>2021-11-17T07:40:05Z</time>
      </trkpt>
      <trkpt lat="44.71673" lon="6.9071">
        <ele>2000</ele>
        <time>2021-11-17T07:40:07Z</time>
      </trkpt>
      <trkpt lat="44.71671" lon="6.90721">
        <ele>2001</ele>
        <time>2021-11-17T07:40:17Z</time>
      </trkpt>
      <trkpt lat="44.71672" lon="6.90726">
        <ele>2001</ele>
        <time>2021-11-17T07:40:21Z</time>
      </trkpt>
      <trkpt lat="44.71671" lon="6.9073">
        <ele>2001</ele>
        <time>2021-11-17T07:40:27Z</time>
      </trkpt>
      <trkpt lat="44.7167" lon="6.90731">
        <ele>2002</ele>
        <time>2021-11-17T07:42:10Z</time>
      </trkpt>
      <trkpt lat="44.7167" lon="6.90733">
        <ele>2003</ele>
        <time>2021-11-17T07:42:53Z</time>
      </trkpt>
      <trkpt lat="44.71671" lon="6.90736">
        <ele>2005</ele>
        <time>2021-11-17T07:42:55Z</time>
      </trkpt>
      <trkpt lat="44.7167" lon="6.90739">
        <ele>2006</ele>
        <time>2021-11-17T07:42:57Z</time>
      </trkpt>
      <trkpt lat="44.71669" lon="6.90741">
        <ele>2006</ele>
        <time>2021-11-17T07:42:59Z</time>
      </trkpt>
      <trkpt lat="44.71668" lon="6.90743">
        <ele>2006</ele>
        <time>2021-11-17T07:43:01Z</time>
      </trkpt>
      <trkpt lat="44.7166" lon="6.9076">
        <ele>2009</ele>
        <time>2021-11-17T07:43:14Z</time>
      </trkpt>
      <trkpt lat="44.71654" lon="6.90771">
        <ele>2010</ele>
        <time>2021-11-17T07:43:22Z</time>
      </trkpt>
      <trkpt lat="44.71654" lon="6.90773">
        <ele>2010</ele>
        <time>2021-11-17T07:43:24Z</time>
      </trkpt>
      <trkpt lat="44.71652" lon="6.90776">
        <ele>2010</ele>
        <time>2021-11-17T07:43:26Z</time>
      </trkpt>
      <trkpt lat="44.71647" lon="6.90781">
        <ele>2011</ele>
        <time>2021-11-17T07:43:32Z</time>
      </trkpt>
      <trkpt lat="44.7164" lon="6.90797">
        <ele>2010</ele>
        <time>2021-11-17T07:43:45Z</time>
      </trkpt>
      <trkpt lat="44.71638" lon="6.90802">
        <ele>2010</ele>
        <time>2021-11-17T07:43:49Z</time>
      </trkpt>
      <trkpt lat="44.71638" lon="6.90806">
        <ele>2010</ele>
        <time>2021-11-17T07:43:51Z</time>
      </trkpt>
      <trkpt lat="44.71637" lon="6.90807">
        <ele>2010</ele>
        <time>2021-11-17T07:43:52Z</time>
      </trkpt>
      <trkpt lat="44.71636" lon="6.9081">
        <ele>2010</ele>
        <time>2021-11-17T07:43:54Z</time>
      </trkpt>
      <trkpt lat="44.71634" lon="6.90817">
        <ele>2010</ele>
        <time>2021-11-17T07:43:58Z</time>
      </trkpt>
      <trkpt lat="44.71633" lon="6.90823">
        <ele>2010</ele>
        <time>2021-11-17T07:44:02Z</time>
      </trkpt>
      <trkpt lat="44.71631" lon="6.90825">
        <ele>2010</ele>
        <time>2021-11-17T07:44:04Z</time>
      </trkpt>
      <trkpt lat="44.7163" lon="6.90833">
        <ele>2011</ele>
        <time>2021-11-17T07:44:10Z</time>
      </trkpt>
      <trkpt lat="44.71629" lon="6.90836">
        <ele>2011</ele>
        <time>2021-11-17T07:44:12Z</time>
      </trkpt>
      <trkpt lat="44.71627" lon="6.90841">
        <ele>2012</ele>
        <time>2021-11-17T07:44:16Z</time>
      </trkpt>
      <trkpt lat="44.71623" lon="6.90851">
        <ele>2015</ele>
        <time>2021-11-17T07:44:24Z</time>
      </trkpt>
      <trkpt lat="44.71622" lon="6.90851">
        <ele>2015</ele>
        <time>2021-11-17T07:44:31Z</time>
      </trkpt>
      <trkpt lat="44.71623" lon="6.90862">
        <ele>2017</ele>
        <time>2021-11-17T07:44:43Z</time>
      </trkpt>
      <trkpt lat="44.71623" lon="6.90866">
        <ele>2018</ele>
        <time>2021-11-17T07:44:47Z</time>
      </trkpt>
      <trkpt lat="44.71623" lon="6.90872">
        <ele>2019</ele>
        <time>2021-11-17T07:44:51Z</time>
      </trkpt>
      <trkpt lat="44.71621" lon="6.90877">
        <ele>2020</ele>
        <time>2021-11-17T07:44:56Z</time>
      </trkpt>
      <trkpt lat="44.7162" lon="6.90879">
        <ele>2021</ele>
        <time>2021-11-17T07:44:59Z</time>
      </trkpt>
      <trkpt lat="44.71618" lon="6.90882">
        <ele>2021</ele>
        <time>2021-11-17T07:45:01Z</time>
      </trkpt>
      <trkpt lat="44.71618" lon="6.90883">
        <ele>2021</ele>
        <time>2021-11-17T07:45:03Z</time>
      </trkpt>
      <trkpt lat="44.71617" lon="6.90885">
        <ele>2022</ele>
        <time>2021-11-17T07:45:05Z</time>
      </trkpt>
      <trkpt lat="44.71615" lon="6.90887">
        <ele>2022</ele>
        <time>2021-11-17T07:45:07Z</time>
      </trkpt>
      <trkpt lat="44.71614" lon="6.90888">
        <ele>2022</ele>
        <time>2021-11-17T07:45:08Z</time>
      </trkpt>
      <trkpt lat="44.71606" lon="6.90891">
        <ele>2023</ele>
        <time>2021-11-17T07:45:16Z</time>
      </trkpt>
      <trkpt lat="44.71602" lon="6.90893">
        <ele>2023</ele>
        <time>2021-11-17T07:45:21Z</time>
      </trkpt>
      <trkpt lat="44.71598" lon="6.90894">
        <ele>2024</ele>
        <time>2021-11-17T07:45:27Z</time>
      </trkpt>
      <trkpt lat="44.71595" lon="6.90894">
        <ele>2024</ele>
        <time>2021-11-17T07:45:29Z</time>
      </trkpt>
      <trkpt lat="44.71593" lon="6.90894">
        <ele>2024</ele>
        <time>2021-11-17T07:45:31Z</time>
      </trkpt>
      <trkpt lat="44.71593" lon="6.90898">
        <ele>2024</ele>
        <time>2021-11-17T07:45:34Z</time>
      </trkpt>
      <trkpt lat="44.71594" lon="6.90904">
        <ele>2025</ele>
        <time>2021-11-17T07:45:39Z</time>
      </trkpt>
      <trkpt lat="44.71594" lon="6.90907">
        <ele>2025</ele>
        <time>2021-11-17T07:45:41Z</time>
      </trkpt>
      <trkpt lat="44.71593" lon="6.90911">
        <ele>2026</ele>
        <time>2021-11-17T07:45:44Z</time>
      </trkpt>
      <trkpt lat="44.71592" lon="6.90914">
        <ele>2026</ele>
        <time>2021-11-17T07:45:46Z</time>
      </trkpt>
      <trkpt lat="44.71588" lon="6.90926">
        <ele>2028</ele>
        <time>2021-11-17T07:45:55Z</time>
      </trkpt>
      <trkpt lat="44.71585" lon="6.90932">
        <ele>2029</ele>
        <time>2021-11-17T07:45:59Z</time>
      </trkpt>
      <trkpt lat="44.71584" lon="6.90934">
        <ele>2031</ele>
        <time>2021-11-17T07:46:02Z</time>
      </trkpt>
      <trkpt lat="44.71583" lon="6.90937">
        <ele>2031</ele>
        <time>2021-11-17T07:46:05Z</time>
      </trkpt>
      <trkpt lat="44.71577" lon="6.90949">
        <ele>2034</ele>
        <time>2021-11-17T07:46:17Z</time>
      </trkpt>
      <trkpt lat="44.71576" lon="6.90952">
        <ele>2034</ele>
        <time>2021-11-17T07:46:21Z</time>
      </trkpt>
      <trkpt lat="44.71574" lon="6.90954">
        <ele>2034</ele>
        <time>2021-11-17T07:46:24Z</time>
      </trkpt>
      <trkpt lat="44.71572" lon="6.90961">
        <ele>2034</ele>
        <time>2021-11-17T07:46:29Z</time>
      </trkpt>
      <trkpt lat="44.7157" lon="6.90967">
        <ele>2034</ele>
        <time>2021-11-17T07:46:33Z</time>
      </trkpt>
      <trkpt lat="44.71567" lon="6.9097">
        <ele>2034</ele>
        <time>2021-11-17T07:46:35Z</time>
      </trkpt>
      <trkpt lat="44.71566" lon="6.90974">
        <ele>2033</ele>
        <time>2021-11-17T07:46:37Z</time>
      </trkpt>
      <trkpt lat="44.71564" lon="6.90981">
        <ele>2033</ele>
        <time>2021-11-17T07:46:41Z</time>
      </trkpt>
      <trkpt lat="44.71562" lon="6.90983">
        <ele>2033</ele>
        <time>2021-11-17T07:46:43Z</time>
      </trkpt>
      <trkpt lat="44.7156" lon="6.90985">
        <ele>2032</ele>
        <time>2021-11-17T07:46:45Z</time>
      </trkpt>
      <trkpt lat="44.71557" lon="6.90988">
        <ele>2032</ele>
        <time>2021-11-17T07:46:49Z</time>
      </trkpt>
      <trkpt lat="44.71556" lon="6.90991">
        <ele>2032</ele>
        <time>2021-11-17T07:46:51Z</time>
      </trkpt>
      <trkpt lat="44.71555" lon="6.90993">
        <ele>2032</ele>
        <time>2021-11-17T07:46:53Z</time>
      </trkpt>
      <trkpt lat="44.71546" lon="6.91013">
        <ele>2036</ele>
        <time>2021-11-17T07:47:10Z</time>
      </trkpt>
      <trkpt lat="44.71543" lon="6.91018">
        <ele>2037</ele>
        <time>2021-11-17T07:47:14Z</time>
      </trkpt>
      <trkpt lat="44.7154" lon="6.91022">
        <ele>2037</ele>
        <time>2021-11-17T07:47:18Z</time>
      </trkpt>
      <trkpt lat="44.71537" lon="6.91023">
        <ele>2037</ele>
        <time>2021-11-17T07:47:20Z</time>
      </trkpt>
      <trkpt lat="44.71534" lon="6.91026">
        <ele>2037</ele>
        <time>2021-11-17T07:47:24Z</time>
      </trkpt>
      <trkpt lat="44.71531" lon="6.91026">
        <ele>2037</ele>
        <time>2021-11-17T07:47:26Z</time>
      </trkpt>
      <trkpt lat="44.71515" lon="6.91031">
        <ele>2039</ele>
        <time>2021-11-17T07:47:46Z</time>
      </trkpt>
      <trkpt lat="44.7151" lon="6.91034">
        <ele>2040</ele>
        <time>2021-11-17T07:47:52Z</time>
      </trkpt>
      <trkpt lat="44.71505" lon="6.91038">
        <ele>2041</ele>
        <time>2021-11-17T07:47:58Z</time>
      </trkpt>
      <trkpt lat="44.71503" lon="6.91039">
        <ele>2041</ele>
        <time>2021-11-17T07:48:00Z</time>
      </trkpt>
      <trkpt lat="44.71499" lon="6.9104">
        <ele>2042</ele>
        <time>2021-11-17T07:48:05Z</time>
      </trkpt>
      <trkpt lat="44.71492" lon="6.91045">
        <ele>2045</ele>
        <time>2021-11-17T07:48:16Z</time>
      </trkpt>
      <trkpt lat="44.7149" lon="6.91046">
        <ele>2045</ele>
        <time>2021-11-17T07:48:18Z</time>
      </trkpt>
      <trkpt lat="44.71482" lon="6.91051">
        <ele>2047</ele>
        <time>2021-11-17T07:48:29Z</time>
      </trkpt>
      <trkpt lat="44.7148" lon="6.91052">
        <ele>2047</ele>
        <time>2021-11-17T07:48:31Z</time>
      </trkpt>
      <trkpt lat="44.71479" lon="6.91054">
        <ele>2048</ele>
        <time>2021-11-17T07:48:33Z</time>
      </trkpt>
      <trkpt lat="44.71474" lon="6.91061">
        <ele>2049</ele>
        <time>2021-11-17T07:48:41Z</time>
      </trkpt>
      <trkpt lat="44.71473" lon="6.91063">
        <ele>2050</ele>
        <time>2021-11-17T07:48:43Z</time>
      </trkpt>
      <trkpt lat="44.71471" lon="6.91064">
        <ele>2050</ele>
        <time>2021-11-17T07:48:45Z</time>
      </trkpt>
      <trkpt lat="44.7147" lon="6.91066">
        <ele>2050</ele>
        <time>2021-11-17T07:48:47Z</time>
      </trkpt>
      <trkpt lat="44.71468" lon="6.9107">
        <ele>2051</ele>
        <time>2021-11-17T07:48:51Z</time>
      </trkpt>
      <trkpt lat="44.71465" lon="6.91073">
        <ele>2052</ele>
        <time>2021-11-17T07:48:55Z</time>
      </trkpt>
      <trkpt lat="44.71462" lon="6.91077">
        <ele>2053</ele>
        <time>2021-11-17T07:48:59Z</time>
      </trkpt>
      <trkpt lat="44.71456" lon="6.91083">
        <ele>2054</ele>
        <time>2021-11-17T07:49:09Z</time>
      </trkpt>
      <trkpt lat="44.71454" lon="6.91085">
        <ele>2054</ele>
        <time>2021-11-17T07:49:11Z</time>
      </trkpt>
      <trkpt lat="44.71447" lon="6.91089">
        <ele>2055</ele>
        <time>2021-11-17T07:49:21Z</time>
      </trkpt>
      <trkpt lat="44.71445" lon="6.91089">
        <ele>2056</ele>
        <time>2021-11-17T07:49:24Z</time>
      </trkpt>
      <trkpt lat="44.7144" lon="6.91091">
        <ele>2057</ele>
        <time>2021-11-17T07:49:30Z</time>
      </trkpt>
      <trkpt lat="44.71438" lon="6.91091">
        <ele>2058</ele>
        <time>2021-11-17T07:49:32Z</time>
      </trkpt>
      <trkpt lat="44.71433" lon="6.91092">
        <ele>2059</ele>
        <time>2021-11-17T07:49:39Z</time>
      </trkpt>
      <trkpt lat="44.71431" lon="6.91094">
        <ele>2060</ele>
        <time>2021-11-17T07:49:42Z</time>
      </trkpt>
      <trkpt lat="44.71429" lon="6.91094">
        <ele>2060</ele>
        <time>2021-11-17T07:49:44Z</time>
      </trkpt>
      <trkpt lat="44.71428" lon="6.91094">
        <ele>2061</ele>
        <time>2021-11-17T07:49:46Z</time>
      </trkpt>
      <trkpt lat="44.71426" lon="6.91094">
        <ele>2061</ele>
        <time>2021-11-17T07:49:48Z</time>
      </trkpt>
      <trkpt lat="44.71425" lon="6.91094">
        <ele>2062</ele>
        <time>2021-11-17T07:49:50Z</time>
      </trkpt>
      <trkpt lat="44.71423" lon="6.91094">
        <ele>2062</ele>
        <time>2021-11-17T07:49:52Z</time>
      </trkpt>
      <trkpt lat="44.71422" lon="6.91094">
        <ele>2062</ele>
        <time>2021-11-17T07:49:54Z</time>
      </trkpt>
      <trkpt lat="44.71421" lon="6.91094">
        <ele>2062</ele>
        <time>2021-11-17T07:49:56Z</time>
      </trkpt>
      <trkpt lat="44.71419" lon="6.91095">
        <ele>2063</ele>
        <time>2021-11-17T07:49:59Z</time>
      </trkpt>
      <trkpt lat="44.71417" lon="6.91094">
        <ele>2063</ele>
        <time>2021-11-17T07:50:01Z</time>
      </trkpt>
      <trkpt lat="44.71413" lon="6.91094">
        <ele>2063</ele>
        <time>2021-11-17T07:50:06Z</time>
      </trkpt>
      <trkpt lat="44.71411" lon="6.91093">
        <ele>2064</ele>
        <time>2021-11-17T07:50:08Z</time>
      </trkpt>
      <trkpt lat="44.7141" lon="6.91092">
        <ele>2064</ele>
        <time>2021-11-17T07:50:10Z</time>
      </trkpt>
      <trkpt lat="44.71408" lon="6.91092">
        <ele>2064</ele>
        <time>2021-11-17T07:50:12Z</time>
      </trkpt>
      <trkpt lat="44.71407" lon="6.91092">
        <ele>2064</ele>
        <time>2021-11-17T07:50:14Z</time>
      </trkpt>
      <trkpt lat="44.71405" lon="6.91092">
        <ele>2064</ele>
        <time>2021-11-17T07:50:17Z</time>
      </trkpt>
      <trkpt lat="44.71403" lon="6.91092">
        <ele>2065</ele>
        <time>2021-11-17T07:50:19Z</time>
      </trkpt>
      <trkpt lat="44.71397" lon="6.91092">
        <ele>2067</ele>
        <time>2021-11-17T07:50:28Z</time>
      </trkpt>
      <trkpt lat="44.71396" lon="6.91093">
        <ele>2067</ele>
        <time>2021-11-17T07:50:30Z</time>
      </trkpt>
      <trkpt lat="44.71394" lon="6.91094">
        <ele>2068</ele>
        <time>2021-11-17T07:50:33Z</time>
      </trkpt>
      <trkpt lat="44.71389" lon="6.91094">
        <ele>2069</ele>
        <time>2021-11-17T07:50:39Z</time>
      </trkpt>
      <trkpt lat="44.71387" lon="6.91094">
        <ele>2069</ele>
        <time>2021-11-17T07:50:41Z</time>
      </trkpt>
      <trkpt lat="44.71385" lon="6.91095">
        <ele>2070</ele>
        <time>2021-11-17T07:50:43Z</time>
      </trkpt>
      <trkpt lat="44.71363" lon="6.91095">
        <ele>2075</ele>
        <time>2021-11-17T07:51:14Z</time>
      </trkpt>
      <trkpt lat="44.7136" lon="6.91095">
        <ele>2076</ele>
        <time>2021-11-17T07:51:18Z</time>
      </trkpt>
      <trkpt lat="44.71358" lon="6.91095">
        <ele>2076</ele>
        <time>2021-11-17T07:51:21Z</time>
      </trkpt>
      <trkpt lat="44.71356" lon="6.91095">
        <ele>2077</ele>
        <time>2021-11-17T07:51:24Z</time>
      </trkpt>
      <trkpt lat="44.71354" lon="6.91095">
        <ele>2078</ele>
        <time>2021-11-17T07:51:27Z</time>
      </trkpt>
      <trkpt lat="44.71353" lon="6.91095">
        <ele>2078</ele>
        <time>2021-11-17T07:51:29Z</time>
      </trkpt>
      <trkpt lat="44.71351" lon="6.91095">
        <ele>2079</ele>
        <time>2021-11-17T07:51:32Z</time>
      </trkpt>
      <trkpt lat="44.71348" lon="6.91097">
        <ele>2079</ele>
        <time>2021-11-17T07:51:36Z</time>
      </trkpt>
      <trkpt lat="44.71346" lon="6.91096">
        <ele>2080</ele>
        <time>2021-11-17T07:51:38Z</time>
      </trkpt>
      <trkpt lat="44.71344" lon="6.91096">
        <ele>2080</ele>
        <time>2021-11-17T07:51:40Z</time>
      </trkpt>
      <trkpt lat="44.71342" lon="6.91096">
        <ele>2080</ele>
        <time>2021-11-17T07:51:43Z</time>
      </trkpt>
      <trkpt lat="44.71338" lon="6.91095">
        <ele>2081</ele>
        <time>2021-11-17T07:51:49Z</time>
      </trkpt>
      <trkpt lat="44.71337" lon="6.91096">
        <ele>2081</ele>
        <time>2021-11-17T07:51:52Z</time>
      </trkpt>
      <trkpt lat="44.71335" lon="6.91096">
        <ele>2081</ele>
        <time>2021-11-17T07:51:54Z</time>
      </trkpt>
      <trkpt lat="44.71333" lon="6.91097">
        <ele>2081</ele>
        <time>2021-11-17T07:51:57Z</time>
      </trkpt>
      <trkpt lat="44.71331" lon="6.91097">
        <ele>2082</ele>
        <time>2021-11-17T07:51:59Z</time>
      </trkpt>
      <trkpt lat="44.7133" lon="6.91097">
        <ele>2082</ele>
        <time>2021-11-17T07:52:01Z</time>
      </trkpt>
      <trkpt lat="44.71328" lon="6.91097">
        <ele>2082</ele>
        <time>2021-11-17T07:52:03Z</time>
      </trkpt>
      <trkpt lat="44.71327" lon="6.91097">
        <ele>2082</ele>
        <time>2021-11-17T07:52:05Z</time>
      </trkpt>
      <trkpt lat="44.71325" lon="6.91098">
        <ele>2083</ele>
        <time>2021-11-17T07:52:08Z</time>
      </trkpt>
      <trkpt lat="44.71322" lon="6.911">
        <ele>2084</ele>
        <time>2021-11-17T07:52:13Z</time>
      </trkpt>
      <trkpt lat="44.7132" lon="6.91101">
        <ele>2084</ele>
        <time>2021-11-17T07:52:15Z</time>
      </trkpt>
      <trkpt lat="44.71318" lon="6.91101">
        <ele>2084</ele>
        <time>2021-11-17T07:52:18Z</time>
      </trkpt>
      <trkpt lat="44.71315" lon="6.91101">
        <ele>2085</ele>
        <time>2021-11-17T07:52:20Z</time>
      </trkpt>
      <trkpt lat="44.71313" lon="6.91103">
        <ele>2086</ele>
        <time>2021-11-17T07:52:22Z</time>
      </trkpt>
      <trkpt lat="44.71312" lon="6.91104">
        <ele>2087</ele>
        <time>2021-11-17T07:52:24Z</time>
      </trkpt>
      <trkpt lat="44.71309" lon="6.91104">
        <ele>2090</ele>
        <time>2021-11-17T07:52:31Z</time>
      </trkpt>
      <trkpt lat="44.71292" lon="6.91098">
        <ele>2095</ele>
        <time>2021-11-17T07:53:00Z</time>
      </trkpt>
      <trkpt lat="44.71288" lon="6.91098">
        <ele>2096</ele>
        <time>2021-11-17T07:53:05Z</time>
      </trkpt>
      <trkpt lat="44.71283" lon="6.911">
        <ele>2098</ele>
        <time>2021-11-17T07:53:13Z</time>
      </trkpt>
      <trkpt lat="44.71281" lon="6.91101">
        <ele>2098</ele>
        <time>2021-11-17T07:53:15Z</time>
      </trkpt>
      <trkpt lat="44.71279" lon="6.91102">
        <ele>2099</ele>
        <time>2021-11-17T07:53:18Z</time>
      </trkpt>
      <trkpt lat="44.71276" lon="6.91104">
        <ele>2100</ele>
        <time>2021-11-17T07:53:25Z</time>
      </trkpt>
      <trkpt lat="44.71274" lon="6.91105">
        <ele>2101</ele>
        <time>2021-11-17T07:53:28Z</time>
      </trkpt>
      <trkpt lat="44.71272" lon="6.91105">
        <ele>2102</ele>
        <time>2021-11-17T07:53:32Z</time>
      </trkpt>
      <trkpt lat="44.7127" lon="6.91107">
        <ele>2103</ele>
        <time>2021-11-17T07:53:36Z</time>
      </trkpt>
      <trkpt lat="44.71268" lon="6.91107">
        <ele>2104</ele>
        <time>2021-11-17T07:53:38Z</time>
      </trkpt>
      <trkpt lat="44.71262" lon="6.91107">
        <ele>2105</ele>
        <time>2021-11-17T07:53:46Z</time>
      </trkpt>
      <trkpt lat="44.71261" lon="6.91108">
        <ele>2106</ele>
        <time>2021-11-17T07:53:48Z</time>
      </trkpt>
      <trkpt lat="44.71259" lon="6.91109">
        <ele>2106</ele>
        <time>2021-11-17T07:53:51Z</time>
      </trkpt>
      <trkpt lat="44.71254" lon="6.9111">
        <ele>2106</ele>
        <time>2021-11-17T07:53:58Z</time>
      </trkpt>
      <trkpt lat="44.71252" lon="6.9111">
        <ele>2106</ele>
        <time>2021-11-17T07:54:01Z</time>
      </trkpt>
      <trkpt lat="44.7125" lon="6.91111">
        <ele>2106</ele>
        <time>2021-11-17T07:54:04Z</time>
      </trkpt>
      <trkpt lat="44.71246" lon="6.91112">
        <ele>2106</ele>
        <time>2021-11-17T07:54:09Z</time>
      </trkpt>
      <trkpt lat="44.71244" lon="6.91111">
        <ele>2106</ele>
        <time>2021-11-17T07:54:12Z</time>
      </trkpt>
      <trkpt lat="44.71242" lon="6.91111">
        <ele>2106</ele>
        <time>2021-11-17T07:54:15Z</time>
      </trkpt>
      <trkpt lat="44.71241" lon="6.91111">
        <ele>2106</ele>
        <time>2021-11-17T07:54:18Z</time>
      </trkpt>
      <trkpt lat="44.71239" lon="6.91111">
        <ele>2106</ele>
        <time>2021-11-17T07:54:21Z</time>
      </trkpt>
      <trkpt lat="44.71237" lon="6.91113">
        <ele>2107</ele>
        <time>2021-11-17T07:54:24Z</time>
      </trkpt>
      <trkpt lat="44.71235" lon="6.91114">
        <ele>2107</ele>
        <time>2021-11-17T07:54:27Z</time>
      </trkpt>
      <trkpt lat="44.71233" lon="6.91116">
        <ele>2108</ele>
        <time>2021-11-17T07:54:30Z</time>
      </trkpt>
      <trkpt lat="44.71232" lon="6.91117">
        <ele>2108</ele>
        <time>2021-11-17T07:54:32Z</time>
      </trkpt>
      <trkpt lat="44.71227" lon="6.91122">
        <ele>2108</ele>
        <time>2021-11-17T07:54:39Z</time>
      </trkpt>
      <trkpt lat="44.71224" lon="6.91122">
        <ele>2109</ele>
        <time>2021-11-17T07:54:41Z</time>
      </trkpt>
      <trkpt lat="44.71223" lon="6.91123">
        <ele>2109</ele>
        <time>2021-11-17T07:54:43Z</time>
      </trkpt>
      <trkpt lat="44.71216" lon="6.91124">
        <ele>2112</ele>
        <time>2021-11-17T07:54:51Z</time>
      </trkpt>
      <trkpt lat="44.71214" lon="6.91125">
        <ele>2113</ele>
        <time>2021-11-17T07:54:55Z</time>
      </trkpt>
      <trkpt lat="44.7121" lon="6.91126">
        <ele>2115</ele>
        <time>2021-11-17T07:55:00Z</time>
      </trkpt>
      <trkpt lat="44.71208" lon="6.91128">
        <ele>2115</ele>
        <time>2021-11-17T07:55:03Z</time>
      </trkpt>
      <trkpt lat="44.71206" lon="6.91129">
        <ele>2115</ele>
        <time>2021-11-17T07:55:05Z</time>
      </trkpt>
      <trkpt lat="44.71205" lon="6.9113">
        <ele>2115</ele>
        <time>2021-11-17T07:55:07Z</time>
      </trkpt>
      <trkpt lat="44.71199" lon="6.91128">
        <ele>2116</ele>
        <time>2021-11-17T07:55:13Z</time>
      </trkpt>
      <trkpt lat="44.71196" lon="6.91128">
        <ele>2116</ele>
        <time>2021-11-17T07:55:17Z</time>
      </trkpt>
      <trkpt lat="44.71194" lon="6.9113">
        <ele>2116</ele>
        <time>2021-11-17T07:55:20Z</time>
      </trkpt>
      <trkpt lat="44.71183" lon="6.91137">
        <ele>2119</ele>
        <time>2021-11-17T07:55:36Z</time>
      </trkpt>
      <trkpt lat="44.71181" lon="6.91137">
        <ele>2119</ele>
        <time>2021-11-17T07:55:39Z</time>
      </trkpt>
      <trkpt lat="44.71179" lon="6.91137">
        <ele>2119</ele>
        <time>2021-11-17T07:55:42Z</time>
      </trkpt>
      <trkpt lat="44.71177" lon="6.91138">
        <ele>2120</ele>
        <time>2021-11-17T07:55:44Z</time>
      </trkpt>
      <trkpt lat="44.71174" lon="6.91136">
        <ele>2120</ele>
        <time>2021-11-17T07:55:49Z</time>
      </trkpt>
      <trkpt lat="44.71167" lon="6.91132">
        <ele>2121</ele>
        <time>2021-11-17T07:55:57Z</time>
      </trkpt>
      <trkpt lat="44.71165" lon="6.91131">
        <ele>2121</ele>
        <time>2021-11-17T07:56:00Z</time>
      </trkpt>
      <trkpt lat="44.71161" lon="6.91129">
        <ele>2122</ele>
        <time>2021-11-17T07:56:07Z</time>
      </trkpt>
      <trkpt lat="44.71159" lon="6.91129">
        <ele>2123</ele>
        <time>2021-11-17T07:56:10Z</time>
      </trkpt>
      <trkpt lat="44.71157" lon="6.91129">
        <ele>2124</ele>
        <time>2021-11-17T07:56:12Z</time>
      </trkpt>
      <trkpt lat="44.71155" lon="6.91128">
        <ele>2124</ele>
        <time>2021-11-17T07:56:14Z</time>
      </trkpt>
      <trkpt lat="44.71153" lon="6.91128">
        <ele>2125</ele>
        <time>2021-11-17T07:56:16Z</time>
      </trkpt>
      <trkpt lat="44.71151" lon="6.91128">
        <ele>2125</ele>
        <time>2021-11-17T07:56:19Z</time>
      </trkpt>
      <trkpt lat="44.7115" lon="6.91128">
        <ele>2126</ele>
        <time>2021-11-17T07:56:21Z</time>
      </trkpt>
      <trkpt lat="44.71148" lon="6.91127">
        <ele>2126</ele>
        <time>2021-11-17T07:56:23Z</time>
      </trkpt>
      <trkpt lat="44.71146" lon="6.91127">
        <ele>2127</ele>
        <time>2021-11-17T07:56:26Z</time>
      </trkpt>
      <trkpt lat="44.71142" lon="6.91125">
        <ele>2127</ele>
        <time>2021-11-17T07:56:31Z</time>
      </trkpt>
      <trkpt lat="44.7114" lon="6.91125">
        <ele>2128</ele>
        <time>2021-11-17T07:56:34Z</time>
      </trkpt>
      <trkpt lat="44.71127" lon="6.91124">
        <ele>2131</ele>
        <time>2021-11-17T07:56:51Z</time>
      </trkpt>
      <trkpt lat="44.71126" lon="6.91123">
        <ele>2131</ele>
        <time>2021-11-17T07:56:53Z</time>
      </trkpt>
      <trkpt lat="44.71124" lon="6.91122">
        <ele>2132</ele>
        <time>2021-11-17T07:56:55Z</time>
      </trkpt>
      <trkpt lat="44.71118" lon="6.91119">
        <ele>2133</ele>
        <time>2021-11-17T07:57:04Z</time>
      </trkpt>
      <trkpt lat="44.71117" lon="6.91119">
        <ele>2133</ele>
        <time>2021-11-17T07:57:06Z</time>
      </trkpt>
      <trkpt lat="44.71115" lon="6.9112">
        <ele>2134</ele>
        <time>2021-11-17T07:57:08Z</time>
      </trkpt>
      <trkpt lat="44.71114" lon="6.9112">
        <ele>2134</ele>
        <time>2021-11-17T07:57:10Z</time>
      </trkpt>
      <trkpt lat="44.71109" lon="6.91122">
        <ele>2134</ele>
        <time>2021-11-17T07:57:16Z</time>
      </trkpt>
      <trkpt lat="44.71103" lon="6.9112">
        <ele>2134</ele>
        <time>2021-11-17T07:57:26Z</time>
      </trkpt>
      <trkpt lat="44.71101" lon="6.91119">
        <ele>2135</ele>
        <time>2021-11-17T07:57:28Z</time>
      </trkpt>
      <trkpt lat="44.711" lon="6.91119">
        <ele>2135</ele>
        <time>2021-11-17T07:57:30Z</time>
      </trkpt>
      <trkpt lat="44.71099" lon="6.91119">
        <ele>2135</ele>
        <time>2021-11-17T07:57:33Z</time>
      </trkpt>
      <trkpt lat="44.71096" lon="6.91118">
        <ele>2136</ele>
        <time>2021-11-17T07:57:38Z</time>
      </trkpt>
      <trkpt lat="44.71094" lon="6.91117">
        <ele>2137</ele>
        <time>2021-11-17T07:57:40Z</time>
      </trkpt>
      <trkpt lat="44.71091" lon="6.91116">
        <ele>2137</ele>
        <time>2021-11-17T07:57:46Z</time>
      </trkpt>
      <trkpt lat="44.7109" lon="6.91116">
        <ele>2137</ele>
        <time>2021-11-17T07:57:49Z</time>
      </trkpt>
      <trkpt lat="44.71088" lon="6.91115">
        <ele>2138</ele>
        <time>2021-11-17T07:57:52Z</time>
      </trkpt>
      <trkpt lat="44.71086" lon="6.91115">
        <ele>2138</ele>
        <time>2021-11-17T07:57:54Z</time>
      </trkpt>
      <trkpt lat="44.71084" lon="6.91114">
        <ele>2138</ele>
        <time>2021-11-17T07:57:57Z</time>
      </trkpt>
      <trkpt lat="44.71077" lon="6.91113">
        <ele>2140</ele>
        <time>2021-11-17T07:58:06Z</time>
      </trkpt>
      <trkpt lat="44.71076" lon="6.91113">
        <ele>2140</ele>
        <time>2021-11-17T07:58:09Z</time>
      </trkpt>
      <trkpt lat="44.71074" lon="6.91113">
        <ele>2141</ele>
        <time>2021-11-17T07:58:12Z</time>
      </trkpt>
      <trkpt lat="44.71072" lon="6.91111">
        <ele>2142</ele>
        <time>2021-11-17T07:58:15Z</time>
      </trkpt>
      <trkpt lat="44.71071" lon="6.9111">
        <ele>2142</ele>
        <time>2021-11-17T07:58:17Z</time>
      </trkpt>
      <trkpt lat="44.71065" lon="6.91109">
        <ele>2144</ele>
        <time>2021-11-17T07:58:25Z</time>
      </trkpt>
      <trkpt lat="44.71064" lon="6.91109">
        <ele>2144</ele>
        <time>2021-11-17T07:58:27Z</time>
      </trkpt>
      <trkpt lat="44.71056" lon="6.91104">
        <ele>2146</ele>
        <time>2021-11-17T07:58:39Z</time>
      </trkpt>
      <trkpt lat="44.71052" lon="6.91101">
        <ele>2147</ele>
        <time>2021-11-17T07:58:45Z</time>
      </trkpt>
      <trkpt lat="44.71048" lon="6.91102">
        <ele>2149</ele>
        <time>2021-11-17T07:58:51Z</time>
      </trkpt>
      <trkpt lat="44.71045" lon="6.91103">
        <ele>2149</ele>
        <time>2021-11-17T07:58:55Z</time>
      </trkpt>
      <trkpt lat="44.71042" lon="6.91103">
        <ele>2150</ele>
        <time>2021-11-17T07:58:59Z</time>
      </trkpt>
      <trkpt lat="44.7104" lon="6.91103">
        <ele>2150</ele>
        <time>2021-11-17T07:59:01Z</time>
      </trkpt>
      <trkpt lat="44.71035" lon="6.91104">
        <ele>2151</ele>
        <time>2021-11-17T07:59:07Z</time>
      </trkpt>
      <trkpt lat="44.71033" lon="6.91105">
        <ele>2151</ele>
        <time>2021-11-17T07:59:09Z</time>
      </trkpt>
      <trkpt lat="44.71032" lon="6.91106">
        <ele>2152</ele>
        <time>2021-11-17T07:59:12Z</time>
      </trkpt>
      <trkpt lat="44.71023" lon="6.91112">
        <ele>2155</ele>
        <time>2021-11-17T07:59:26Z</time>
      </trkpt>
      <trkpt lat="44.71021" lon="6.91112">
        <ele>2155</ele>
        <time>2021-11-17T07:59:29Z</time>
      </trkpt>
      <trkpt lat="44.71016" lon="6.91113">
        <ele>2157</ele>
        <time>2021-11-17T07:59:37Z</time>
      </trkpt>
      <trkpt lat="44.71013" lon="6.91112">
        <ele>2158</ele>
        <time>2021-11-17T07:59:42Z</time>
      </trkpt>
      <trkpt lat="44.71011" lon="6.91111">
        <ele>2159</ele>
        <time>2021-11-17T07:59:45Z</time>
      </trkpt>
      <trkpt lat="44.71009" lon="6.91111">
        <ele>2159</ele>
        <time>2021-11-17T07:59:48Z</time>
      </trkpt>
      <trkpt lat="44.71008" lon="6.91111">
        <ele>2160</ele>
        <time>2021-11-17T07:59:50Z</time>
      </trkpt>
      <trkpt lat="44.71006" lon="6.9111">
        <ele>2160</ele>
        <time>2021-11-17T07:59:52Z</time>
      </trkpt>
      <trkpt lat="44.71004" lon="6.9111">
        <ele>2160</ele>
        <time>2021-11-17T07:59:54Z</time>
      </trkpt>
      <trkpt lat="44.71002" lon="6.91111">
        <ele>2161</ele>
        <time>2021-11-17T07:59:57Z</time>
      </trkpt>
      <trkpt lat="44.71001" lon="6.9111">
        <ele>2161</ele>
        <time>2021-11-17T08:00:00Z</time>
      </trkpt>
      <trkpt lat="44.70999" lon="6.9111">
        <ele>2162</ele>
        <time>2021-11-17T08:00:03Z</time>
      </trkpt>
      <trkpt lat="44.70997" lon="6.91111">
        <ele>2163</ele>
        <time>2021-11-17T08:00:06Z</time>
      </trkpt>
      <trkpt lat="44.70993" lon="6.91113">
        <ele>2164</ele>
        <time>2021-11-17T08:00:11Z</time>
      </trkpt>
      <trkpt lat="44.70991" lon="6.91113">
        <ele>2165</ele>
        <time>2021-11-17T08:00:15Z</time>
      </trkpt>
      <trkpt lat="44.70989" lon="6.91113">
        <ele>2166</ele>
        <time>2021-11-17T08:00:17Z</time>
      </trkpt>
      <trkpt lat="44.70987" lon="6.91112">
        <ele>2167</ele>
        <time>2021-11-17T08:00:20Z</time>
      </trkpt>
      <trkpt lat="44.70979" lon="6.91114">
        <ele>2169</ele>
        <time>2021-11-17T08:00:32Z</time>
      </trkpt>
      <trkpt lat="44.70978" lon="6.91113">
        <ele>2170</ele>
        <time>2021-11-17T08:00:34Z</time>
      </trkpt>
      <trkpt lat="44.70974" lon="6.91113">
        <ele>2170</ele>
        <time>2021-11-17T08:00:38Z</time>
      </trkpt>
      <trkpt lat="44.70972" lon="6.91113">
        <ele>2171</ele>
        <time>2021-11-17T08:00:40Z</time>
      </trkpt>
      <trkpt lat="44.70968" lon="6.91114">
        <ele>2172</ele>
        <time>2021-11-17T08:00:46Z</time>
      </trkpt>
      <trkpt lat="44.70966" lon="6.91114">
        <ele>2172</ele>
        <time>2021-11-17T08:00:50Z</time>
      </trkpt>
      <trkpt lat="44.70964" lon="6.91115">
        <ele>2173</ele>
        <time>2021-11-17T08:00:55Z</time>
      </trkpt>
      <trkpt lat="44.70962" lon="6.91116">
        <ele>2174</ele>
        <time>2021-11-17T08:00:59Z</time>
      </trkpt>
      <trkpt lat="44.7096" lon="6.91115">
        <ele>2174</ele>
        <time>2021-11-17T08:01:03Z</time>
      </trkpt>
      <trkpt lat="44.70958" lon="6.91116">
        <ele>2175</ele>
        <time>2021-11-17T08:01:06Z</time>
      </trkpt>
      <trkpt lat="44.70957" lon="6.91119">
        <ele>2176</ele>
        <time>2021-11-17T08:01:09Z</time>
      </trkpt>
      <trkpt lat="44.70953" lon="6.91121">
        <ele>2177</ele>
        <time>2021-11-17T08:01:14Z</time>
      </trkpt>
      <trkpt lat="44.70952" lon="6.91123">
        <ele>2178</ele>
        <time>2021-11-17T08:01:16Z</time>
      </trkpt>
      <trkpt lat="44.70948" lon="6.91124">
        <ele>2178</ele>
        <time>2021-11-17T08:01:20Z</time>
      </trkpt>
      <trkpt lat="44.70947" lon="6.91125">
        <ele>2179</ele>
        <time>2021-11-17T08:01:22Z</time>
      </trkpt>
      <trkpt lat="44.70945" lon="6.91125">
        <ele>2179</ele>
        <time>2021-11-17T08:01:24Z</time>
      </trkpt>
      <trkpt lat="44.70942" lon="6.91128">
        <ele>2179</ele>
        <time>2021-11-17T08:01:30Z</time>
      </trkpt>
      <trkpt lat="44.7094" lon="6.91128">
        <ele>2180</ele>
        <time>2021-11-17T08:01:33Z</time>
      </trkpt>
      <trkpt lat="44.70934" lon="6.91129">
        <ele>2181</ele>
        <time>2021-11-17T08:01:42Z</time>
      </trkpt>
      <trkpt lat="44.7093" lon="6.91132">
        <ele>2182</ele>
        <time>2021-11-17T08:01:47Z</time>
      </trkpt>
      <trkpt lat="44.70929" lon="6.91132">
        <ele>2182</ele>
        <time>2021-11-17T08:01:50Z</time>
      </trkpt>
      <trkpt lat="44.70927" lon="6.91133">
        <ele>2183</ele>
        <time>2021-11-17T08:01:53Z</time>
      </trkpt>
      <trkpt lat="44.70925" lon="6.91134">
        <ele>2183</ele>
        <time>2021-11-17T08:01:56Z</time>
      </trkpt>
      <trkpt lat="44.70923" lon="6.91135">
        <ele>2185</ele>
        <time>2021-11-17T08:01:59Z</time>
      </trkpt>
      <trkpt lat="44.7092" lon="6.91137">
        <ele>2186</ele>
        <time>2021-11-17T08:02:03Z</time>
      </trkpt>
      <trkpt lat="44.70917" lon="6.91138">
        <ele>2187</ele>
        <time>2021-11-17T08:02:09Z</time>
      </trkpt>
      <trkpt lat="44.70915" lon="6.91138">
        <ele>2187</ele>
        <time>2021-11-17T08:02:11Z</time>
      </trkpt>
      <trkpt lat="44.70913" lon="6.9114">
        <ele>2188</ele>
        <time>2021-11-17T08:02:14Z</time>
      </trkpt>
      <trkpt lat="44.7091" lon="6.9114">
        <ele>2188</ele>
        <time>2021-11-17T08:02:20Z</time>
      </trkpt>
      <trkpt lat="44.70908" lon="6.91141">
        <ele>2189</ele>
        <time>2021-11-17T08:02:23Z</time>
      </trkpt>
      <trkpt lat="44.70906" lon="6.91143">
        <ele>2189</ele>
        <time>2021-11-17T08:02:26Z</time>
      </trkpt>
      <trkpt lat="44.70902" lon="6.9114">
        <ele>2192</ele>
        <time>2021-11-17T08:02:27Z</time>
      </trkpt>
      <trkpt lat="44.70896" lon="6.91141">
        <ele>2195</ele>
        <time>2021-11-17T08:02:40Z</time>
      </trkpt>
      <trkpt lat="44.70892" lon="6.91143">
        <ele>2196</ele>
        <time>2021-11-17T08:02:47Z</time>
      </trkpt>
      <trkpt lat="44.70891" lon="6.91144">
        <ele>2197</ele>
        <time>2021-11-17T08:02:53Z</time>
      </trkpt>
      <trkpt lat="44.70889" lon="6.91144">
        <ele>2197</ele>
        <time>2021-11-17T08:02:57Z</time>
      </trkpt>
      <trkpt lat="44.70884" lon="6.91142">
        <ele>2198</ele>
        <time>2021-11-17T08:03:03Z</time>
      </trkpt>
      <trkpt lat="44.70878" lon="6.91141">
        <ele>2199</ele>
        <time>2021-11-17T08:03:11Z</time>
      </trkpt>
      <trkpt lat="44.70876" lon="6.91141">
        <ele>2200</ele>
        <time>2021-11-17T08:03:13Z</time>
      </trkpt>
      <trkpt lat="44.70873" lon="6.91141">
        <ele>2200</ele>
        <time>2021-11-17T08:03:18Z</time>
      </trkpt>
      <trkpt lat="44.7087" lon="6.9114">
        <ele>2201</ele>
        <time>2021-11-17T08:03:22Z</time>
      </trkpt>
      <trkpt lat="44.70868" lon="6.9114">
        <ele>2201</ele>
        <time>2021-11-17T08:03:24Z</time>
      </trkpt>
      <trkpt lat="44.70865" lon="6.91138">
        <ele>2202</ele>
        <time>2021-11-17T08:03:34Z</time>
      </trkpt>
      <trkpt lat="44.70863" lon="6.91137">
        <ele>2202</ele>
        <time>2021-11-17T08:03:38Z</time>
      </trkpt>
      <trkpt lat="44.70855" lon="6.91139">
        <ele>2203</ele>
        <time>2021-11-17T08:03:49Z</time>
      </trkpt>
      <trkpt lat="44.7085" lon="6.91139">
        <ele>2204</ele>
        <time>2021-11-17T08:03:55Z</time>
      </trkpt>
      <trkpt lat="44.70847" lon="6.9114">
        <ele>2205</ele>
        <time>2021-11-17T08:04:02Z</time>
      </trkpt>
      <trkpt lat="44.70844" lon="6.91145">
        <ele>2206</ele>
        <time>2021-11-17T08:04:09Z</time>
      </trkpt>
      <trkpt lat="44.70841" lon="6.91148">
        <ele>2207</ele>
        <time>2021-11-17T08:04:14Z</time>
      </trkpt>
      <trkpt lat="44.7084" lon="6.91149">
        <ele>2207</ele>
        <time>2021-11-17T08:04:16Z</time>
      </trkpt>
      <trkpt lat="44.70838" lon="6.91149">
        <ele>2208</ele>
        <time>2021-11-17T08:04:19Z</time>
      </trkpt>
      <trkpt lat="44.70836" lon="6.9115">
        <ele>2208</ele>
        <time>2021-11-17T08:04:21Z</time>
      </trkpt>
      <trkpt lat="44.70834" lon="6.9115">
        <ele>2208</ele>
        <time>2021-11-17T08:04:23Z</time>
      </trkpt>
      <trkpt lat="44.70833" lon="6.9115">
        <ele>2208</ele>
        <time>2021-11-17T08:04:26Z</time>
      </trkpt>
      <trkpt lat="44.70831" lon="6.91149">
        <ele>2208</ele>
        <time>2021-11-17T08:04:30Z</time>
      </trkpt>
      <trkpt lat="44.70829" lon="6.91148">
        <ele>2209</ele>
        <time>2021-11-17T08:04:34Z</time>
      </trkpt>
      <trkpt lat="44.70827" lon="6.91148">
        <ele>2209</ele>
        <time>2021-11-17T08:04:37Z</time>
      </trkpt>
      <trkpt lat="44.70825" lon="6.91149">
        <ele>2210</ele>
        <time>2021-11-17T08:04:40Z</time>
      </trkpt>
      <trkpt lat="44.70824" lon="6.91149">
        <ele>2210</ele>
        <time>2021-11-17T08:04:43Z</time>
      </trkpt>
      <trkpt lat="44.7082" lon="6.9115">
        <ele>2210</ele>
        <time>2021-11-17T08:04:47Z</time>
      </trkpt>
      <trkpt lat="44.70817" lon="6.91152">
        <ele>2210</ele>
        <time>2021-11-17T08:04:57Z</time>
      </trkpt>
      <trkpt lat="44.70811" lon="6.9115">
        <ele>2210</ele>
        <time>2021-11-17T08:05:06Z</time>
      </trkpt>
      <trkpt lat="44.70809" lon="6.91149">
        <ele>2211</ele>
        <time>2021-11-17T08:05:09Z</time>
      </trkpt>
      <trkpt lat="44.70807" lon="6.91147">
        <ele>2211</ele>
        <time>2021-11-17T08:05:11Z</time>
      </trkpt>
      <trkpt lat="44.70805" lon="6.91147">
        <ele>2211</ele>
        <time>2021-11-17T08:05:14Z</time>
      </trkpt>
      <trkpt lat="44.70804" lon="6.91147">
        <ele>2211</ele>
        <time>2021-11-17T08:05:17Z</time>
      </trkpt>
      <trkpt lat="44.70801" lon="6.91147">
        <ele>2212</ele>
        <time>2021-11-17T08:05:21Z</time>
      </trkpt>
      <trkpt lat="44.70796" lon="6.91154">
        <ele>2214</ele>
        <time>2021-11-17T08:05:35Z</time>
      </trkpt>
      <trkpt lat="44.70795" lon="6.91156">
        <ele>2214</ele>
        <time>2021-11-17T08:05:38Z</time>
      </trkpt>
      <trkpt lat="44.70791" lon="6.91159">
        <ele>2215</ele>
        <time>2021-11-17T08:05:43Z</time>
      </trkpt>
      <trkpt lat="44.70789" lon="6.91159">
        <ele>2216</ele>
        <time>2021-11-17T08:05:45Z</time>
      </trkpt>
      <trkpt lat="44.70786" lon="6.91159">
        <ele>2216</ele>
        <time>2021-11-17T08:05:48Z</time>
      </trkpt>
      <trkpt lat="44.70781" lon="6.91162">
        <ele>2216</ele>
        <time>2021-11-17T08:05:58Z</time>
      </trkpt>
      <trkpt lat="44.70778" lon="6.91163">
        <ele>2217</ele>
        <time>2021-11-17T08:06:03Z</time>
      </trkpt>
      <trkpt lat="44.70772" lon="6.91163">
        <ele>2221</ele>
        <time>2021-11-17T08:06:13Z</time>
      </trkpt>
      <trkpt lat="44.70769" lon="6.91166">
        <ele>2224</ele>
        <time>2021-11-17T08:06:19Z</time>
      </trkpt>
      <trkpt lat="44.70767" lon="6.91166">
        <ele>2225</ele>
        <time>2021-11-17T08:06:23Z</time>
      </trkpt>
      <trkpt lat="44.70765" lon="6.91166">
        <ele>2226</ele>
        <time>2021-11-17T08:06:26Z</time>
      </trkpt>
      <trkpt lat="44.70763" lon="6.91166">
        <ele>2226</ele>
        <time>2021-11-17T08:06:29Z</time>
      </trkpt>
      <trkpt lat="44.70761" lon="6.91165">
        <ele>2227</ele>
        <time>2021-11-17T08:06:33Z</time>
      </trkpt>
      <trkpt lat="44.70759" lon="6.91164">
        <ele>2228</ele>
        <time>2021-11-17T08:06:37Z</time>
      </trkpt>
      <trkpt lat="44.70757" lon="6.91164">
        <ele>2228</ele>
        <time>2021-11-17T08:06:39Z</time>
      </trkpt>
      <trkpt lat="44.70756" lon="6.91164">
        <ele>2228</ele>
        <time>2021-11-17T08:06:42Z</time>
      </trkpt>
      <trkpt lat="44.7075" lon="6.91163">
        <ele>2230</ele>
        <time>2021-11-17T08:06:50Z</time>
      </trkpt>
      <trkpt lat="44.70748" lon="6.91163">
        <ele>2230</ele>
        <time>2021-11-17T08:06:52Z</time>
      </trkpt>
      <trkpt lat="44.70746" lon="6.91163">
        <ele>2230</ele>
        <time>2021-11-17T08:06:54Z</time>
      </trkpt>
      <trkpt lat="44.70745" lon="6.91164">
        <ele>2230</ele>
        <time>2021-11-17T08:06:56Z</time>
      </trkpt>
      <trkpt lat="44.70743" lon="6.91168">
        <ele>2231</ele>
        <time>2021-11-17T08:07:00Z</time>
      </trkpt>
      <trkpt lat="44.70741" lon="6.91169">
        <ele>2231</ele>
        <time>2021-11-17T08:07:03Z</time>
      </trkpt>
      <trkpt lat="44.70732" lon="6.91171">
        <ele>2232</ele>
        <time>2021-11-17T08:07:17Z</time>
      </trkpt>
      <trkpt lat="44.70731" lon="6.91173">
        <ele>2233</ele>
        <time>2021-11-17T08:07:20Z</time>
      </trkpt>
      <trkpt lat="44.70725" lon="6.91175">
        <ele>2233</ele>
        <time>2021-11-17T08:07:28Z</time>
      </trkpt>
      <trkpt lat="44.70721" lon="6.91181">
        <ele>2233</ele>
        <time>2021-11-17T08:07:34Z</time>
      </trkpt>
      <trkpt lat="44.7072" lon="6.91183">
        <ele>2234</ele>
        <time>2021-11-17T08:07:37Z</time>
      </trkpt>
      <trkpt lat="44.7072" lon="6.91185">
        <ele>2234</ele>
        <time>2021-11-17T08:07:40Z</time>
      </trkpt>
      <trkpt lat="44.70719" lon="6.91187">
        <ele>2234</ele>
        <time>2021-11-17T08:07:43Z</time>
      </trkpt>
      <trkpt lat="44.70718" lon="6.9119">
        <ele>2235</ele>
        <time>2021-11-17T08:07:46Z</time>
      </trkpt>
      <trkpt lat="44.70717" lon="6.91191">
        <ele>2235</ele>
        <time>2021-11-17T08:07:49Z</time>
      </trkpt>
      <trkpt lat="44.70714" lon="6.91194">
        <ele>2235</ele>
        <time>2021-11-17T08:07:53Z</time>
      </trkpt>
      <trkpt lat="44.70713" lon="6.91194">
        <ele>2235</ele>
        <time>2021-11-17T08:07:55Z</time>
      </trkpt>
      <trkpt lat="44.70708" lon="6.91202">
        <ele>2236</ele>
        <time>2021-11-17T08:08:06Z</time>
      </trkpt>
      <trkpt lat="44.70707" lon="6.91204">
        <ele>2236</ele>
        <time>2021-11-17T08:08:09Z</time>
      </trkpt>
      <trkpt lat="44.70705" lon="6.91206">
        <ele>2236</ele>
        <time>2021-11-17T08:08:12Z</time>
      </trkpt>
      <trkpt lat="44.70702" lon="6.91212">
        <ele>2237</ele>
        <time>2021-11-17T08:08:19Z</time>
      </trkpt>
      <trkpt lat="44.707" lon="6.91213">
        <ele>2238</ele>
        <time>2021-11-17T08:08:21Z</time>
      </trkpt>
      <trkpt lat="44.70697" lon="6.91214">
        <ele>2238</ele>
        <time>2021-11-17T08:08:26Z</time>
      </trkpt>
      <trkpt lat="44.70695" lon="6.91217">
        <ele>2239</ele>
        <time>2021-11-17T08:08:32Z</time>
      </trkpt>
      <trkpt lat="44.70694" lon="6.9122">
        <ele>2239</ele>
        <time>2021-11-17T08:08:35Z</time>
      </trkpt>
      <trkpt lat="44.70692" lon="6.91221">
        <ele>2239</ele>
        <time>2021-11-17T08:08:39Z</time>
      </trkpt>
      <trkpt lat="44.70686" lon="6.91227">
        <ele>2242</ele>
        <time>2021-11-17T08:08:51Z</time>
      </trkpt>
      <trkpt lat="44.70682" lon="6.91231">
        <ele>2244</ele>
        <time>2021-11-17T08:08:56Z</time>
      </trkpt>
      <trkpt lat="44.70681" lon="6.91231">
        <ele>2244</ele>
        <time>2021-11-17T08:08:58Z</time>
      </trkpt>
      <trkpt lat="44.70678" lon="6.91234">
        <ele>2245</ele>
        <time>2021-11-17T08:09:05Z</time>
      </trkpt>
      <trkpt lat="44.70676" lon="6.91236">
        <ele>2246</ele>
        <time>2021-11-17T08:09:08Z</time>
      </trkpt>
      <trkpt lat="44.70673" lon="6.91239">
        <ele>2248</ele>
        <time>2021-11-17T08:09:13Z</time>
      </trkpt>
      <trkpt lat="44.70671" lon="6.91239">
        <ele>2249</ele>
        <time>2021-11-17T08:09:16Z</time>
      </trkpt>
      <trkpt lat="44.70667" lon="6.91237">
        <ele>2251</ele>
        <time>2021-11-17T08:09:21Z</time>
      </trkpt>
      <trkpt lat="44.70666" lon="6.91236">
        <ele>2251</ele>
        <time>2021-11-17T08:09:24Z</time>
      </trkpt>
      <trkpt lat="44.70664" lon="6.91236">
        <ele>2252</ele>
        <time>2021-11-17T08:09:27Z</time>
      </trkpt>
      <trkpt lat="44.70663" lon="6.91236">
        <ele>2252</ele>
        <time>2021-11-17T08:09:29Z</time>
      </trkpt>
      <trkpt lat="44.70661" lon="6.91236">
        <ele>2252</ele>
        <time>2021-11-17T08:09:31Z</time>
      </trkpt>
      <trkpt lat="44.70659" lon="6.91236">
        <ele>2253</ele>
        <time>2021-11-17T08:09:33Z</time>
      </trkpt>
      <trkpt lat="44.70658" lon="6.91236">
        <ele>2253</ele>
        <time>2021-11-17T08:09:37Z</time>
      </trkpt>
      <trkpt lat="44.70655" lon="6.91236">
        <ele>2254</ele>
        <time>2021-11-17T08:09:41Z</time>
      </trkpt>
      <trkpt lat="44.70652" lon="6.91236">
        <ele>2254</ele>
        <time>2021-11-17T08:09:44Z</time>
      </trkpt>
      <trkpt lat="44.70649" lon="6.91239">
        <ele>2254</ele>
        <time>2021-11-17T08:09:49Z</time>
      </trkpt>
      <trkpt lat="44.70648" lon="6.91241">
        <ele>2254</ele>
        <time>2021-11-17T08:09:52Z</time>
      </trkpt>
      <trkpt lat="44.70647" lon="6.91243">
        <ele>2254</ele>
        <time>2021-11-17T08:09:55Z</time>
      </trkpt>
      <trkpt lat="44.70646" lon="6.91245">
        <ele>2254</ele>
        <time>2021-11-17T08:09:57Z</time>
      </trkpt>
      <trkpt lat="44.70645" lon="6.9125">
        <ele>2254</ele>
        <time>2021-11-17T08:10:02Z</time>
      </trkpt>
      <trkpt lat="44.70644" lon="6.91251">
        <ele>2254</ele>
        <time>2021-11-17T08:10:04Z</time>
      </trkpt>
      <trkpt lat="44.70643" lon="6.91253">
        <ele>2254</ele>
        <time>2021-11-17T08:10:07Z</time>
      </trkpt>
      <trkpt lat="44.70642" lon="6.91256">
        <ele>2254</ele>
        <time>2021-11-17T08:10:10Z</time>
      </trkpt>
      <trkpt lat="44.70641" lon="6.91261">
        <ele>2254</ele>
        <time>2021-11-17T08:10:15Z</time>
      </trkpt>
      <trkpt lat="44.70639" lon="6.91264">
        <ele>2255</ele>
        <time>2021-11-17T08:10:20Z</time>
      </trkpt>
      <trkpt lat="44.70638" lon="6.91266">
        <ele>2255</ele>
        <time>2021-11-17T08:10:22Z</time>
      </trkpt>
      <trkpt lat="44.70635" lon="6.91273">
        <ele>2255</ele>
        <time>2021-11-17T08:10:31Z</time>
      </trkpt>
      <trkpt lat="44.70632" lon="6.91276">
        <ele>2255</ele>
        <time>2021-11-17T08:10:37Z</time>
      </trkpt>
      <trkpt lat="44.7063" lon="6.91277">
        <ele>2255</ele>
        <time>2021-11-17T08:10:39Z</time>
      </trkpt>
      <trkpt lat="44.70628" lon="6.91277">
        <ele>2255</ele>
        <time>2021-11-17T08:10:41Z</time>
      </trkpt>
      <trkpt lat="44.70627" lon="6.91276">
        <ele>2256</ele>
        <time>2021-11-17T08:10:43Z</time>
      </trkpt>
      <trkpt lat="44.70625" lon="6.91275">
        <ele>2256</ele>
        <time>2021-11-17T08:10:46Z</time>
      </trkpt>
      <trkpt lat="44.70624" lon="6.91275">
        <ele>2256</ele>
        <time>2021-11-17T08:10:49Z</time>
      </trkpt>
      <trkpt lat="44.7062" lon="6.91276">
        <ele>2257</ele>
        <time>2021-11-17T08:10:54Z</time>
      </trkpt>
      <trkpt lat="44.70617" lon="6.91276">
        <ele>2257</ele>
        <time>2021-11-17T08:10:58Z</time>
      </trkpt>
      <trkpt lat="44.70615" lon="6.91275">
        <ele>2258</ele>
        <time>2021-11-17T08:11:01Z</time>
      </trkpt>
      <trkpt lat="44.70614" lon="6.91274">
        <ele>2258</ele>
        <time>2021-11-17T08:11:05Z</time>
      </trkpt>
      <trkpt lat="44.70612" lon="6.91274">
        <ele>2259</ele>
        <time>2021-11-17T08:11:09Z</time>
      </trkpt>
      <trkpt lat="44.7061" lon="6.91273">
        <ele>2259</ele>
        <time>2021-11-17T08:11:12Z</time>
      </trkpt>
      <trkpt lat="44.706" lon="6.91272">
        <ele>2262</ele>
        <time>2021-11-17T08:11:25Z</time>
      </trkpt>
      <trkpt lat="44.70594" lon="6.91268">
        <ele>2263</ele>
        <time>2021-11-17T08:11:35Z</time>
      </trkpt>
      <trkpt lat="44.70592" lon="6.91268">
        <ele>2264</ele>
        <time>2021-11-17T08:11:38Z</time>
      </trkpt>
      <trkpt lat="44.70584" lon="6.91261">
        <ele>2266</ele>
        <time>2021-11-17T08:11:51Z</time>
      </trkpt>
      <trkpt lat="44.70582" lon="6.91261">
        <ele>2266</ele>
        <time>2021-11-17T08:11:55Z</time>
      </trkpt>
      <trkpt lat="44.70581" lon="6.91263">
        <ele>2267</ele>
        <time>2021-11-17T08:11:58Z</time>
      </trkpt>
      <trkpt lat="44.7058" lon="6.91265">
        <ele>2267</ele>
        <time>2021-11-17T08:12:00Z</time>
      </trkpt>
      <trkpt lat="44.70578" lon="6.91266">
        <ele>2268</ele>
        <time>2021-11-17T08:12:03Z</time>
      </trkpt>
      <trkpt lat="44.70577" lon="6.91267">
        <ele>2268</ele>
        <time>2021-11-17T08:12:05Z</time>
      </trkpt>
      <trkpt lat="44.70576" lon="6.9127">
        <ele>2269</ele>
        <time>2021-11-17T08:12:07Z</time>
      </trkpt>
      <trkpt lat="44.70573" lon="6.91276">
        <ele>2268</ele>
        <time>2021-11-17T08:12:14Z</time>
      </trkpt>
      <trkpt lat="44.70572" lon="6.91277">
        <ele>2268</ele>
        <time>2021-11-17T08:12:16Z</time>
      </trkpt>
      <trkpt lat="44.70568" lon="6.91282">
        <ele>2269</ele>
        <time>2021-11-17T08:12:23Z</time>
      </trkpt>
      <trkpt lat="44.70565" lon="6.91288">
        <ele>2270</ele>
        <time>2021-11-17T08:12:29Z</time>
      </trkpt>
      <trkpt lat="44.70562" lon="6.91295">
        <ele>2270</ele>
        <time>2021-11-17T08:12:37Z</time>
      </trkpt>
      <trkpt lat="44.7056" lon="6.913">
        <ele>2270</ele>
        <time>2021-11-17T08:12:43Z</time>
      </trkpt>
      <trkpt lat="44.70559" lon="6.913">
        <ele>2270</ele>
        <time>2021-11-17T08:12:45Z</time>
      </trkpt>
      <trkpt lat="44.70555" lon="6.91298">
        <ele>2271</ele>
        <time>2021-11-17T08:12:51Z</time>
      </trkpt>
      <trkpt lat="44.70553" lon="6.91297">
        <ele>2271</ele>
        <time>2021-11-17T08:12:54Z</time>
      </trkpt>
      <trkpt lat="44.70552" lon="6.91296">
        <ele>2271</ele>
        <time>2021-11-17T08:12:56Z</time>
      </trkpt>
      <trkpt lat="44.70551" lon="6.91296">
        <ele>2272</ele>
        <time>2021-11-17T08:12:59Z</time>
      </trkpt>
      <trkpt lat="44.70549" lon="6.91295">
        <ele>2272</ele>
        <time>2021-11-17T08:13:02Z</time>
      </trkpt>
      <trkpt lat="44.70547" lon="6.91295">
        <ele>2273</ele>
        <time>2021-11-17T08:13:04Z</time>
      </trkpt>
      <trkpt lat="44.70546" lon="6.91295">
        <ele>2273</ele>
        <time>2021-11-17T08:13:06Z</time>
      </trkpt>
      <trkpt lat="44.70544" lon="6.91294">
        <ele>2274</ele>
        <time>2021-11-17T08:13:08Z</time>
      </trkpt>
      <trkpt lat="44.70543" lon="6.91293">
        <ele>2275</ele>
        <time>2021-11-17T08:13:11Z</time>
      </trkpt>
      <trkpt lat="44.70541" lon="6.91293">
        <ele>2276</ele>
        <time>2021-11-17T08:13:13Z</time>
      </trkpt>
      <trkpt lat="44.70536" lon="6.91293">
        <ele>2277</ele>
        <time>2021-11-17T08:13:22Z</time>
      </trkpt>
      <trkpt lat="44.70529" lon="6.91288">
        <ele>2278</ele>
        <time>2021-11-17T08:13:34Z</time>
      </trkpt>
      <trkpt lat="44.70528" lon="6.91288">
        <ele>2278</ele>
        <time>2021-11-17T08:13:36Z</time>
      </trkpt>
      <trkpt lat="44.70526" lon="6.91289">
        <ele>2279</ele>
        <time>2021-11-17T08:13:39Z</time>
      </trkpt>
      <trkpt lat="44.70523" lon="6.91299">
        <ele>2281</ele>
        <time>2021-11-17T08:13:51Z</time>
      </trkpt>
      <trkpt lat="44.70521" lon="6.91302">
        <ele>2282</ele>
        <time>2021-11-17T08:13:55Z</time>
      </trkpt>
      <trkpt lat="44.7052" lon="6.91303">
        <ele>2283</ele>
        <time>2021-11-17T08:13:58Z</time>
      </trkpt>
      <trkpt lat="44.70518" lon="6.91303">
        <ele>2283</ele>
        <time>2021-11-17T08:14:00Z</time>
      </trkpt>
      <trkpt lat="44.70513" lon="6.91299">
        <ele>2284</ele>
        <time>2021-11-17T08:14:06Z</time>
      </trkpt>
      <trkpt lat="44.70507" lon="6.91294">
        <ele>2286</ele>
        <time>2021-11-17T08:14:17Z</time>
      </trkpt>
      <trkpt lat="44.70505" lon="6.91294">
        <ele>2286</ele>
        <time>2021-11-17T08:14:19Z</time>
      </trkpt>
      <trkpt lat="44.70504" lon="6.91293">
        <ele>2286</ele>
        <time>2021-11-17T08:14:21Z</time>
      </trkpt>
      <trkpt lat="44.70503" lon="6.91292">
        <ele>2287</ele>
        <time>2021-11-17T08:14:23Z</time>
      </trkpt>
      <trkpt lat="44.705" lon="6.91286">
        <ele>2288</ele>
        <time>2021-11-17T08:14:30Z</time>
      </trkpt>
      <trkpt lat="44.70499" lon="6.91284">
        <ele>2289</ele>
        <time>2021-11-17T08:14:33Z</time>
      </trkpt>
      <trkpt lat="44.70496" lon="6.91282">
        <ele>2290</ele>
        <time>2021-11-17T08:14:37Z</time>
      </trkpt>
      <trkpt lat="44.70495" lon="6.9128">
        <ele>2290</ele>
        <time>2021-11-17T08:14:40Z</time>
      </trkpt>
      <trkpt lat="44.70494" lon="6.91278">
        <ele>2291</ele>
        <time>2021-11-17T08:14:43Z</time>
      </trkpt>
      <trkpt lat="44.70492" lon="6.91277">
        <ele>2292</ele>
        <time>2021-11-17T08:14:46Z</time>
      </trkpt>
      <trkpt lat="44.7049" lon="6.91276">
        <ele>2292</ele>
        <time>2021-11-17T08:14:48Z</time>
      </trkpt>
      <trkpt lat="44.70489" lon="6.91275">
        <ele>2293</ele>
        <time>2021-11-17T08:14:50Z</time>
      </trkpt>
      <trkpt lat="44.70487" lon="6.91275">
        <ele>2293</ele>
        <time>2021-11-17T08:14:52Z</time>
      </trkpt>
      <trkpt lat="44.70485" lon="6.91278">
        <ele>2294</ele>
        <time>2021-11-17T08:14:57Z</time>
      </trkpt>
      <trkpt lat="44.70484" lon="6.9128">
        <ele>2296</ele>
        <time>2021-11-17T08:15:00Z</time>
      </trkpt>
      <trkpt lat="44.70482" lon="6.9128">
        <ele>2296</ele>
        <time>2021-11-17T08:15:02Z</time>
      </trkpt>
      <trkpt lat="44.7048" lon="6.91282">
        <ele>2297</ele>
        <time>2021-11-17T08:15:05Z</time>
      </trkpt>
      <trkpt lat="44.70476" lon="6.91284">
        <ele>2299</ele>
        <time>2021-11-17T08:15:10Z</time>
      </trkpt>
      <trkpt lat="44.70472" lon="6.91286">
        <ele>2300</ele>
        <time>2021-11-17T08:15:18Z</time>
      </trkpt>
      <trkpt lat="44.70462" lon="6.91292">
        <ele>2303</ele>
        <time>2021-11-17T08:15:34Z</time>
      </trkpt>
      <trkpt lat="44.70458" lon="6.91291">
        <ele>2304</ele>
        <time>2021-11-17T08:15:41Z</time>
      </trkpt>
      <trkpt lat="44.70454" lon="6.9129">
        <ele>2305</ele>
        <time>2021-11-17T08:15:46Z</time>
      </trkpt>
      <trkpt lat="44.70452" lon="6.91288">
        <ele>2305</ele>
        <time>2021-11-17T08:15:51Z</time>
      </trkpt>
      <trkpt lat="44.7045" lon="6.91288">
        <ele>2305</ele>
        <time>2021-11-17T08:15:53Z</time>
      </trkpt>
      <trkpt lat="44.70449" lon="6.91287">
        <ele>2306</ele>
        <time>2021-11-17T08:15:56Z</time>
      </trkpt>
      <trkpt lat="44.70447" lon="6.91286">
        <ele>2306</ele>
        <time>2021-11-17T08:16:00Z</time>
      </trkpt>
      <trkpt lat="44.70439" lon="6.91274">
        <ele>2307</ele>
        <time>2021-11-17T08:16:20Z</time>
      </trkpt>
      <trkpt lat="44.70438" lon="6.91272">
        <ele>2307</ele>
        <time>2021-11-17T08:16:23Z</time>
      </trkpt>
      <trkpt lat="44.70436" lon="6.91273">
        <ele>2307</ele>
        <time>2021-11-17T08:16:27Z</time>
      </trkpt>
      <trkpt lat="44.70427" lon="6.91279">
        <ele>2311</ele>
        <time>2021-11-17T08:16:42Z</time>
      </trkpt>
      <trkpt lat="44.70425" lon="6.9128">
        <ele>2312</ele>
        <time>2021-11-17T08:16:44Z</time>
      </trkpt>
      <trkpt lat="44.7042" lon="6.91286">
        <ele>2314</ele>
        <time>2021-11-17T08:16:53Z</time>
      </trkpt>
      <trkpt lat="44.70418" lon="6.9129">
        <ele>2315</ele>
        <time>2021-11-17T08:16:58Z</time>
      </trkpt>
      <trkpt lat="44.70416" lon="6.91296">
        <ele>2317</ele>
        <time>2021-11-17T08:17:04Z</time>
      </trkpt>
      <trkpt lat="44.70415" lon="6.91298">
        <ele>2317</ele>
        <time>2021-11-17T08:17:07Z</time>
      </trkpt>
      <trkpt lat="44.70411" lon="6.91303">
        <ele>2319</ele>
        <time>2021-11-17T08:17:14Z</time>
      </trkpt>
      <trkpt lat="44.70409" lon="6.91304">
        <ele>2319</ele>
        <time>2021-11-17T08:17:17Z</time>
      </trkpt>
      <trkpt lat="44.70404" lon="6.91306">
        <ele>2321</ele>
        <time>2021-11-17T08:17:23Z</time>
      </trkpt>
      <trkpt lat="44.70403" lon="6.91307">
        <ele>2321</ele>
        <time>2021-11-17T08:17:25Z</time>
      </trkpt>
      <trkpt lat="44.70399" lon="6.91313">
        <ele>2323</ele>
        <time>2021-11-17T08:17:32Z</time>
      </trkpt>
      <trkpt lat="44.70398" lon="6.91317">
        <ele>2323</ele>
        <time>2021-11-17T08:17:36Z</time>
      </trkpt>
      <trkpt lat="44.70397" lon="6.91319">
        <ele>2324</ele>
        <time>2021-11-17T08:17:38Z</time>
      </trkpt>
      <trkpt lat="44.70395" lon="6.91321">
        <ele>2324</ele>
        <time>2021-11-17T08:17:40Z</time>
      </trkpt>
      <trkpt lat="44.70394" lon="6.91323">
        <ele>2324</ele>
        <time>2021-11-17T08:17:43Z</time>
      </trkpt>
      <trkpt lat="44.70393" lon="6.91324">
        <ele>2324</ele>
        <time>2021-11-17T08:17:45Z</time>
      </trkpt>
      <trkpt lat="44.70384" lon="6.91335">
        <ele>2326</ele>
        <time>2021-11-17T08:18:02Z</time>
      </trkpt>
      <trkpt lat="44.70382" lon="6.91339">
        <ele>2326</ele>
        <time>2021-11-17T08:18:06Z</time>
      </trkpt>
      <trkpt lat="44.70382" lon="6.91341">
        <ele>2327</ele>
        <time>2021-11-17T08:18:09Z</time>
      </trkpt>
      <trkpt lat="44.7038" lon="6.91343">
        <ele>2327</ele>
        <time>2021-11-17T08:18:11Z</time>
      </trkpt>
      <trkpt lat="44.70372" lon="6.91354">
        <ele>2328</ele>
        <time>2021-11-17T08:18:26Z</time>
      </trkpt>
      <trkpt lat="44.70363" lon="6.91365">
        <ele>2329</ele>
        <time>2021-11-17T08:18:40Z</time>
      </trkpt>
      <trkpt lat="44.70361" lon="6.91369">
        <ele>2329</ele>
        <time>2021-11-17T08:18:45Z</time>
      </trkpt>
      <trkpt lat="44.7036" lon="6.9137">
        <ele>2329</ele>
        <time>2021-11-17T08:18:48Z</time>
      </trkpt>
      <trkpt lat="44.70356" lon="6.91372">
        <ele>2329</ele>
        <time>2021-11-17T08:18:53Z</time>
      </trkpt>
      <trkpt lat="44.70354" lon="6.91373">
        <ele>2330</ele>
        <time>2021-11-17T08:18:55Z</time>
      </trkpt>
      <trkpt lat="44.70353" lon="6.91372">
        <ele>2330</ele>
        <time>2021-11-17T08:18:58Z</time>
      </trkpt>
      <trkpt lat="44.70347" lon="6.91363">
        <ele>2331</ele>
        <time>2021-11-17T08:19:20Z</time>
      </trkpt>
      <trkpt lat="44.70345" lon="6.91361">
        <ele>2331</ele>
        <time>2021-11-17T08:19:23Z</time>
      </trkpt>
      <trkpt lat="44.70344" lon="6.91359">
        <ele>2332</ele>
        <time>2021-11-17T08:19:29Z</time>
      </trkpt>
      <trkpt lat="44.70341" lon="6.91359">
        <ele>2332</ele>
        <time>2021-11-17T08:19:36Z</time>
      </trkpt>
      <trkpt lat="44.7034" lon="6.91357">
        <ele>2332</ele>
        <time>2021-11-17T08:19:39Z</time>
      </trkpt>
      <trkpt lat="44.70339" lon="6.91356">
        <ele>2332</ele>
        <time>2021-11-17T08:19:41Z</time>
      </trkpt>
      <trkpt lat="44.70337" lon="6.91355">
        <ele>2332</ele>
        <time>2021-11-17T08:19:43Z</time>
      </trkpt>
      <trkpt lat="44.70336" lon="6.91354">
        <ele>2332</ele>
        <time>2021-11-17T08:19:46Z</time>
      </trkpt>
      <trkpt lat="44.70335" lon="6.91353">
        <ele>2332</ele>
        <time>2021-11-17T08:19:48Z</time>
      </trkpt>
      <trkpt lat="44.70333" lon="6.91351">
        <ele>2332</ele>
        <time>2021-11-17T08:19:51Z</time>
      </trkpt>
      <trkpt lat="44.7033" lon="6.91351">
        <ele>2332</ele>
        <time>2021-11-17T08:19:55Z</time>
      </trkpt>
      <trkpt lat="44.70329" lon="6.91349">
        <ele>2332</ele>
        <time>2021-11-17T08:19:57Z</time>
      </trkpt>
      <trkpt lat="44.70328" lon="6.91347">
        <ele>2332</ele>
        <time>2021-11-17T08:20:00Z</time>
      </trkpt>
      <trkpt lat="44.70327" lon="6.91346">
        <ele>2332</ele>
        <time>2021-11-17T08:20:02Z</time>
      </trkpt>
      <trkpt lat="44.70323" lon="6.9134">
        <ele>2332</ele>
        <time>2021-11-17T08:20:12Z</time>
      </trkpt>
      <trkpt lat="44.70319" lon="6.91336">
        <ele>2334</ele>
        <time>2021-11-17T08:20:21Z</time>
      </trkpt>
      <trkpt lat="44.70317" lon="6.91335">
        <ele>2335</ele>
        <time>2021-11-17T08:20:26Z</time>
      </trkpt>
      <trkpt lat="44.70314" lon="6.91334">
        <ele>2336</ele>
        <time>2021-11-17T08:20:39Z</time>
      </trkpt>
      <trkpt lat="44.70313" lon="6.91333">
        <ele>2336</ele>
        <time>2021-11-17T08:20:41Z</time>
      </trkpt>
      <trkpt lat="44.70312" lon="6.91331">
        <ele>2336</ele>
        <time>2021-11-17T08:20:44Z</time>
      </trkpt>
      <trkpt lat="44.7031" lon="6.91331">
        <ele>2337</ele>
        <time>2021-11-17T08:20:48Z</time>
      </trkpt>
      <trkpt lat="44.70309" lon="6.91331">
        <ele>2337</ele>
        <time>2021-11-17T08:20:50Z</time>
      </trkpt>
      <trkpt lat="44.70308" lon="6.91333">
        <ele>2338</ele>
        <time>2021-11-17T08:20:53Z</time>
      </trkpt>
      <trkpt lat="44.70309" lon="6.91335">
        <ele>2339</ele>
        <time>2021-11-17T08:20:56Z</time>
      </trkpt>
      <trkpt lat="44.70306" lon="6.91343">
        <ele>2342</ele>
        <time>2021-11-17T08:21:05Z</time>
      </trkpt>
      <trkpt lat="44.70304" lon="6.91348">
        <ele>2344</ele>
        <time>2021-11-17T08:21:11Z</time>
      </trkpt>
      <trkpt lat="44.703" lon="6.91361">
        <ele>2349</ele>
        <time>2021-11-17T08:21:28Z</time>
      </trkpt>
      <trkpt lat="44.703" lon="6.91363">
        <ele>2350</ele>
        <time>2021-11-17T08:21:30Z</time>
      </trkpt>
      <trkpt lat="44.70299" lon="6.91366">
        <ele>2351</ele>
        <time>2021-11-17T08:21:33Z</time>
      </trkpt>
      <trkpt lat="44.70298" lon="6.91367">
        <ele>2352</ele>
        <time>2021-11-17T08:21:36Z</time>
      </trkpt>
      <trkpt lat="44.70296" lon="6.91368">
        <ele>2352</ele>
        <time>2021-11-17T08:21:38Z</time>
      </trkpt>
      <trkpt lat="44.70293" lon="6.91367">
        <ele>2353</ele>
        <time>2021-11-17T08:21:42Z</time>
      </trkpt>
      <trkpt lat="44.70286" lon="6.91364">
        <ele>2355</ele>
        <time>2021-11-17T08:21:52Z</time>
      </trkpt>
      <trkpt lat="44.70285" lon="6.91363">
        <ele>2355</ele>
        <time>2021-11-17T08:21:54Z</time>
      </trkpt>
      <trkpt lat="44.70283" lon="6.91362">
        <ele>2355</ele>
        <time>2021-11-17T08:21:57Z</time>
      </trkpt>
      <trkpt lat="44.70282" lon="6.91361">
        <ele>2356</ele>
        <time>2021-11-17T08:21:59Z</time>
      </trkpt>
      <trkpt lat="44.7028" lon="6.9136">
        <ele>2356</ele>
        <time>2021-11-17T08:22:01Z</time>
      </trkpt>
      <trkpt lat="44.70279" lon="6.9136">
        <ele>2357</ele>
        <time>2021-11-17T08:22:03Z</time>
      </trkpt>
      <trkpt lat="44.70278" lon="6.91363">
        <ele>2358</ele>
        <time>2021-11-17T08:22:07Z</time>
      </trkpt>
      <trkpt lat="44.70278" lon="6.91366">
        <ele>2359</ele>
        <time>2021-11-17T08:22:10Z</time>
      </trkpt>
      <trkpt lat="44.70279" lon="6.91371">
        <ele>2360</ele>
        <time>2021-11-17T08:22:15Z</time>
      </trkpt>
      <trkpt lat="44.70279" lon="6.91374">
        <ele>2361</ele>
        <time>2021-11-17T08:22:18Z</time>
      </trkpt>
      <trkpt lat="44.70279" lon="6.91376">
        <ele>2361</ele>
        <time>2021-11-17T08:22:20Z</time>
      </trkpt>
      <trkpt lat="44.70278" lon="6.91394">
        <ele>2364</ele>
        <time>2021-11-17T08:22:36Z</time>
      </trkpt>
      <trkpt lat="44.70277" lon="6.914">
        <ele>2365</ele>
        <time>2021-11-17T08:22:41Z</time>
      </trkpt>
      <trkpt lat="44.70278" lon="6.91408">
        <ele>2367</ele>
        <time>2021-11-17T08:22:49Z</time>
      </trkpt>
      <trkpt lat="44.70276" lon="6.9141">
        <ele>2367</ele>
        <time>2021-11-17T08:22:52Z</time>
      </trkpt>
      <trkpt lat="44.70275" lon="6.9141">
        <ele>2368</ele>
        <time>2021-11-17T08:22:55Z</time>
      </trkpt>
      <trkpt lat="44.70267" lon="6.91404">
        <ele>2371</ele>
        <time>2021-11-17T08:23:07Z</time>
      </trkpt>
      <trkpt lat="44.70266" lon="6.91402">
        <ele>2371</ele>
        <time>2021-11-17T08:23:09Z</time>
      </trkpt>
      <trkpt lat="44.70265" lon="6.914">
        <ele>2371</ele>
        <time>2021-11-17T08:23:11Z</time>
      </trkpt>
      <trkpt lat="44.70263" lon="6.91399">
        <ele>2371</ele>
        <time>2021-11-17T08:23:13Z</time>
      </trkpt>
      <trkpt lat="44.70262" lon="6.91398">
        <ele>2371</ele>
        <time>2021-11-17T08:23:15Z</time>
      </trkpt>
      <trkpt lat="44.7026" lon="6.91399">
        <ele>2371</ele>
        <time>2021-11-17T08:23:18Z</time>
      </trkpt>
      <trkpt lat="44.70259" lon="6.91401">
        <ele>2372</ele>
        <time>2021-11-17T08:23:21Z</time>
      </trkpt>
      <trkpt lat="44.70256" lon="6.91423">
        <ele>2374</ele>
        <time>2021-11-17T08:23:44Z</time>
      </trkpt>
      <trkpt lat="44.70251" lon="6.91441">
        <ele>2375</ele>
        <time>2021-11-17T08:24:01Z</time>
      </trkpt>
      <trkpt lat="44.70243" lon="6.91453">
        <ele>2378</ele>
        <time>2021-11-17T08:24:17Z</time>
      </trkpt>
      <trkpt lat="44.70242" lon="6.91455">
        <ele>2378</ele>
        <time>2021-11-17T08:24:19Z</time>
      </trkpt>
      <trkpt lat="44.7024" lon="6.91457">
        <ele>2378</ele>
        <time>2021-11-17T08:24:21Z</time>
      </trkpt>
      <trkpt lat="44.70236" lon="6.91461">
        <ele>2379</ele>
        <time>2021-11-17T08:24:27Z</time>
      </trkpt>
      <trkpt lat="44.70231" lon="6.91464">
        <ele>2379</ele>
        <time>2021-11-17T08:24:33Z</time>
      </trkpt>
      <trkpt lat="44.70229" lon="6.91465">
        <ele>2380</ele>
        <time>2021-11-17T08:24:35Z</time>
      </trkpt>
      <trkpt lat="44.70225" lon="6.91469">
        <ele>2381</ele>
        <time>2021-11-17T08:24:38Z</time>
      </trkpt>
      <trkpt lat="44.70224" lon="6.91471">
        <ele>2381</ele>
        <time>2021-11-17T08:24:39Z</time>
      </trkpt>
      <trkpt lat="44.70223" lon="6.91472">
        <ele>2381</ele>
        <time>2021-11-17T08:24:40Z</time>
      </trkpt>
      <trkpt lat="44.70219" lon="6.9148">
        <ele>2381</ele>
        <time>2021-11-17T08:24:46Z</time>
      </trkpt>
      <trkpt lat="44.70219" lon="6.91483">
        <ele>2381</ele>
        <time>2021-11-17T08:24:49Z</time>
      </trkpt>
      <trkpt lat="44.70215" lon="6.91491">
        <ele>2382</ele>
        <time>2021-11-17T08:24:55Z</time>
      </trkpt>
      <trkpt lat="44.70211" lon="6.91498">
        <ele>2383</ele>
        <time>2021-11-17T08:25:01Z</time>
      </trkpt>
      <trkpt lat="44.702" lon="6.91515">
        <ele>2381</ele>
        <time>2021-11-17T08:25:17Z</time>
      </trkpt>
      <trkpt lat="44.70195" lon="6.9152">
        <ele>2379</ele>
        <time>2021-11-17T08:25:23Z</time>
      </trkpt>
      <trkpt lat="44.70189" lon="6.91529">
        <ele>2377</ele>
        <time>2021-11-17T08:25:31Z</time>
      </trkpt>
      <trkpt lat="44.70188" lon="6.91534">
        <ele>2378</ele>
        <time>2021-11-17T08:25:35Z</time>
      </trkpt>
      <trkpt lat="44.70182" lon="6.91543">
        <ele>2380</ele>
        <time>2021-11-17T08:25:43Z</time>
      </trkpt>
      <trkpt lat="44.70181" lon="6.91545">
        <ele>2380</ele>
        <time>2021-11-17T08:25:45Z</time>
      </trkpt>
      <trkpt lat="44.7018" lon="6.91548">
        <ele>2381</ele>
        <time>2021-11-17T08:25:47Z</time>
      </trkpt>
      <trkpt lat="44.70177" lon="6.91552">
        <ele>2381</ele>
        <time>2021-11-17T08:25:51Z</time>
      </trkpt>
      <trkpt lat="44.70176" lon="6.91554">
        <ele>2382</ele>
        <time>2021-11-17T08:25:53Z</time>
      </trkpt>
      <trkpt lat="44.70173" lon="6.91557">
        <ele>2382</ele>
        <time>2021-11-17T08:25:57Z</time>
      </trkpt>
      <trkpt lat="44.70172" lon="6.91559">
        <ele>2383</ele>
        <time>2021-11-17T08:25:59Z</time>
      </trkpt>
      <trkpt lat="44.70168" lon="6.91566">
        <ele>2384</ele>
        <time>2021-11-17T08:26:05Z</time>
      </trkpt>
      <trkpt lat="44.70166" lon="6.91567">
        <ele>2385</ele>
        <time>2021-11-17T08:26:07Z</time>
      </trkpt>
      <trkpt lat="44.70165" lon="6.91568">
        <ele>2385</ele>
        <time>2021-11-17T08:26:09Z</time>
      </trkpt>
      <trkpt lat="44.70163" lon="6.91569">
        <ele>2385</ele>
        <time>2021-11-17T08:26:11Z</time>
      </trkpt>
      <trkpt lat="44.70156" lon="6.91575">
        <ele>2387</ele>
        <time>2021-11-17T08:26:19Z</time>
      </trkpt>
      <trkpt lat="44.70155" lon="6.91577">
        <ele>2388</ele>
        <time>2021-11-17T08:26:21Z</time>
      </trkpt>
      <trkpt lat="44.70154" lon="6.91578">
        <ele>2388</ele>
        <time>2021-11-17T08:26:23Z</time>
      </trkpt>
      <trkpt lat="44.70148" lon="6.91584">
        <ele>2389</ele>
        <time>2021-11-17T08:26:31Z</time>
      </trkpt>
      <trkpt lat="44.70147" lon="6.91587">
        <ele>2390</ele>
        <time>2021-11-17T08:26:33Z</time>
      </trkpt>
      <trkpt lat="44.70146" lon="6.91589">
        <ele>2390</ele>
        <time>2021-11-17T08:26:35Z</time>
      </trkpt>
      <trkpt lat="44.70144" lon="6.91591">
        <ele>2390</ele>
        <time>2021-11-17T08:26:37Z</time>
      </trkpt>
      <trkpt lat="44.70143" lon="6.91593">
        <ele>2390</ele>
        <time>2021-11-17T08:26:39Z</time>
      </trkpt>
      <trkpt lat="44.70138" lon="6.91598">
        <ele>2388</ele>
        <time>2021-11-17T08:26:56Z</time>
      </trkpt>
      <trkpt lat="44.70137" lon="6.91599">
        <ele>2388</ele>
        <time>2021-11-17T08:26:59Z</time>
      </trkpt>
      <trkpt lat="44.70133" lon="6.91602">
        <ele>2387</ele>
        <time>2021-11-17T08:27:03Z</time>
      </trkpt>
      <trkpt lat="44.70127" lon="6.91608">
        <ele>2387</ele>
        <time>2021-11-17T08:27:10Z</time>
      </trkpt>
      <trkpt lat="44.70126" lon="6.91609">
        <ele>2387</ele>
        <time>2021-11-17T08:27:12Z</time>
      </trkpt>
      <trkpt lat="44.70124" lon="6.91611">
        <ele>2388</ele>
        <time>2021-11-17T08:27:14Z</time>
      </trkpt>
      <trkpt lat="44.70111" lon="6.91628">
        <ele>2390</ele>
        <time>2021-11-17T08:27:28Z</time>
      </trkpt>
      <trkpt lat="44.70111" lon="6.9163">
        <ele>2390</ele>
        <time>2021-11-17T08:27:29Z</time>
      </trkpt>
      <trkpt lat="44.70092" lon="6.91653">
        <ele>2391</ele>
        <time>2021-11-17T08:27:45Z</time>
      </trkpt>
      <trkpt lat="44.70091" lon="6.91654">
        <ele>2391</ele>
        <time>2021-11-17T08:27:47Z</time>
      </trkpt>
      <trkpt lat="44.70089" lon="6.91655">
        <ele>2391</ele>
        <time>2021-11-17T08:27:49Z</time>
      </trkpt>
      <trkpt lat="44.70088" lon="6.91658">
        <ele>2390</ele>
        <time>2021-11-17T08:27:51Z</time>
      </trkpt>
      <trkpt lat="44.70082" lon="6.91662">
        <ele>2391</ele>
        <time>2021-11-17T08:27:57Z</time>
      </trkpt>
      <trkpt lat="44.70081" lon="6.91664">
        <ele>2391</ele>
        <time>2021-11-17T08:27:59Z</time>
      </trkpt>
      <trkpt lat="44.70075" lon="6.91672">
        <ele>2391</ele>
        <time>2021-11-17T08:28:09Z</time>
      </trkpt>
      <trkpt lat="44.70073" lon="6.91673">
        <ele>2391</ele>
        <time>2021-11-17T08:28:11Z</time>
      </trkpt>
      <trkpt lat="44.70069" lon="6.91677">
        <ele>2392</ele>
        <time>2021-11-17T08:28:18Z</time>
      </trkpt>
      <trkpt lat="44.7006" lon="6.91692">
        <ele>2394</ele>
        <time>2021-11-17T08:28:34Z</time>
      </trkpt>
      <trkpt lat="44.70059" lon="6.91694">
        <ele>2394</ele>
        <time>2021-11-17T08:28:35Z</time>
      </trkpt>
      <trkpt lat="44.70058" lon="6.91696">
        <ele>2394</ele>
        <time>2021-11-17T08:28:36Z</time>
      </trkpt>
      <trkpt lat="44.70057" lon="6.91698">
        <ele>2394</ele>
        <time>2021-11-17T08:28:38Z</time>
      </trkpt>
      <trkpt lat="44.7005" lon="6.91712">
        <ele>2396</ele>
        <time>2021-11-17T08:28:54Z</time>
      </trkpt>
      <trkpt lat="44.70048" lon="6.91714">
        <ele>2396</ele>
        <time>2021-11-17T08:28:57Z</time>
      </trkpt>
      <trkpt lat="44.70044" lon="6.91721">
        <ele>2398</ele>
        <time>2021-11-17T08:29:06Z</time>
      </trkpt>
      <trkpt lat="44.70043" lon="6.91723">
        <ele>2398</ele>
        <time>2021-11-17T08:29:08Z</time>
      </trkpt>
      <trkpt lat="44.70042" lon="6.91725">
        <ele>2399</ele>
        <time>2021-11-17T08:29:10Z</time>
      </trkpt>
      <trkpt lat="44.70041" lon="6.91727">
        <ele>2399</ele>
        <time>2021-11-17T08:29:12Z</time>
      </trkpt>
      <trkpt lat="44.70039" lon="6.91731">
        <ele>2399</ele>
        <time>2021-11-17T08:29:17Z</time>
      </trkpt>
      <trkpt lat="44.70036" lon="6.91737">
        <ele>2401</ele>
        <time>2021-11-17T08:29:24Z</time>
      </trkpt>
      <trkpt lat="44.70035" lon="6.91739">
        <ele>2401</ele>
        <time>2021-11-17T08:29:27Z</time>
      </trkpt>
      <trkpt lat="44.70034" lon="6.91741">
        <ele>2401</ele>
        <time>2021-11-17T08:29:29Z</time>
      </trkpt>
      <trkpt lat="44.70031" lon="6.91748">
        <ele>2403</ele>
        <time>2021-11-17T08:29:36Z</time>
      </trkpt>
      <trkpt lat="44.7003" lon="6.91751">
        <ele>2403</ele>
        <time>2021-11-17T08:29:38Z</time>
      </trkpt>
      <trkpt lat="44.70029" lon="6.91755">
        <ele>2404</ele>
        <time>2021-11-17T08:29:42Z</time>
      </trkpt>
      <trkpt lat="44.70027" lon="6.91759">
        <ele>2405</ele>
        <time>2021-11-17T08:29:47Z</time>
      </trkpt>
      <trkpt lat="44.70024" lon="6.91765">
        <ele>2406</ele>
        <time>2021-11-17T08:29:53Z</time>
      </trkpt>
      <trkpt lat="44.70022" lon="6.91769">
        <ele>2407</ele>
        <time>2021-11-17T08:29:57Z</time>
      </trkpt>
      <trkpt lat="44.70018" lon="6.91778">
        <ele>2408</ele>
        <time>2021-11-17T08:30:08Z</time>
      </trkpt>
      <trkpt lat="44.70017" lon="6.9178">
        <ele>2408</ele>
        <time>2021-11-17T08:30:10Z</time>
      </trkpt>
      <trkpt lat="44.70016" lon="6.91782">
        <ele>2409</ele>
        <time>2021-11-17T08:30:13Z</time>
      </trkpt>
      <trkpt lat="44.70015" lon="6.91784">
        <ele>2409</ele>
        <time>2021-11-17T08:30:15Z</time>
      </trkpt>
      <trkpt lat="44.70013" lon="6.91785">
        <ele>2409</ele>
        <time>2021-11-17T08:30:17Z</time>
      </trkpt>
      <trkpt lat="44.70012" lon="6.91787">
        <ele>2409</ele>
        <time>2021-11-17T08:30:19Z</time>
      </trkpt>
      <trkpt lat="44.70006" lon="6.91794">
        <ele>2410</ele>
        <time>2021-11-17T08:30:30Z</time>
      </trkpt>
      <trkpt lat="44.70006" lon="6.91797">
        <ele>2410</ele>
        <time>2021-11-17T08:30:33Z</time>
      </trkpt>
      <trkpt lat="44.7" lon="6.91805">
        <ele>2412</ele>
        <time>2021-11-17T08:30:44Z</time>
      </trkpt>
      <trkpt lat="44.69999" lon="6.91806">
        <ele>2412</ele>
        <time>2021-11-17T08:30:46Z</time>
      </trkpt>
      <trkpt lat="44.69991" lon="6.91813">
        <ele>2415</ele>
        <time>2021-11-17T08:30:56Z</time>
      </trkpt>
      <trkpt lat="44.6999" lon="6.91815">
        <ele>2415</ele>
        <time>2021-11-17T08:30:58Z</time>
      </trkpt>
      <trkpt lat="44.69987" lon="6.91817">
        <ele>2416</ele>
        <time>2021-11-17T08:31:03Z</time>
      </trkpt>
      <trkpt lat="44.69986" lon="6.91818">
        <ele>2416</ele>
        <time>2021-11-17T08:31:07Z</time>
      </trkpt>
      <trkpt lat="44.69984" lon="6.9182">
        <ele>2417</ele>
        <time>2021-11-17T08:31:10Z</time>
      </trkpt>
      <trkpt lat="44.69978" lon="6.91831">
        <ele>2420</ele>
        <time>2021-11-17T08:31:23Z</time>
      </trkpt>
      <trkpt lat="44.69976" lon="6.91833">
        <ele>2421</ele>
        <time>2021-11-17T08:31:25Z</time>
      </trkpt>
      <trkpt lat="44.69972" lon="6.9184">
        <ele>2421</ele>
        <time>2021-11-17T08:31:36Z</time>
      </trkpt>
      <trkpt lat="44.69971" lon="6.91842">
        <ele>2422</ele>
        <time>2021-11-17T08:31:39Z</time>
      </trkpt>
      <trkpt lat="44.6997" lon="6.91844">
        <ele>2422</ele>
        <time>2021-11-17T08:31:42Z</time>
      </trkpt>
      <trkpt lat="44.6997" lon="6.91846">
        <ele>2422</ele>
        <time>2021-11-17T08:31:45Z</time>
      </trkpt>
      <trkpt lat="44.69969" lon="6.91846">
        <ele>2423</ele>
        <time>2021-11-17T08:31:52Z</time>
      </trkpt>
      <trkpt lat="44.69968" lon="6.91847">
        <ele>2423</ele>
        <time>2021-11-17T08:33:24Z</time>
      </trkpt>
      <trkpt lat="44.69963" lon="6.91849">
        <ele>2422</ele>
        <time>2021-11-17T08:34:05Z</time>
      </trkpt>
      <trkpt lat="44.69956" lon="6.91851">
        <ele>2422</ele>
        <time>2021-11-17T08:34:14Z</time>
      </trkpt>
      <trkpt lat="44.69949" lon="6.91853">
        <ele>2424</ele>
        <time>2021-11-17T08:34:24Z</time>
      </trkpt>
      <trkpt lat="44.69948" lon="6.91855">
        <ele>2424</ele>
        <time>2021-11-17T08:34:26Z</time>
      </trkpt>
      <trkpt lat="44.69946" lon="6.91855">
        <ele>2425</ele>
        <time>2021-11-17T08:34:28Z</time>
      </trkpt>
      <trkpt lat="44.69941" lon="6.91855">
        <ele>2426</ele>
        <time>2021-11-17T08:34:35Z</time>
      </trkpt>
      <trkpt lat="44.69939" lon="6.91855">
        <ele>2427</ele>
        <time>2021-11-17T08:34:38Z</time>
      </trkpt>
      <trkpt lat="44.69933" lon="6.91854">
        <ele>2428</ele>
        <time>2021-11-17T08:34:44Z</time>
      </trkpt>
      <trkpt lat="44.69928" lon="6.91854">
        <ele>2429</ele>
        <time>2021-11-17T08:34:51Z</time>
      </trkpt>
      <trkpt lat="44.69924" lon="6.91853">
        <ele>2430</ele>
        <time>2021-11-17T08:34:56Z</time>
      </trkpt>
      <trkpt lat="44.69922" lon="6.91853">
        <ele>2430</ele>
        <time>2021-11-17T08:35:00Z</time>
      </trkpt>
      <trkpt lat="44.69921" lon="6.91852">
        <ele>2431</ele>
        <time>2021-11-17T08:35:08Z</time>
      </trkpt>
      <trkpt lat="44.69919" lon="6.91853">
        <ele>2432</ele>
        <time>2021-11-17T08:35:10Z</time>
      </trkpt>
      <trkpt lat="44.69918" lon="6.91853">
        <ele>2432</ele>
        <time>2021-11-17T08:35:12Z</time>
      </trkpt>
      <trkpt lat="44.69914" lon="6.91852">
        <ele>2433</ele>
        <time>2021-11-17T08:35:17Z</time>
      </trkpt>
      <trkpt lat="44.69913" lon="6.91852">
        <ele>2433</ele>
        <time>2021-11-17T08:35:19Z</time>
      </trkpt>
      <trkpt lat="44.69911" lon="6.91851">
        <ele>2433</ele>
        <time>2021-11-17T08:35:22Z</time>
      </trkpt>
      <trkpt lat="44.69909" lon="6.91851">
        <ele>2433</ele>
        <time>2021-11-17T08:35:25Z</time>
      </trkpt>
      <trkpt lat="44.69908" lon="6.91851">
        <ele>2434</ele>
        <time>2021-11-17T08:35:27Z</time>
      </trkpt>
      <trkpt lat="44.69906" lon="6.9185">
        <ele>2434</ele>
        <time>2021-11-17T08:35:30Z</time>
      </trkpt>
      <trkpt lat="44.69904" lon="6.91849">
        <ele>2434</ele>
        <time>2021-11-17T08:35:32Z</time>
      </trkpt>
      <trkpt lat="44.69903" lon="6.91847">
        <ele>2434</ele>
        <time>2021-11-17T08:35:34Z</time>
      </trkpt>
      <trkpt lat="44.69902" lon="6.91845">
        <ele>2434</ele>
        <time>2021-11-17T08:35:36Z</time>
      </trkpt>
      <trkpt lat="44.69902" lon="6.91843">
        <ele>2435</ele>
        <time>2021-11-17T08:35:39Z</time>
      </trkpt>
      <trkpt lat="44.69903" lon="6.9184">
        <ele>2435</ele>
        <time>2021-11-17T08:35:42Z</time>
      </trkpt>
      <trkpt lat="44.69901" lon="6.91835">
        <ele>2436</ele>
        <time>2021-11-17T08:35:48Z</time>
      </trkpt>
      <trkpt lat="44.699" lon="6.91834">
        <ele>2436</ele>
        <time>2021-11-17T08:35:51Z</time>
      </trkpt>
      <trkpt lat="44.69899" lon="6.91825">
        <ele>2437</ele>
        <time>2021-11-17T08:36:02Z</time>
      </trkpt>
      <trkpt lat="44.69899" lon="6.91823">
        <ele>2438</ele>
        <time>2021-11-17T08:36:04Z</time>
      </trkpt>
      <trkpt lat="44.699" lon="6.91821">
        <ele>2438</ele>
        <time>2021-11-17T08:36:07Z</time>
      </trkpt>
      <trkpt lat="44.699" lon="6.91819">
        <ele>2438</ele>
        <time>2021-11-17T08:36:09Z</time>
      </trkpt>
      <trkpt lat="44.69896" lon="6.91809">
        <ele>2440</ele>
        <time>2021-11-17T08:36:22Z</time>
      </trkpt>
      <trkpt lat="44.69895" lon="6.91806">
        <ele>2441</ele>
        <time>2021-11-17T08:36:25Z</time>
      </trkpt>
      <trkpt lat="44.69894" lon="6.91802">
        <ele>2443</ele>
        <time>2021-11-17T08:36:30Z</time>
      </trkpt>
      <trkpt lat="44.69894" lon="6.918">
        <ele>2443</ele>
        <time>2021-11-17T08:36:32Z</time>
      </trkpt>
      <trkpt lat="44.69893" lon="6.91799">
        <ele>2443</ele>
        <time>2021-11-17T08:36:35Z</time>
      </trkpt>
      <trkpt lat="44.69891" lon="6.91799">
        <ele>2444</ele>
        <time>2021-11-17T08:36:38Z</time>
      </trkpt>
      <trkpt lat="44.69889" lon="6.918">
        <ele>2445</ele>
        <time>2021-11-17T08:36:41Z</time>
      </trkpt>
      <trkpt lat="44.69885" lon="6.91803">
        <ele>2446</ele>
        <time>2021-11-17T08:36:49Z</time>
      </trkpt>
      <trkpt lat="44.69883" lon="6.91804">
        <ele>2447</ele>
        <time>2021-11-17T08:36:51Z</time>
      </trkpt>
      <trkpt lat="44.69882" lon="6.91804">
        <ele>2448</ele>
        <time>2021-11-17T08:36:54Z</time>
      </trkpt>
      <trkpt lat="44.6988" lon="6.91805">
        <ele>2448</ele>
        <time>2021-11-17T08:36:56Z</time>
      </trkpt>
      <trkpt lat="44.69879" lon="6.91807">
        <ele>2449</ele>
        <time>2021-11-17T08:36:58Z</time>
      </trkpt>
      <trkpt lat="44.69877" lon="6.91807">
        <ele>2449</ele>
        <time>2021-11-17T08:37:02Z</time>
      </trkpt>
      <trkpt lat="44.69876" lon="6.91808">
        <ele>2450</ele>
        <time>2021-11-17T08:37:05Z</time>
      </trkpt>
      <trkpt lat="44.6987" lon="6.91814">
        <ele>2453</ele>
        <time>2021-11-17T08:37:19Z</time>
      </trkpt>
      <trkpt lat="44.69869" lon="6.91816">
        <ele>2453</ele>
        <time>2021-11-17T08:37:22Z</time>
      </trkpt>
      <trkpt lat="44.69867" lon="6.91819">
        <ele>2454</ele>
        <time>2021-11-17T08:37:28Z</time>
      </trkpt>
      <trkpt lat="44.69862" lon="6.91823">
        <ele>2456</ele>
        <time>2021-11-17T08:37:37Z</time>
      </trkpt>
      <trkpt lat="44.69858" lon="6.91825">
        <ele>2457</ele>
        <time>2021-11-17T08:37:44Z</time>
      </trkpt>
      <trkpt lat="44.69856" lon="6.91826">
        <ele>2457</ele>
        <time>2021-11-17T08:37:47Z</time>
      </trkpt>
      <trkpt lat="44.69842" lon="6.91833">
        <ele>2459</ele>
        <time>2021-11-17T08:38:09Z</time>
      </trkpt>
      <trkpt lat="44.6984" lon="6.91834">
        <ele>2459</ele>
        <time>2021-11-17T08:38:12Z</time>
      </trkpt>
      <trkpt lat="44.69839" lon="6.91834">
        <ele>2460</ele>
        <time>2021-11-17T08:38:15Z</time>
      </trkpt>
      <trkpt lat="44.69837" lon="6.91834">
        <ele>2460</ele>
        <time>2021-11-17T08:38:20Z</time>
      </trkpt>
      <trkpt lat="44.69836" lon="6.91832">
        <ele>2460</ele>
        <time>2021-11-17T08:38:22Z</time>
      </trkpt>
      <trkpt lat="44.69835" lon="6.91831">
        <ele>2461</ele>
        <time>2021-11-17T08:38:24Z</time>
      </trkpt>
      <trkpt lat="44.69834" lon="6.91827">
        <ele>2462</ele>
        <time>2021-11-17T08:38:28Z</time>
      </trkpt>
      <trkpt lat="44.69832" lon="6.91821">
        <ele>2464</ele>
        <time>2021-11-17T08:38:37Z</time>
      </trkpt>
      <trkpt lat="44.6983" lon="6.91819">
        <ele>2465</ele>
        <time>2021-11-17T08:38:41Z</time>
      </trkpt>
      <trkpt lat="44.69824" lon="6.91822">
        <ele>2468</ele>
        <time>2021-11-17T08:38:53Z</time>
      </trkpt>
      <trkpt lat="44.69821" lon="6.91824">
        <ele>2469</ele>
        <time>2021-11-17T08:38:59Z</time>
      </trkpt>
      <trkpt lat="44.69818" lon="6.91824">
        <ele>2470</ele>
        <time>2021-11-17T08:39:04Z</time>
      </trkpt>
      <trkpt lat="44.69812" lon="6.91828">
        <ele>2471</ele>
        <time>2021-11-17T08:39:14Z</time>
      </trkpt>
      <trkpt lat="44.6981" lon="6.91827">
        <ele>2472</ele>
        <time>2021-11-17T08:39:17Z</time>
      </trkpt>
      <trkpt lat="44.69808" lon="6.91827">
        <ele>2472</ele>
        <time>2021-11-17T08:39:20Z</time>
      </trkpt>
      <trkpt lat="44.69796" lon="6.91827">
        <ele>2476</ele>
        <time>2021-11-17T08:39:38Z</time>
      </trkpt>
      <trkpt lat="44.69793" lon="6.91829">
        <ele>2477</ele>
        <time>2021-11-17T08:39:43Z</time>
      </trkpt>
      <trkpt lat="44.69791" lon="6.9183">
        <ele>2478</ele>
        <time>2021-11-17T08:39:46Z</time>
      </trkpt>
      <trkpt lat="44.69788" lon="6.91831">
        <ele>2479</ele>
        <time>2021-11-17T08:39:50Z</time>
      </trkpt>
      <trkpt lat="44.69783" lon="6.91833">
        <ele>2479</ele>
        <time>2021-11-17T08:39:58Z</time>
      </trkpt>
      <trkpt lat="44.69778" lon="6.91837">
        <ele>2481</ele>
        <time>2021-11-17T08:40:08Z</time>
      </trkpt>
      <trkpt lat="44.69777" lon="6.91838">
        <ele>2482</ele>
        <time>2021-11-17T08:40:11Z</time>
      </trkpt>
      <trkpt lat="44.69775" lon="6.91838">
        <ele>2482</ele>
        <time>2021-11-17T08:40:14Z</time>
      </trkpt>
      <trkpt lat="44.69775" lon="6.91836">
        <ele>2482</ele>
        <time>2021-11-17T08:40:16Z</time>
      </trkpt>
      <trkpt lat="44.69773" lon="6.91835">
        <ele>2482</ele>
        <time>2021-11-17T08:40:18Z</time>
      </trkpt>
      <trkpt lat="44.69772" lon="6.91833">
        <ele>2482</ele>
        <time>2021-11-17T08:40:21Z</time>
      </trkpt>
      <trkpt lat="44.69771" lon="6.91831">
        <ele>2482</ele>
        <time>2021-11-17T08:40:24Z</time>
      </trkpt>
      <trkpt lat="44.6977" lon="6.91832">
        <ele>2482</ele>
        <time>2021-11-17T08:40:26Z</time>
      </trkpt>
      <trkpt lat="44.69767" lon="6.91835">
        <ele>2482</ele>
        <time>2021-11-17T08:40:31Z</time>
      </trkpt>
      <trkpt lat="44.69765" lon="6.91838">
        <ele>2482</ele>
        <time>2021-11-17T08:40:38Z</time>
      </trkpt>
      <trkpt lat="44.69762" lon="6.91848">
        <ele>2483</ele>
        <time>2021-11-17T08:40:51Z</time>
      </trkpt>
      <trkpt lat="44.69761" lon="6.9185">
        <ele>2483</ele>
        <time>2021-11-17T08:40:54Z</time>
      </trkpt>
      <trkpt lat="44.69759" lon="6.91851">
        <ele>2484</ele>
        <time>2021-11-17T08:40:56Z</time>
      </trkpt>
      <trkpt lat="44.69757" lon="6.91852">
        <ele>2484</ele>
        <time>2021-11-17T08:41:00Z</time>
      </trkpt>
      <trkpt lat="44.69755" lon="6.91854">
        <ele>2485</ele>
        <time>2021-11-17T08:41:04Z</time>
      </trkpt>
      <trkpt lat="44.69754" lon="6.91855">
        <ele>2485</ele>
        <time>2021-11-17T08:41:07Z</time>
      </trkpt>
      <trkpt lat="44.69752" lon="6.91858">
        <ele>2487</ele>
        <time>2021-11-17T08:41:12Z</time>
      </trkpt>
      <trkpt lat="44.69751" lon="6.91859">
        <ele>2487</ele>
        <time>2021-11-17T08:41:14Z</time>
      </trkpt>
      <trkpt lat="44.6975" lon="6.91861">
        <ele>2488</ele>
        <time>2021-11-17T08:41:17Z</time>
      </trkpt>
      <trkpt lat="44.69749" lon="6.91862">
        <ele>2489</ele>
        <time>2021-11-17T08:41:21Z</time>
      </trkpt>
      <trkpt lat="44.69746" lon="6.91864">
        <ele>2489</ele>
        <time>2021-11-17T08:41:25Z</time>
      </trkpt>
      <trkpt lat="44.69744" lon="6.91865">
        <ele>2490</ele>
        <time>2021-11-17T08:41:28Z</time>
      </trkpt>
      <trkpt lat="44.6974" lon="6.91865">
        <ele>2490</ele>
        <time>2021-11-17T08:41:32Z</time>
      </trkpt>
      <trkpt lat="44.69739" lon="6.91865">
        <ele>2491</ele>
        <time>2021-11-17T08:41:35Z</time>
      </trkpt>
      <trkpt lat="44.69725" lon="6.91862">
        <ele>2493</ele>
        <time>2021-11-17T08:41:54Z</time>
      </trkpt>
      <trkpt lat="44.69721" lon="6.91862">
        <ele>2494</ele>
        <time>2021-11-17T08:42:00Z</time>
      </trkpt>
      <trkpt lat="44.69719" lon="6.91861">
        <ele>2495</ele>
        <time>2021-11-17T08:42:02Z</time>
      </trkpt>
      <trkpt lat="44.69718" lon="6.91861">
        <ele>2495</ele>
        <time>2021-11-17T08:42:05Z</time>
      </trkpt>
      <trkpt lat="44.69714" lon="6.9186">
        <ele>2496</ele>
        <time>2021-11-17T08:42:11Z</time>
      </trkpt>
      <trkpt lat="44.69712" lon="6.91859">
        <ele>2496</ele>
        <time>2021-11-17T08:42:13Z</time>
      </trkpt>
      <trkpt lat="44.69709" lon="6.91858">
        <ele>2497</ele>
        <time>2021-11-17T08:42:18Z</time>
      </trkpt>
      <trkpt lat="44.69707" lon="6.91857">
        <ele>2498</ele>
        <time>2021-11-17T08:42:21Z</time>
      </trkpt>
      <trkpt lat="44.69705" lon="6.91856">
        <ele>2498</ele>
        <time>2021-11-17T08:42:23Z</time>
      </trkpt>
      <trkpt lat="44.69704" lon="6.91855">
        <ele>2499</ele>
        <time>2021-11-17T08:42:25Z</time>
      </trkpt>
      <trkpt lat="44.69702" lon="6.91855">
        <ele>2499</ele>
        <time>2021-11-17T08:42:28Z</time>
      </trkpt>
      <trkpt lat="44.69696" lon="6.91852">
        <ele>2502</ele>
        <time>2021-11-17T08:42:38Z</time>
      </trkpt>
      <trkpt lat="44.69691" lon="6.9185">
        <ele>2504</ele>
        <time>2021-11-17T08:42:47Z</time>
      </trkpt>
      <trkpt lat="44.69675" lon="6.91851">
        <ele>2508</ele>
        <time>2021-11-17T08:43:10Z</time>
      </trkpt>
      <trkpt lat="44.6967" lon="6.9185">
        <ele>2510</ele>
        <time>2021-11-17T08:43:17Z</time>
      </trkpt>
      <trkpt lat="44.69669" lon="6.91851">
        <ele>2510</ele>
        <time>2021-11-17T08:43:19Z</time>
      </trkpt>
      <trkpt lat="44.69657" lon="6.9185">
        <ele>2514</ele>
        <time>2021-11-17T08:43:38Z</time>
      </trkpt>
      <trkpt lat="44.69653" lon="6.9185">
        <ele>2514</ele>
        <time>2021-11-17T08:43:44Z</time>
      </trkpt>
      <trkpt lat="44.69651" lon="6.91849">
        <ele>2515</ele>
        <time>2021-11-17T08:43:47Z</time>
      </trkpt>
      <trkpt lat="44.69648" lon="6.91846">
        <ele>2514</ele>
        <time>2021-11-17T08:43:51Z</time>
      </trkpt>
      <trkpt lat="44.69647" lon="6.91844">
        <ele>2514</ele>
        <time>2021-11-17T08:43:53Z</time>
      </trkpt>
      <trkpt lat="44.69647" lon="6.91843">
        <ele>2514</ele>
        <time>2021-11-17T08:43:55Z</time>
      </trkpt>
      <trkpt lat="44.69646" lon="6.91841">
        <ele>2514</ele>
        <time>2021-11-17T08:43:57Z</time>
      </trkpt>
      <trkpt lat="44.69644" lon="6.91837">
        <ele>2514</ele>
        <time>2021-11-17T08:44:02Z</time>
      </trkpt>
      <trkpt lat="44.69642" lon="6.91836">
        <ele>2514</ele>
        <time>2021-11-17T08:44:06Z</time>
      </trkpt>
      <trkpt lat="44.69635" lon="6.91834">
        <ele>2515</ele>
        <time>2021-11-17T08:44:17Z</time>
      </trkpt>
      <trkpt lat="44.69634" lon="6.91835">
        <ele>2515</ele>
        <time>2021-11-17T08:44:19Z</time>
      </trkpt>
      <trkpt lat="44.69628" lon="6.91835">
        <ele>2516</ele>
        <time>2021-11-17T08:44:27Z</time>
      </trkpt>
      <trkpt lat="44.69626" lon="6.91835">
        <ele>2517</ele>
        <time>2021-11-17T08:44:30Z</time>
      </trkpt>
      <trkpt lat="44.69624" lon="6.91835">
        <ele>2517</ele>
        <time>2021-11-17T08:44:33Z</time>
      </trkpt>
      <trkpt lat="44.69622" lon="6.91835">
        <ele>2518</ele>
        <time>2021-11-17T08:44:36Z</time>
      </trkpt>
      <trkpt lat="44.69621" lon="6.91835">
        <ele>2519</ele>
        <time>2021-11-17T08:44:39Z</time>
      </trkpt>
      <trkpt lat="44.69619" lon="6.91834">
        <ele>2520</ele>
        <time>2021-11-17T08:44:41Z</time>
      </trkpt>
      <trkpt lat="44.69614" lon="6.91834">
        <ele>2522</ele>
        <time>2021-11-17T08:44:49Z</time>
      </trkpt>
      <trkpt lat="44.69612" lon="6.91834">
        <ele>2522</ele>
        <time>2021-11-17T08:44:52Z</time>
      </trkpt>
      <trkpt lat="44.69611" lon="6.91835">
        <ele>2523</ele>
        <time>2021-11-17T08:44:54Z</time>
      </trkpt>
      <trkpt lat="44.69609" lon="6.91834">
        <ele>2523</ele>
        <time>2021-11-17T08:44:56Z</time>
      </trkpt>
      <trkpt lat="44.69608" lon="6.91835">
        <ele>2523</ele>
        <time>2021-11-17T08:44:59Z</time>
      </trkpt>
      <trkpt lat="44.69606" lon="6.91836">
        <ele>2524</ele>
        <time>2021-11-17T08:45:02Z</time>
      </trkpt>
      <trkpt lat="44.69595" lon="6.91837">
        <ele>2528</ele>
        <time>2021-11-17T08:45:20Z</time>
      </trkpt>
      <trkpt lat="44.69593" lon="6.91838">
        <ele>2528</ele>
        <time>2021-11-17T08:45:23Z</time>
      </trkpt>
      <trkpt lat="44.69592" lon="6.91839">
        <ele>2529</ele>
        <time>2021-11-17T08:45:25Z</time>
      </trkpt>
      <trkpt lat="44.6959" lon="6.91839">
        <ele>2529</ele>
        <time>2021-11-17T08:45:27Z</time>
      </trkpt>
      <trkpt lat="44.69585" lon="6.91839">
        <ele>2530</ele>
        <time>2021-11-17T08:45:33Z</time>
      </trkpt>
      <trkpt lat="44.69583" lon="6.9184">
        <ele>2530</ele>
        <time>2021-11-17T08:45:35Z</time>
      </trkpt>
      <trkpt lat="44.6958" lon="6.91841">
        <ele>2531</ele>
        <time>2021-11-17T08:45:40Z</time>
      </trkpt>
      <trkpt lat="44.69575" lon="6.91844">
        <ele>2532</ele>
        <time>2021-11-17T08:45:46Z</time>
      </trkpt>
      <trkpt lat="44.69573" lon="6.91846">
        <ele>2532</ele>
        <time>2021-11-17T08:45:48Z</time>
      </trkpt>
      <trkpt lat="44.69569" lon="6.91849">
        <ele>2532</ele>
        <time>2021-11-17T08:45:52Z</time>
      </trkpt>
      <trkpt lat="44.69568" lon="6.91851">
        <ele>2533</ele>
        <time>2021-11-17T08:45:54Z</time>
      </trkpt>
      <trkpt lat="44.69568" lon="6.91852">
        <ele>2533</ele>
        <time>2021-11-17T08:45:56Z</time>
      </trkpt>
      <trkpt lat="44.69567" lon="6.91854">
        <ele>2533</ele>
        <time>2021-11-17T08:45:58Z</time>
      </trkpt>
      <trkpt lat="44.69566" lon="6.91856">
        <ele>2534</ele>
        <time>2021-11-17T08:46:01Z</time>
      </trkpt>
      <trkpt lat="44.69563" lon="6.91859">
        <ele>2534</ele>
        <time>2021-11-17T08:46:07Z</time>
      </trkpt>
      <trkpt lat="44.69561" lon="6.91861">
        <ele>2534</ele>
        <time>2021-11-17T08:46:09Z</time>
      </trkpt>
      <trkpt lat="44.6956" lon="6.91863">
        <ele>2535</ele>
        <time>2021-11-17T08:46:12Z</time>
      </trkpt>
      <trkpt lat="44.6956" lon="6.91865">
        <ele>2535</ele>
        <time>2021-11-17T08:46:16Z</time>
      </trkpt>
      <trkpt lat="44.6956" lon="6.9187">
        <ele>2537</ele>
        <time>2021-11-17T08:46:22Z</time>
      </trkpt>
      <trkpt lat="44.6956" lon="6.91872">
        <ele>2537</ele>
        <time>2021-11-17T08:46:25Z</time>
      </trkpt>
      <trkpt lat="44.69557" lon="6.91875">
        <ele>2538</ele>
        <time>2021-11-17T08:46:29Z</time>
      </trkpt>
      <trkpt lat="44.69556" lon="6.91876">
        <ele>2539</ele>
        <time>2021-11-17T08:46:31Z</time>
      </trkpt>
      <trkpt lat="44.69548" lon="6.91877">
        <ele>2540</ele>
        <time>2021-11-17T08:46:42Z</time>
      </trkpt>
      <trkpt lat="44.69546" lon="6.91877">
        <ele>2540</ele>
        <time>2021-11-17T08:46:45Z</time>
      </trkpt>
      <trkpt lat="44.69543" lon="6.91877">
        <ele>2541</ele>
        <time>2021-11-17T08:46:51Z</time>
      </trkpt>
      <trkpt lat="44.69536" lon="6.9188">
        <ele>2543</ele>
        <time>2021-11-17T08:47:03Z</time>
      </trkpt>
      <trkpt lat="44.69534" lon="6.91879">
        <ele>2544</ele>
        <time>2021-11-17T08:47:05Z</time>
      </trkpt>
      <trkpt lat="44.69519" lon="6.91884">
        <ele>2548</ele>
        <time>2021-11-17T08:47:30Z</time>
      </trkpt>
      <trkpt lat="44.69517" lon="6.91885">
        <ele>2548</ele>
        <time>2021-11-17T08:47:32Z</time>
      </trkpt>
      <trkpt lat="44.69516" lon="6.91886">
        <ele>2548</ele>
        <time>2021-11-17T08:47:34Z</time>
      </trkpt>
      <trkpt lat="44.69515" lon="6.91888">
        <ele>2548</ele>
        <time>2021-11-17T08:47:36Z</time>
      </trkpt>
      <trkpt lat="44.69509" lon="6.91888">
        <ele>2548</ele>
        <time>2021-11-17T08:47:44Z</time>
      </trkpt>
      <trkpt lat="44.69508" lon="6.91887">
        <ele>2549</ele>
        <time>2021-11-17T08:47:46Z</time>
      </trkpt>
      <trkpt lat="44.69504" lon="6.91887">
        <ele>2549</ele>
        <time>2021-11-17T08:47:51Z</time>
      </trkpt>
      <trkpt lat="44.69503" lon="6.91888">
        <ele>2549</ele>
        <time>2021-11-17T08:47:55Z</time>
      </trkpt>
      <trkpt lat="44.69493" lon="6.91892">
        <ele>2550</ele>
        <time>2021-11-17T08:48:10Z</time>
      </trkpt>
      <trkpt lat="44.69492" lon="6.91894">
        <ele>2550</ele>
        <time>2021-11-17T08:48:13Z</time>
      </trkpt>
      <trkpt lat="44.69489" lon="6.91894">
        <ele>2550</ele>
        <time>2021-11-17T08:48:16Z</time>
      </trkpt>
      <trkpt lat="44.69486" lon="6.91896">
        <ele>2550</ele>
        <time>2021-11-17T08:48:22Z</time>
      </trkpt>
      <trkpt lat="44.69484" lon="6.91897">
        <ele>2550</ele>
        <time>2021-11-17T08:48:25Z</time>
      </trkpt>
      <trkpt lat="44.69483" lon="6.91899">
        <ele>2551</ele>
        <time>2021-11-17T08:48:29Z</time>
      </trkpt>
      <trkpt lat="44.69481" lon="6.91901">
        <ele>2551</ele>
        <time>2021-11-17T08:48:31Z</time>
      </trkpt>
      <trkpt lat="44.6948" lon="6.91903">
        <ele>2552</ele>
        <time>2021-11-17T08:48:34Z</time>
      </trkpt>
      <trkpt lat="44.69477" lon="6.91906">
        <ele>2552</ele>
        <time>2021-11-17T08:48:38Z</time>
      </trkpt>
      <trkpt lat="44.69475" lon="6.91907">
        <ele>2553</ele>
        <time>2021-11-17T08:48:40Z</time>
      </trkpt>
      <trkpt lat="44.69471" lon="6.91912">
        <ele>2554</ele>
        <time>2021-11-17T08:48:47Z</time>
      </trkpt>
      <trkpt lat="44.69471" lon="6.91914">
        <ele>2555</ele>
        <time>2021-11-17T08:48:50Z</time>
      </trkpt>
      <trkpt lat="44.6947" lon="6.91917">
        <ele>2556</ele>
        <time>2021-11-17T08:49:11Z</time>
      </trkpt>
      <trkpt lat="44.69468" lon="6.91929">
        <ele>2557</ele>
        <time>2021-11-17T08:49:20Z</time>
      </trkpt>
      <trkpt lat="44.69465" lon="6.91935">
        <ele>2559</ele>
        <time>2021-11-17T08:49:27Z</time>
      </trkpt>
      <trkpt lat="44.69462" lon="6.91938">
        <ele>2560</ele>
        <time>2021-11-17T08:49:31Z</time>
      </trkpt>
      <trkpt lat="44.69462" lon="6.91941">
        <ele>2561</ele>
        <time>2021-11-17T08:49:48Z</time>
      </trkpt>
      <trkpt lat="44.69461" lon="6.91942">
        <ele>2562</ele>
        <time>2021-11-17T08:49:52Z</time>
      </trkpt>
      <trkpt lat="44.69459" lon="6.91942">
        <ele>2562</ele>
        <time>2021-11-17T08:49:57Z</time>
      </trkpt>
      <trkpt lat="44.69458" lon="6.91944">
        <ele>2562</ele>
        <time>2021-11-17T08:49:59Z</time>
      </trkpt>
      <trkpt lat="44.69456" lon="6.91948">
        <ele>2563</ele>
        <time>2021-11-17T08:50:04Z</time>
      </trkpt>
      <trkpt lat="44.69455" lon="6.9195">
        <ele>2563</ele>
        <time>2021-11-17T08:50:06Z</time>
      </trkpt>
      <trkpt lat="44.69455" lon="6.91952">
        <ele>2564</ele>
        <time>2021-11-17T08:50:10Z</time>
      </trkpt>
      <trkpt lat="44.69453" lon="6.91953">
        <ele>2564</ele>
        <time>2021-11-17T08:50:14Z</time>
      </trkpt>
      <trkpt lat="44.6944" lon="6.91961">
        <ele>2567</ele>
        <time>2021-11-17T08:50:32Z</time>
      </trkpt>
      <trkpt lat="44.69439" lon="6.91963">
        <ele>2567</ele>
        <time>2021-11-17T08:50:34Z</time>
      </trkpt>
      <trkpt lat="44.69438" lon="6.91964">
        <ele>2568</ele>
        <time>2021-11-17T08:50:36Z</time>
      </trkpt>
      <trkpt lat="44.69436" lon="6.91965">
        <ele>2568</ele>
        <time>2021-11-17T08:50:38Z</time>
      </trkpt>
      <trkpt lat="44.69435" lon="6.91967">
        <ele>2570</ele>
        <time>2021-11-17T08:50:41Z</time>
      </trkpt>
      <trkpt lat="44.69433" lon="6.91968">
        <ele>2570</ele>
        <time>2021-11-17T08:50:44Z</time>
      </trkpt>
      <trkpt lat="44.69432" lon="6.9197">
        <ele>2571</ele>
        <time>2021-11-17T08:50:46Z</time>
      </trkpt>
      <trkpt lat="44.69431" lon="6.91973">
        <ele>2572</ele>
        <time>2021-11-17T08:50:48Z</time>
      </trkpt>
      <trkpt lat="44.69429" lon="6.91974">
        <ele>2572</ele>
        <time>2021-11-17T08:50:49Z</time>
      </trkpt>
      <trkpt lat="44.69427" lon="6.91975">
        <ele>2573</ele>
        <time>2021-11-17T08:50:51Z</time>
      </trkpt>
      <trkpt lat="44.69426" lon="6.91975">
        <ele>2573</ele>
        <time>2021-11-17T08:50:53Z</time>
      </trkpt>
      <trkpt lat="44.69424" lon="6.91976">
        <ele>2574</ele>
        <time>2021-11-17T08:50:54Z</time>
      </trkpt>
      <trkpt lat="44.69422" lon="6.91976">
        <ele>2574</ele>
        <time>2021-11-17T08:50:56Z</time>
      </trkpt>
      <trkpt lat="44.69421" lon="6.91977">
        <ele>2574</ele>
        <time>2021-11-17T08:50:58Z</time>
      </trkpt>
      <trkpt lat="44.69411" lon="6.91978">
        <ele>2575</ele>
        <time>2021-11-17T08:51:08Z</time>
      </trkpt>
      <trkpt lat="44.69409" lon="6.91977">
        <ele>2575</ele>
        <time>2021-11-17T08:51:10Z</time>
      </trkpt>
      <trkpt lat="44.69407" lon="6.91977">
        <ele>2575</ele>
        <time>2021-11-17T08:51:13Z</time>
      </trkpt>
      <trkpt lat="44.69403" lon="6.91982">
        <ele>2577</ele>
        <time>2021-11-17T08:51:21Z</time>
      </trkpt>
      <trkpt lat="44.69402" lon="6.91984">
        <ele>2577</ele>
        <time>2021-11-17T08:51:23Z</time>
      </trkpt>
      <trkpt lat="44.694" lon="6.91985">
        <ele>2578</ele>
        <time>2021-11-17T08:51:25Z</time>
      </trkpt>
      <trkpt lat="44.69399" lon="6.91985">
        <ele>2578</ele>
        <time>2021-11-17T08:51:28Z</time>
      </trkpt>
      <trkpt lat="44.69397" lon="6.91986">
        <ele>2578</ele>
        <time>2021-11-17T08:51:30Z</time>
      </trkpt>
      <trkpt lat="44.69395" lon="6.91987">
        <ele>2579</ele>
        <time>2021-11-17T08:51:34Z</time>
      </trkpt>
      <trkpt lat="44.69392" lon="6.91987">
        <ele>2580</ele>
        <time>2021-11-17T08:51:39Z</time>
      </trkpt>
      <trkpt lat="44.6939" lon="6.91988">
        <ele>2580</ele>
        <time>2021-11-17T08:51:42Z</time>
      </trkpt>
      <trkpt lat="44.69387" lon="6.91987">
        <ele>2581</ele>
        <time>2021-11-17T08:51:48Z</time>
      </trkpt>
      <trkpt lat="44.69386" lon="6.91985">
        <ele>2581</ele>
        <time>2021-11-17T08:51:51Z</time>
      </trkpt>
      <trkpt lat="44.69384" lon="6.91985">
        <ele>2582</ele>
        <time>2021-11-17T08:51:54Z</time>
      </trkpt>
      <trkpt lat="44.69381" lon="6.91981">
        <ele>2582</ele>
        <time>2021-11-17T08:52:04Z</time>
      </trkpt>
      <trkpt lat="44.6938" lon="6.9198">
        <ele>2582</ele>
        <time>2021-11-17T08:52:07Z</time>
      </trkpt>
      <trkpt lat="44.69378" lon="6.91979">
        <ele>2583</ele>
        <time>2021-11-17T08:52:11Z</time>
      </trkpt>
      <trkpt lat="44.69377" lon="6.91979">
        <ele>2583</ele>
        <time>2021-11-17T08:52:15Z</time>
      </trkpt>
      <trkpt lat="44.69376" lon="6.91981">
        <ele>2583</ele>
        <time>2021-11-17T08:52:17Z</time>
      </trkpt>
      <trkpt lat="44.69375" lon="6.91985">
        <ele>2583</ele>
        <time>2021-11-17T08:52:19Z</time>
      </trkpt>
      <trkpt lat="44.69371" lon="6.91991">
        <ele>2584</ele>
        <time>2021-11-17T08:52:23Z</time>
      </trkpt>
      <trkpt lat="44.69369" lon="6.91994">
        <ele>2584</ele>
        <time>2021-11-17T08:52:25Z</time>
      </trkpt>
      <trkpt lat="44.69368" lon="6.91995">
        <ele>2584</ele>
        <time>2021-11-17T08:52:27Z</time>
      </trkpt>
      <trkpt lat="44.69366" lon="6.91997">
        <ele>2584</ele>
        <time>2021-11-17T08:52:29Z</time>
      </trkpt>
      <trkpt lat="44.69363" lon="6.92004">
        <ele>2584</ele>
        <time>2021-11-17T08:52:36Z</time>
      </trkpt>
      <trkpt lat="44.69359" lon="6.92009">
        <ele>2585</ele>
        <time>2021-11-17T08:52:42Z</time>
      </trkpt>
      <trkpt lat="44.69357" lon="6.9201">
        <ele>2586</ele>
        <time>2021-11-17T08:52:44Z</time>
      </trkpt>
      <trkpt lat="44.69353" lon="6.92014">
        <ele>2586</ele>
        <time>2021-11-17T08:52:50Z</time>
      </trkpt>
      <trkpt lat="44.69338" lon="6.92022">
        <ele>2587</ele>
        <time>2021-11-17T08:53:11Z</time>
      </trkpt>
      <trkpt lat="44.69335" lon="6.92024">
        <ele>2588</ele>
        <time>2021-11-17T08:53:16Z</time>
      </trkpt>
      <trkpt lat="44.69327" lon="6.92033">
        <ele>2588</ele>
        <time>2021-11-17T08:53:28Z</time>
      </trkpt>
      <trkpt lat="44.69326" lon="6.92035">
        <ele>2588</ele>
        <time>2021-11-17T08:53:30Z</time>
      </trkpt>
      <trkpt lat="44.69324" lon="6.92036">
        <ele>2588</ele>
        <time>2021-11-17T08:53:33Z</time>
      </trkpt>
      <trkpt lat="44.69318" lon="6.9204">
        <ele>2589</ele>
        <time>2021-11-17T08:53:42Z</time>
      </trkpt>
      <trkpt lat="44.69312" lon="6.92042">
        <ele>2590</ele>
        <time>2021-11-17T08:53:47Z</time>
      </trkpt>
      <trkpt lat="44.69306" lon="6.92047">
        <ele>2591</ele>
        <time>2021-11-17T08:53:54Z</time>
      </trkpt>
      <trkpt lat="44.693" lon="6.92051">
        <ele>2591</ele>
        <time>2021-11-17T08:54:00Z</time>
      </trkpt>
      <trkpt lat="44.69296" lon="6.92054">
        <ele>2592</ele>
        <time>2021-11-17T08:54:06Z</time>
      </trkpt>
      <trkpt lat="44.69291" lon="6.92056">
        <ele>2593</ele>
        <time>2021-11-17T08:54:10Z</time>
      </trkpt>
      <trkpt lat="44.69288" lon="6.92059">
        <ele>2594</ele>
        <time>2021-11-17T08:54:14Z</time>
      </trkpt>
      <trkpt lat="44.69287" lon="6.9206">
        <ele>2594</ele>
        <time>2021-11-17T08:54:16Z</time>
      </trkpt>
      <trkpt lat="44.69283" lon="6.92062">
        <ele>2595</ele>
        <time>2021-11-17T08:54:21Z</time>
      </trkpt>
      <trkpt lat="44.69282" lon="6.92063">
        <ele>2595</ele>
        <time>2021-11-17T08:54:23Z</time>
      </trkpt>
      <trkpt lat="44.69278" lon="6.92063">
        <ele>2595</ele>
        <time>2021-11-17T08:54:26Z</time>
      </trkpt>
      <trkpt lat="44.69277" lon="6.92062">
        <ele>2595</ele>
        <time>2021-11-17T08:54:28Z</time>
      </trkpt>
      <trkpt lat="44.69275" lon="6.92063">
        <ele>2595</ele>
        <time>2021-11-17T08:54:34Z</time>
      </trkpt>
      <trkpt lat="44.69273" lon="6.92063">
        <ele>2595</ele>
        <time>2021-11-17T08:54:36Z</time>
      </trkpt>
      <trkpt lat="44.69272" lon="6.92064">
        <ele>2595</ele>
        <time>2021-11-17T08:54:38Z</time>
      </trkpt>
      <trkpt lat="44.6927" lon="6.92064">
        <ele>2595</ele>
        <time>2021-11-17T08:54:41Z</time>
      </trkpt>
      <trkpt lat="44.69266" lon="6.92065">
        <ele>2595</ele>
        <time>2021-11-17T08:54:46Z</time>
      </trkpt>
      <trkpt lat="44.69263" lon="6.92065">
        <ele>2596</ele>
        <time>2021-11-17T08:54:51Z</time>
      </trkpt>
      <trkpt lat="44.69261" lon="6.92065">
        <ele>2596</ele>
        <time>2021-11-17T08:54:54Z</time>
      </trkpt>
      <trkpt lat="44.6926" lon="6.92067">
        <ele>2597</ele>
        <time>2021-11-17T08:54:57Z</time>
      </trkpt>
      <trkpt lat="44.69259" lon="6.92069">
        <ele>2596</ele>
        <time>2021-11-17T08:55:00Z</time>
      </trkpt>
      <trkpt lat="44.69257" lon="6.9207">
        <ele>2596</ele>
        <time>2021-11-17T08:55:02Z</time>
      </trkpt>
      <trkpt lat="44.6925" lon="6.92072">
        <ele>2595</ele>
        <time>2021-11-17T08:55:11Z</time>
      </trkpt>
      <trkpt lat="44.69247" lon="6.92074">
        <ele>2595</ele>
        <time>2021-11-17T08:55:16Z</time>
      </trkpt>
      <trkpt lat="44.69246" lon="6.92076">
        <ele>2595</ele>
        <time>2021-11-17T08:55:22Z</time>
      </trkpt>
      <trkpt lat="44.69243" lon="6.92081">
        <ele>2597</ele>
        <time>2021-11-17T08:55:30Z</time>
      </trkpt>
      <trkpt lat="44.69243" lon="6.92083">
        <ele>2597</ele>
        <time>2021-11-17T08:55:33Z</time>
      </trkpt>
      <trkpt lat="44.69243" lon="6.92085">
        <ele>2598</ele>
        <time>2021-11-17T08:55:36Z</time>
      </trkpt>
      <trkpt lat="44.69243" lon="6.92087">
        <ele>2599</ele>
        <time>2021-11-17T08:55:39Z</time>
      </trkpt>
      <trkpt lat="44.69242" lon="6.92089">
        <ele>2599</ele>
        <time>2021-11-17T08:55:41Z</time>
      </trkpt>
      <trkpt lat="44.69238" lon="6.92093">
        <ele>2600</ele>
        <time>2021-11-17T08:55:47Z</time>
      </trkpt>
      <trkpt lat="44.69236" lon="6.92096">
        <ele>2601</ele>
        <time>2021-11-17T08:55:53Z</time>
      </trkpt>
      <trkpt lat="44.69234" lon="6.92098">
        <ele>2602</ele>
        <time>2021-11-17T08:55:56Z</time>
      </trkpt>
      <trkpt lat="44.69232" lon="6.92101">
        <ele>2603</ele>
        <time>2021-11-17T08:56:03Z</time>
      </trkpt>
      <trkpt lat="44.69231" lon="6.92102">
        <ele>2604</ele>
        <time>2021-11-17T08:56:06Z</time>
      </trkpt>
      <trkpt lat="44.69229" lon="6.92104">
        <ele>2605</ele>
        <time>2021-11-17T08:56:09Z</time>
      </trkpt>
      <trkpt lat="44.69228" lon="6.92106">
        <ele>2606</ele>
        <time>2021-11-17T08:56:11Z</time>
      </trkpt>
      <trkpt lat="44.69224" lon="6.92112">
        <ele>2610</ele>
        <time>2021-11-17T08:56:23Z</time>
      </trkpt>
      <trkpt lat="44.69222" lon="6.92113">
        <ele>2610</ele>
        <time>2021-11-17T08:56:26Z</time>
      </trkpt>
      <trkpt lat="44.69221" lon="6.92114">
        <ele>2612</ele>
        <time>2021-11-17T08:56:29Z</time>
      </trkpt>
      <trkpt lat="44.6922" lon="6.92115">
        <ele>2612</ele>
        <time>2021-11-17T08:56:32Z</time>
      </trkpt>
      <trkpt lat="44.69218" lon="6.92116">
        <ele>2613</ele>
        <time>2021-11-17T08:56:35Z</time>
      </trkpt>
      <trkpt lat="44.69215" lon="6.92115">
        <ele>2615</ele>
        <time>2021-11-17T08:56:42Z</time>
      </trkpt>
      <trkpt lat="44.69214" lon="6.92113">
        <ele>2616</ele>
        <time>2021-11-17T08:56:45Z</time>
      </trkpt>
      <trkpt lat="44.69213" lon="6.92111">
        <ele>2616</ele>
        <time>2021-11-17T08:56:48Z</time>
      </trkpt>
      <trkpt lat="44.69211" lon="6.92108">
        <ele>2617</ele>
        <time>2021-11-17T08:56:54Z</time>
      </trkpt>
      <trkpt lat="44.69209" lon="6.92107">
        <ele>2618</ele>
        <time>2021-11-17T08:56:57Z</time>
      </trkpt>
      <trkpt lat="44.69208" lon="6.92107">
        <ele>2619</ele>
        <time>2021-11-17T08:57:01Z</time>
      </trkpt>
      <trkpt lat="44.69204" lon="6.92124">
        <ele>2625</ele>
        <time>2021-11-17T08:57:23Z</time>
      </trkpt>
      <trkpt lat="44.69204" lon="6.92127">
        <ele>2625</ele>
        <time>2021-11-17T08:57:25Z</time>
      </trkpt>
      <trkpt lat="44.69204" lon="6.92129">
        <ele>2626</ele>
        <time>2021-11-17T08:57:28Z</time>
      </trkpt>
      <trkpt lat="44.69204" lon="6.92132">
        <ele>2626</ele>
        <time>2021-11-17T08:57:31Z</time>
      </trkpt>
      <trkpt lat="44.69205" lon="6.92133">
        <ele>2626</ele>
        <time>2021-11-17T08:57:34Z</time>
      </trkpt>
      <trkpt lat="44.69206" lon="6.92136">
        <ele>2627</ele>
        <time>2021-11-17T08:57:37Z</time>
      </trkpt>
      <trkpt lat="44.69208" lon="6.92142">
        <ele>2628</ele>
        <time>2021-11-17T08:57:45Z</time>
      </trkpt>
      <trkpt lat="44.69208" lon="6.92157">
        <ele>2630</ele>
        <time>2021-11-17T08:58:00Z</time>
      </trkpt>
      <trkpt lat="44.69208" lon="6.9216">
        <ele>2630</ele>
        <time>2021-11-17T08:58:05Z</time>
      </trkpt>
      <trkpt lat="44.69208" lon="6.92162">
        <ele>2631</ele>
        <time>2021-11-17T08:58:10Z</time>
      </trkpt>
      <trkpt lat="44.69206" lon="6.92167">
        <ele>2632</ele>
        <time>2021-11-17T08:58:15Z</time>
      </trkpt>
      <trkpt lat="44.69202" lon="6.92168">
        <ele>2633</ele>
        <time>2021-11-17T08:58:22Z</time>
      </trkpt>
      <trkpt lat="44.69201" lon="6.9217">
        <ele>2633</ele>
        <time>2021-11-17T08:58:25Z</time>
      </trkpt>
      <trkpt lat="44.69201" lon="6.92187">
        <ele>2636</ele>
        <time>2021-11-17T08:58:43Z</time>
      </trkpt>
      <trkpt lat="44.69201" lon="6.92189">
        <ele>2636</ele>
        <time>2021-11-17T08:58:46Z</time>
      </trkpt>
      <trkpt lat="44.69202" lon="6.92191">
        <ele>2638</ele>
        <time>2021-11-17T08:58:49Z</time>
      </trkpt>
      <trkpt lat="44.69204" lon="6.92195">
        <ele>2639</ele>
        <time>2021-11-17T08:58:54Z</time>
      </trkpt>
      <trkpt lat="44.69204" lon="6.92198">
        <ele>2639</ele>
        <time>2021-11-17T08:58:56Z</time>
      </trkpt>
      <trkpt lat="44.69205" lon="6.922">
        <ele>2640</ele>
        <time>2021-11-17T08:59:00Z</time>
      </trkpt>
      <trkpt lat="44.69206" lon="6.92203">
        <ele>2641</ele>
        <time>2021-11-17T08:59:03Z</time>
      </trkpt>
      <trkpt lat="44.69207" lon="6.92206">
        <ele>2641</ele>
        <time>2021-11-17T08:59:06Z</time>
      </trkpt>
      <trkpt lat="44.69213" lon="6.92215">
        <ele>2644</ele>
        <time>2021-11-17T08:59:21Z</time>
      </trkpt>
      <trkpt lat="44.69215" lon="6.92216">
        <ele>2645</ele>
        <time>2021-11-17T08:59:24Z</time>
      </trkpt>
      <trkpt lat="44.69216" lon="6.92219">
        <ele>2646</ele>
        <time>2021-11-17T08:59:28Z</time>
      </trkpt>
      <trkpt lat="44.69217" lon="6.92221">
        <ele>2647</ele>
        <time>2021-11-17T08:59:31Z</time>
      </trkpt>
      <trkpt lat="44.69217" lon="6.92223">
        <ele>2647</ele>
        <time>2021-11-17T08:59:34Z</time>
      </trkpt>
      <trkpt lat="44.69226" lon="6.92244">
        <ele>2652</ele>
        <time>2021-11-17T09:00:04Z</time>
      </trkpt>
      <trkpt lat="44.69227" lon="6.92248">
        <ele>2653</ele>
        <time>2021-11-17T09:00:11Z</time>
      </trkpt>
      <trkpt lat="44.69225" lon="6.9225">
        <ele>2653</ele>
        <time>2021-11-17T09:00:15Z</time>
      </trkpt>
      <trkpt lat="44.69217" lon="6.92249">
        <ele>2655</ele>
        <time>2021-11-17T09:00:26Z</time>
      </trkpt>
      <trkpt lat="44.69215" lon="6.92249">
        <ele>2655</ele>
        <time>2021-11-17T09:00:33Z</time>
      </trkpt>
      <trkpt lat="44.69213" lon="6.92253">
        <ele>2655</ele>
        <time>2021-11-17T09:00:38Z</time>
      </trkpt>
      <trkpt lat="44.69211" lon="6.92253">
        <ele>2654</ele>
        <time>2021-11-17T09:00:40Z</time>
      </trkpt>
      <trkpt lat="44.6921" lon="6.92253">
        <ele>2654</ele>
        <time>2021-11-17T09:00:42Z</time>
      </trkpt>
      <trkpt lat="44.69208" lon="6.92253">
        <ele>2654</ele>
        <time>2021-11-17T09:00:44Z</time>
      </trkpt>
      <trkpt lat="44.69207" lon="6.92253">
        <ele>2654</ele>
        <time>2021-11-17T09:00:47Z</time>
      </trkpt>
      <trkpt lat="44.692" lon="6.92254">
        <ele>2653</ele>
        <time>2021-11-17T09:00:56Z</time>
      </trkpt>
      <trkpt lat="44.69199" lon="6.92253">
        <ele>2653</ele>
        <time>2021-11-17T09:01:10Z</time>
      </trkpt>
      <trkpt lat="44.69193" lon="6.92255">
        <ele>2655</ele>
        <time>2021-11-17T09:01:17Z</time>
      </trkpt>
      <trkpt lat="44.69192" lon="6.92255">
        <ele>2656</ele>
        <time>2021-11-17T09:01:19Z</time>
      </trkpt>
      <trkpt lat="44.69192" lon="6.92258">
        <ele>2657</ele>
        <time>2021-11-17T09:01:25Z</time>
      </trkpt>
      <trkpt lat="44.69195" lon="6.92264">
        <ele>2658</ele>
        <time>2021-11-17T09:01:31Z</time>
      </trkpt>
      <trkpt lat="44.69195" lon="6.92266">
        <ele>2659</ele>
        <time>2021-11-17T09:01:35Z</time>
      </trkpt>
      <trkpt lat="44.69193" lon="6.92267">
        <ele>2659</ele>
        <time>2021-11-17T09:01:37Z</time>
      </trkpt>
      <trkpt lat="44.69192" lon="6.92268">
        <ele>2660</ele>
        <time>2021-11-17T09:01:41Z</time>
      </trkpt>
      <trkpt lat="44.69189" lon="6.92265">
        <ele>2661</ele>
        <time>2021-11-17T09:01:58Z</time>
      </trkpt>
      <trkpt lat="44.69185" lon="6.92266">
        <ele>2662</ele>
        <time>2021-11-17T09:02:03Z</time>
      </trkpt>
      <trkpt lat="44.69181" lon="6.92267">
        <ele>2662</ele>
        <time>2021-11-17T09:02:10Z</time>
      </trkpt>
      <trkpt lat="44.69179" lon="6.92268">
        <ele>2663</ele>
        <time>2021-11-17T09:02:13Z</time>
      </trkpt>
      <trkpt lat="44.69178" lon="6.92269">
        <ele>2663</ele>
        <time>2021-11-17T09:02:16Z</time>
      </trkpt>
      <trkpt lat="44.69177" lon="6.92271">
        <ele>2663</ele>
        <time>2021-11-17T09:02:21Z</time>
      </trkpt>
      <trkpt lat="44.69178" lon="6.92273">
        <ele>2664</ele>
        <time>2021-11-17T09:02:25Z</time>
      </trkpt>
      <trkpt lat="44.69182" lon="6.92279">
        <ele>2666</ele>
        <time>2021-11-17T09:02:34Z</time>
      </trkpt>
      <trkpt lat="44.69183" lon="6.92281">
        <ele>2666</ele>
        <time>2021-11-17T09:02:37Z</time>
      </trkpt>
      <trkpt lat="44.69182" lon="6.92283">
        <ele>2667</ele>
        <time>2021-11-17T09:02:41Z</time>
      </trkpt>
      <trkpt lat="44.69181" lon="6.92283">
        <ele>2667</ele>
        <time>2021-11-17T09:02:44Z</time>
      </trkpt>
      <trkpt lat="44.69179" lon="6.92283">
        <ele>2668</ele>
        <time>2021-11-17T09:02:46Z</time>
      </trkpt>
      <trkpt lat="44.69178" lon="6.92284">
        <ele>2668</ele>
        <time>2021-11-17T09:02:48Z</time>
      </trkpt>
      <trkpt lat="44.69176" lon="6.92283">
        <ele>2668</ele>
        <time>2021-11-17T09:02:52Z</time>
      </trkpt>
      <trkpt lat="44.69175" lon="6.92282">
        <ele>2668</ele>
        <time>2021-11-17T09:02:56Z</time>
      </trkpt>
      <trkpt lat="44.69171" lon="6.92281">
        <ele>2669</ele>
        <time>2021-11-17T09:03:01Z</time>
      </trkpt>
      <trkpt lat="44.69172" lon="6.92284">
        <ele>2670</ele>
        <time>2021-11-17T09:03:12Z</time>
      </trkpt>
      <trkpt lat="44.69175" lon="6.92287">
        <ele>2672</ele>
        <time>2021-11-17T09:03:21Z</time>
      </trkpt>
      <trkpt lat="44.69177" lon="6.92288">
        <ele>2672</ele>
        <time>2021-11-17T09:03:23Z</time>
      </trkpt>
      <trkpt lat="44.69178" lon="6.9229">
        <ele>2673</ele>
        <time>2021-11-17T09:03:26Z</time>
      </trkpt>
      <trkpt lat="44.69179" lon="6.92295">
        <ele>2674</ele>
        <time>2021-11-17T09:03:32Z</time>
      </trkpt>
      <trkpt lat="44.69181" lon="6.923">
        <ele>2675</ele>
        <time>2021-11-17T09:03:40Z</time>
      </trkpt>
      <trkpt lat="44.69182" lon="6.92302">
        <ele>2676</ele>
        <time>2021-11-17T09:03:44Z</time>
      </trkpt>
      <trkpt lat="44.69183" lon="6.92305">
        <ele>2676</ele>
        <time>2021-11-17T09:03:48Z</time>
      </trkpt>
      <trkpt lat="44.6918" lon="6.92305">
        <ele>2677</ele>
        <time>2021-11-17T09:04:01Z</time>
      </trkpt>
      <trkpt lat="44.69177" lon="6.92304">
        <ele>2677</ele>
        <time>2021-11-17T09:04:06Z</time>
      </trkpt>
      <trkpt lat="44.69171" lon="6.92303">
        <ele>2678</ele>
        <time>2021-11-17T09:04:15Z</time>
      </trkpt>
      <trkpt lat="44.69169" lon="6.92302">
        <ele>2678</ele>
        <time>2021-11-17T09:04:17Z</time>
      </trkpt>
      <trkpt lat="44.69169" lon="6.923">
        <ele>2679</ele>
        <time>2021-11-17T09:04:20Z</time>
      </trkpt>
      <trkpt lat="44.69167" lon="6.92299">
        <ele>2679</ele>
        <time>2021-11-17T09:04:23Z</time>
      </trkpt>
      <trkpt lat="44.69166" lon="6.92299">
        <ele>2680</ele>
        <time>2021-11-17T09:04:26Z</time>
      </trkpt>
      <trkpt lat="44.69165" lon="6.92301">
        <ele>2682</ele>
        <time>2021-11-17T09:04:34Z</time>
      </trkpt>
      <trkpt lat="44.69169" lon="6.92308">
        <ele>2685</ele>
        <time>2021-11-17T09:04:42Z</time>
      </trkpt>
      <trkpt lat="44.6917" lon="6.9231">
        <ele>2685</ele>
        <time>2021-11-17T09:04:44Z</time>
      </trkpt>
      <trkpt lat="44.69171" lon="6.92312">
        <ele>2686</ele>
        <time>2021-11-17T09:04:47Z</time>
      </trkpt>
      <trkpt lat="44.69171" lon="6.92315">
        <ele>2686</ele>
        <time>2021-11-17T09:04:51Z</time>
      </trkpt>
      <trkpt lat="44.69172" lon="6.92317">
        <ele>2686</ele>
        <time>2021-11-17T09:04:54Z</time>
      </trkpt>
      <trkpt lat="44.69172" lon="6.92319">
        <ele>2687</ele>
        <time>2021-11-17T09:04:58Z</time>
      </trkpt>
      <trkpt lat="44.69164" lon="6.92316">
        <ele>2687</ele>
        <time>2021-11-17T09:05:19Z</time>
      </trkpt>
      <trkpt lat="44.69163" lon="6.92315">
        <ele>2688</ele>
        <time>2021-11-17T09:05:22Z</time>
      </trkpt>
      <trkpt lat="44.6916" lon="6.92311">
        <ele>2688</ele>
        <time>2021-11-17T09:05:29Z</time>
      </trkpt>
      <trkpt lat="44.69158" lon="6.9231">
        <ele>2688</ele>
        <time>2021-11-17T09:05:33Z</time>
      </trkpt>
      <trkpt lat="44.69156" lon="6.9231">
        <ele>2689</ele>
        <time>2021-11-17T09:05:37Z</time>
      </trkpt>
      <trkpt lat="44.69154" lon="6.92311">
        <ele>2689</ele>
        <time>2021-11-17T09:05:41Z</time>
      </trkpt>
      <trkpt lat="44.69153" lon="6.9231">
        <ele>2689</ele>
        <time>2021-11-17T09:05:44Z</time>
      </trkpt>
      <trkpt lat="44.69152" lon="6.92309">
        <ele>2690</ele>
        <time>2021-11-17T09:05:46Z</time>
      </trkpt>
      <trkpt lat="44.6915" lon="6.92309">
        <ele>2691</ele>
        <time>2021-11-17T09:05:50Z</time>
      </trkpt>
      <trkpt lat="44.69148" lon="6.92311">
        <ele>2691</ele>
        <time>2021-11-17T09:05:57Z</time>
      </trkpt>
      <trkpt lat="44.69147" lon="6.92313">
        <ele>2692</ele>
        <time>2021-11-17T09:06:02Z</time>
      </trkpt>
      <trkpt lat="44.69144" lon="6.92313">
        <ele>2693</ele>
        <time>2021-11-17T09:06:10Z</time>
      </trkpt>
      <trkpt lat="44.69142" lon="6.92311">
        <ele>2693</ele>
        <time>2021-11-17T09:06:14Z</time>
      </trkpt>
      <trkpt lat="44.69137" lon="6.92312">
        <ele>2693</ele>
        <time>2021-11-17T09:06:23Z</time>
      </trkpt>
      <trkpt lat="44.69135" lon="6.92312">
        <ele>2693</ele>
        <time>2021-11-17T09:06:25Z</time>
      </trkpt>
      <trkpt lat="44.69133" lon="6.92311">
        <ele>2694</ele>
        <time>2021-11-17T09:06:28Z</time>
      </trkpt>
      <trkpt lat="44.69124" lon="6.92309">
        <ele>2696</ele>
        <time>2021-11-17T09:06:42Z</time>
      </trkpt>
      <trkpt lat="44.69121" lon="6.9231">
        <ele>2697</ele>
        <time>2021-11-17T09:06:48Z</time>
      </trkpt>
      <trkpt lat="44.69118" lon="6.92311">
        <ele>2698</ele>
        <time>2021-11-17T09:06:53Z</time>
      </trkpt>
      <trkpt lat="44.69117" lon="6.92311">
        <ele>2698</ele>
        <time>2021-11-17T09:06:55Z</time>
      </trkpt>
      <trkpt lat="44.69115" lon="6.9231">
        <ele>2699</ele>
        <time>2021-11-17T09:06:58Z</time>
      </trkpt>
      <trkpt lat="44.6911" lon="6.9231">
        <ele>2701</ele>
        <time>2021-11-17T09:07:07Z</time>
      </trkpt>
      <trkpt lat="44.69109" lon="6.9231">
        <ele>2702</ele>
        <time>2021-11-17T09:07:10Z</time>
      </trkpt>
      <trkpt lat="44.69107" lon="6.9231">
        <ele>2702</ele>
        <time>2021-11-17T09:07:13Z</time>
      </trkpt>
      <trkpt lat="44.69106" lon="6.92309">
        <ele>2703</ele>
        <time>2021-11-17T09:07:17Z</time>
      </trkpt>
      <trkpt lat="44.69105" lon="6.92311">
        <ele>2703</ele>
        <time>2021-11-17T09:07:24Z</time>
      </trkpt>
      <trkpt lat="44.69106" lon="6.92314">
        <ele>2703</ele>
        <time>2021-11-17T09:07:26Z</time>
      </trkpt>
      <trkpt lat="44.6911" lon="6.92319">
        <ele>2706</ele>
        <time>2021-11-17T09:07:33Z</time>
      </trkpt>
      <trkpt lat="44.69111" lon="6.92321">
        <ele>2707</ele>
        <time>2021-11-17T09:07:36Z</time>
      </trkpt>
      <trkpt lat="44.69112" lon="6.92323">
        <ele>2707</ele>
        <time>2021-11-17T09:07:39Z</time>
      </trkpt>
      <trkpt lat="44.69117" lon="6.92328">
        <ele>2709</ele>
        <time>2021-11-17T09:07:46Z</time>
      </trkpt>
      <trkpt lat="44.6912" lon="6.92333">
        <ele>2709</ele>
        <time>2021-11-17T09:07:50Z</time>
      </trkpt>
      <trkpt lat="44.69124" lon="6.92335">
        <ele>2709</ele>
        <time>2021-11-17T09:07:58Z</time>
      </trkpt>
      <trkpt lat="44.69125" lon="6.9234">
        <ele>2709</ele>
        <time>2021-11-17T09:08:04Z</time>
      </trkpt>
      <trkpt lat="44.69126" lon="6.92343">
        <ele>2709</ele>
        <time>2021-11-17T09:08:07Z</time>
      </trkpt>
      <trkpt lat="44.69127" lon="6.92346">
        <ele>2709</ele>
        <time>2021-11-17T09:08:11Z</time>
      </trkpt>
      <trkpt lat="44.69127" lon="6.92348">
        <ele>2709</ele>
        <time>2021-11-17T09:08:15Z</time>
      </trkpt>
      <trkpt lat="44.69128" lon="6.92348">
        <ele>2709</ele>
        <time>2021-11-17T09:08:38Z</time>
      </trkpt>
      <trkpt lat="44.69131" lon="6.92347">
        <ele>2710</ele>
        <time>2021-11-17T09:08:49Z</time>
      </trkpt>
      <trkpt lat="44.69133" lon="6.92347">
        <ele>2710</ele>
        <time>2021-11-17T09:08:59Z</time>
      </trkpt>
      <trkpt lat="44.69134" lon="6.92348">
        <ele>2711</ele>
        <time>2021-11-17T09:09:13Z</time>
      </trkpt>
      <trkpt lat="44.69135" lon="6.9235">
        <ele>2711</ele>
        <time>2021-11-17T09:09:15Z</time>
      </trkpt>
      <trkpt lat="44.69141" lon="6.92367">
        <ele>2718</ele>
        <time>2021-11-17T09:09:47Z</time>
      </trkpt>
      <trkpt lat="44.69141" lon="6.9237">
        <ele>2719</ele>
        <time>2021-11-17T09:09:51Z</time>
      </trkpt>
      <trkpt lat="44.69144" lon="6.9238">
        <ele>2723</ele>
        <time>2021-11-17T09:10:07Z</time>
      </trkpt>
      <trkpt lat="44.69145" lon="6.92382">
        <ele>2723</ele>
        <time>2021-11-17T09:10:10Z</time>
      </trkpt>
      <trkpt lat="44.69146" lon="6.92384">
        <ele>2723</ele>
        <time>2021-11-17T09:10:14Z</time>
      </trkpt>
      <trkpt lat="44.69148" lon="6.92386">
        <ele>2724</ele>
        <time>2021-11-17T09:10:17Z</time>
      </trkpt>
      <trkpt lat="44.6915" lon="6.92387">
        <ele>2724</ele>
        <time>2021-11-17T09:10:20Z</time>
      </trkpt>
      <trkpt lat="44.69151" lon="6.92387">
        <ele>2725</ele>
        <time>2021-11-17T09:10:25Z</time>
      </trkpt>
      <trkpt lat="44.69153" lon="6.92388">
        <ele>2725</ele>
        <time>2021-11-17T09:10:28Z</time>
      </trkpt>
      <trkpt lat="44.69155" lon="6.92394">
        <ele>2726</ele>
        <time>2021-11-17T09:10:35Z</time>
      </trkpt>
      <trkpt lat="44.69155" lon="6.924">
        <ele>2726</ele>
        <time>2021-11-17T09:10:41Z</time>
      </trkpt>
      <trkpt lat="44.69157" lon="6.92406">
        <ele>2727</ele>
        <time>2021-11-17T09:10:51Z</time>
      </trkpt>
      <trkpt lat="44.69159" lon="6.92415">
        <ele>2729</ele>
        <time>2021-11-17T09:11:02Z</time>
      </trkpt>
      <trkpt lat="44.69158" lon="6.92416">
        <ele>2729</ele>
        <time>2021-11-17T09:11:05Z</time>
      </trkpt>
      <trkpt lat="44.69157" lon="6.92416">
        <ele>2729</ele>
        <time>2021-11-17T09:11:08Z</time>
      </trkpt>
      <trkpt lat="44.69155" lon="6.92415">
        <ele>2730</ele>
        <time>2021-11-17T09:11:10Z</time>
      </trkpt>
      <trkpt lat="44.69153" lon="6.92415">
        <ele>2730</ele>
        <time>2021-11-17T09:11:13Z</time>
      </trkpt>
      <trkpt lat="44.69151" lon="6.92415">
        <ele>2730</ele>
        <time>2021-11-17T09:11:17Z</time>
      </trkpt>
      <trkpt lat="44.69148" lon="6.92415">
        <ele>2730</ele>
        <time>2021-11-17T09:11:23Z</time>
      </trkpt>
      <trkpt lat="44.69147" lon="6.92415">
        <ele>2730</ele>
        <time>2021-11-17T09:11:26Z</time>
      </trkpt>
      <trkpt lat="44.69142" lon="6.9242">
        <ele>2731</ele>
        <time>2021-11-17T09:11:35Z</time>
      </trkpt>
      <trkpt lat="44.69143" lon="6.92423">
        <ele>2731</ele>
        <time>2021-11-17T09:11:44Z</time>
      </trkpt>
      <trkpt lat="44.69144" lon="6.92425">
        <ele>2731</ele>
        <time>2021-11-17T09:11:47Z</time>
      </trkpt>
      <trkpt lat="44.69145" lon="6.92427">
        <ele>2732</ele>
        <time>2021-11-17T09:11:50Z</time>
      </trkpt>
      <trkpt lat="44.69145" lon="6.92429">
        <ele>2732</ele>
        <time>2021-11-17T09:11:54Z</time>
      </trkpt>
      <trkpt lat="44.69149" lon="6.92427">
        <ele>2733</ele>
        <time>2021-11-17T09:12:08Z</time>
      </trkpt>
      <trkpt lat="44.69151" lon="6.92428">
        <ele>2734</ele>
        <time>2021-11-17T09:12:11Z</time>
      </trkpt>
      <trkpt lat="44.69151" lon="6.92429">
        <ele>2734</ele>
        <time>2021-11-17T09:12:14Z</time>
      </trkpt>
      <trkpt lat="44.69152" lon="6.92432">
        <ele>2735</ele>
        <time>2021-11-17T09:12:18Z</time>
      </trkpt>
      <trkpt lat="44.69151" lon="6.92438">
        <ele>2735</ele>
        <time>2021-11-17T09:12:27Z</time>
      </trkpt>
      <trkpt lat="44.69153" lon="6.92445">
        <ele>2737</ele>
        <time>2021-11-17T09:12:38Z</time>
      </trkpt>
      <trkpt lat="44.69154" lon="6.9245">
        <ele>2738</ele>
        <time>2021-11-17T09:12:46Z</time>
      </trkpt>
      <trkpt lat="44.69155" lon="6.92453">
        <ele>2739</ele>
        <time>2021-11-17T09:12:49Z</time>
      </trkpt>
      <trkpt lat="44.69153" lon="6.92456">
        <ele>2741</ele>
        <time>2021-11-17T09:12:56Z</time>
      </trkpt>
      <trkpt lat="44.69148" lon="6.92458">
        <ele>2742</ele>
        <time>2021-11-17T09:13:02Z</time>
      </trkpt>
      <trkpt lat="44.69147" lon="6.92458">
        <ele>2742</ele>
        <time>2021-11-17T09:13:05Z</time>
      </trkpt>
      <trkpt lat="44.69145" lon="6.92457">
        <ele>2743</ele>
        <time>2021-11-17T09:13:13Z</time>
      </trkpt>
      <trkpt lat="44.69144" lon="6.92457">
        <ele>2743</ele>
        <time>2021-11-17T09:13:19Z</time>
      </trkpt>
      <trkpt lat="44.69142" lon="6.92459">
        <ele>2744</ele>
        <time>2021-11-17T09:13:23Z</time>
      </trkpt>
      <trkpt lat="44.69144" lon="6.9246">
        <ele>2744</ele>
        <time>2021-11-17T09:13:28Z</time>
      </trkpt>
      <trkpt lat="44.69146" lon="6.9246">
        <ele>2744</ele>
        <time>2021-11-17T09:13:32Z</time>
      </trkpt>
      <trkpt lat="44.69148" lon="6.92464">
        <ele>2745</ele>
        <time>2021-11-17T09:13:43Z</time>
      </trkpt>
      <trkpt lat="44.69148" lon="6.92466">
        <ele>2745</ele>
        <time>2021-11-17T09:13:54Z</time>
      </trkpt>
      <trkpt lat="44.69145" lon="6.92467">
        <ele>2746</ele>
        <time>2021-11-17T09:14:02Z</time>
      </trkpt>
      <trkpt lat="44.69144" lon="6.92467">
        <ele>2747</ele>
        <time>2021-11-17T09:14:05Z</time>
      </trkpt>
      <trkpt lat="44.69136" lon="6.92463">
        <ele>2749</ele>
        <time>2021-11-17T09:14:16Z</time>
      </trkpt>
      <trkpt lat="44.69137" lon="6.92465">
        <ele>2750</ele>
        <time>2021-11-17T09:14:23Z</time>
      </trkpt>
      <trkpt lat="44.6914" lon="6.92472">
        <ele>2752</ele>
        <time>2021-11-17T09:14:32Z</time>
      </trkpt>
      <trkpt lat="44.6914" lon="6.92475">
        <ele>2753</ele>
        <time>2021-11-17T09:14:35Z</time>
      </trkpt>
      <trkpt lat="44.6914" lon="6.9248">
        <ele>2753</ele>
        <time>2021-11-17T09:14:41Z</time>
      </trkpt>
      <trkpt lat="44.69142" lon="6.92484">
        <ele>2754</ele>
        <time>2021-11-17T09:14:47Z</time>
      </trkpt>
      <trkpt lat="44.69143" lon="6.92488">
        <ele>2755</ele>
        <time>2021-11-17T09:14:53Z</time>
      </trkpt>
      <trkpt lat="44.69143" lon="6.92494">
        <ele>2757</ele>
        <time>2021-11-17T09:14:59Z</time>
      </trkpt>
      <trkpt lat="44.69144" lon="6.92496">
        <ele>2758</ele>
        <time>2021-11-17T09:15:02Z</time>
      </trkpt>
      <trkpt lat="44.69143" lon="6.92499">
        <ele>2759</ele>
        <time>2021-11-17T09:15:10Z</time>
      </trkpt>
      <trkpt lat="44.69142" lon="6.92499">
        <ele>2760</ele>
        <time>2021-11-17T09:15:20Z</time>
      </trkpt>
      <trkpt lat="44.69142" lon="6.92498">
        <ele>2760</ele>
        <time>2021-11-17T09:15:21Z</time>
      </trkpt>
      <trkpt lat="44.6914" lon="6.92497">
        <ele>2760</ele>
        <time>2021-11-17T09:15:24Z</time>
      </trkpt>
      <trkpt lat="44.69139" lon="6.92498">
        <ele>2761</ele>
        <time>2021-11-17T09:15:32Z</time>
      </trkpt>
      <trkpt lat="44.69138" lon="6.92497">
        <ele>2762</ele>
        <time>2021-11-17T09:15:35Z</time>
      </trkpt>
      <trkpt lat="44.69136" lon="6.92498">
        <ele>2762</ele>
        <time>2021-11-17T09:15:37Z</time>
      </trkpt>
      <trkpt lat="44.69135" lon="6.92499">
        <ele>2762</ele>
        <time>2021-11-17T09:15:40Z</time>
      </trkpt>
      <trkpt lat="44.69134" lon="6.925">
        <ele>2761</ele>
        <time>2021-11-17T09:15:44Z</time>
      </trkpt>
      <trkpt lat="44.69132" lon="6.92501">
        <ele>2761</ele>
        <time>2021-11-17T09:15:47Z</time>
      </trkpt>
      <trkpt lat="44.69133" lon="6.92505">
        <ele>2760</ele>
        <time>2021-11-17T09:16:03Z</time>
      </trkpt>
      <trkpt lat="44.69133" lon="6.92507">
        <ele>2761</ele>
        <time>2021-11-17T09:16:07Z</time>
      </trkpt>
      <trkpt lat="44.69127" lon="6.92509">
        <ele>2764</ele>
        <time>2021-11-17T09:16:17Z</time>
      </trkpt>
      <trkpt lat="44.69126" lon="6.9251">
        <ele>2764</ele>
        <time>2021-11-17T09:16:19Z</time>
      </trkpt>
      <trkpt lat="44.69124" lon="6.92511">
        <ele>2765</ele>
        <time>2021-11-17T09:16:22Z</time>
      </trkpt>
      <trkpt lat="44.69123" lon="6.92513">
        <ele>2765</ele>
        <time>2021-11-17T09:16:26Z</time>
      </trkpt>
      <trkpt lat="44.69126" lon="6.9252">
        <ele>2768</ele>
        <time>2021-11-17T09:16:39Z</time>
      </trkpt>
      <trkpt lat="44.6913" lon="6.92527">
        <ele>2771</ele>
        <time>2021-11-17T09:16:52Z</time>
      </trkpt>
      <trkpt lat="44.69131" lon="6.9253">
        <ele>2771</ele>
        <time>2021-11-17T09:16:55Z</time>
      </trkpt>
      <trkpt lat="44.6913" lon="6.92536">
        <ele>2773</ele>
        <time>2021-11-17T09:17:03Z</time>
      </trkpt>
      <trkpt lat="44.6913" lon="6.92539">
        <ele>2774</ele>
        <time>2021-11-17T09:17:07Z</time>
      </trkpt>
      <trkpt lat="44.69128" lon="6.92549">
        <ele>2777</ele>
        <time>2021-11-17T09:17:18Z</time>
      </trkpt>
      <trkpt lat="44.69127" lon="6.92551">
        <ele>2777</ele>
        <time>2021-11-17T09:17:21Z</time>
      </trkpt>
      <trkpt lat="44.69128" lon="6.92553">
        <ele>2778</ele>
        <time>2021-11-17T09:17:25Z</time>
      </trkpt>
      <trkpt lat="44.69128" lon="6.92556">
        <ele>2778</ele>
        <time>2021-11-17T09:17:28Z</time>
      </trkpt>
      <trkpt lat="44.69128" lon="6.92558">
        <ele>2779</ele>
        <time>2021-11-17T09:17:31Z</time>
      </trkpt>
      <trkpt lat="44.69128" lon="6.92565">
        <ele>2780</ele>
        <time>2021-11-17T09:17:39Z</time>
      </trkpt>
      <trkpt lat="44.69127" lon="6.92567">
        <ele>2781</ele>
        <time>2021-11-17T09:17:42Z</time>
      </trkpt>
      <trkpt lat="44.69126" lon="6.92569">
        <ele>2781</ele>
        <time>2021-11-17T09:17:44Z</time>
      </trkpt>
      <trkpt lat="44.69125" lon="6.92571">
        <ele>2781</ele>
        <time>2021-11-17T09:17:47Z</time>
      </trkpt>
      <trkpt lat="44.69123" lon="6.92572">
        <ele>2782</ele>
        <time>2021-11-17T09:17:50Z</time>
      </trkpt>
      <trkpt lat="44.6912" lon="6.9258">
        <ele>2783</ele>
        <time>2021-11-17T09:18:02Z</time>
      </trkpt>
      <trkpt lat="44.6912" lon="6.92597">
        <ele>2788</ele>
        <time>2021-11-17T09:18:24Z</time>
      </trkpt>
      <trkpt lat="44.69119" lon="6.926">
        <ele>2789</ele>
        <time>2021-11-17T09:18:27Z</time>
      </trkpt>
      <trkpt lat="44.69116" lon="6.92609">
        <ele>2792</ele>
        <time>2021-11-17T09:18:39Z</time>
      </trkpt>
      <trkpt lat="44.69115" lon="6.92612">
        <ele>2793</ele>
        <time>2021-11-17T09:18:45Z</time>
      </trkpt>
      <trkpt lat="44.69113" lon="6.92614">
        <ele>2793</ele>
        <time>2021-11-17T09:18:49Z</time>
      </trkpt>
      <trkpt lat="44.69109" lon="6.92617">
        <ele>2795</ele>
        <time>2021-11-17T09:19:01Z</time>
      </trkpt>
      <trkpt lat="44.69106" lon="6.92621">
        <ele>2797</ele>
        <time>2021-11-17T09:19:10Z</time>
      </trkpt>
      <trkpt lat="44.69104" lon="6.92625">
        <ele>2798</ele>
        <time>2021-11-17T09:19:17Z</time>
      </trkpt>
      <trkpt lat="44.691" lon="6.92628">
        <ele>2800</ele>
        <time>2021-11-17T09:19:24Z</time>
      </trkpt>
      <trkpt lat="44.69099" lon="6.92629">
        <ele>2800</ele>
        <time>2021-11-17T09:19:27Z</time>
      </trkpt>
      <trkpt lat="44.69099" lon="6.92631">
        <ele>2801</ele>
        <time>2021-11-17T09:19:31Z</time>
      </trkpt>
      <trkpt lat="44.69097" lon="6.92632">
        <ele>2801</ele>
        <time>2021-11-17T09:19:34Z</time>
      </trkpt>
      <trkpt lat="44.69096" lon="6.92632">
        <ele>2801</ele>
        <time>2021-11-17T09:19:44Z</time>
      </trkpt>
      <trkpt lat="44.69094" lon="6.92633">
        <ele>2801</ele>
        <time>2021-11-17T09:19:47Z</time>
      </trkpt>
      <trkpt lat="44.69093" lon="6.92634">
        <ele>2801</ele>
        <time>2021-11-17T09:19:55Z</time>
      </trkpt>
      <trkpt lat="44.69091" lon="6.92635">
        <ele>2802</ele>
        <time>2021-11-17T09:20:05Z</time>
      </trkpt>
      <trkpt lat="44.6909" lon="6.92636">
        <ele>2802</ele>
        <time>2021-11-17T09:20:12Z</time>
      </trkpt>
      <trkpt lat="44.69088" lon="6.92637">
        <ele>2802</ele>
        <time>2021-11-17T09:20:15Z</time>
      </trkpt>
      <trkpt lat="44.69087" lon="6.92637">
        <ele>2803</ele>
        <time>2021-11-17T09:20:18Z</time>
      </trkpt>
      <trkpt lat="44.69086" lon="6.92641">
        <ele>2804</ele>
        <time>2021-11-17T09:20:28Z</time>
      </trkpt>
      <trkpt lat="44.69084" lon="6.92642">
        <ele>2805</ele>
        <time>2021-11-17T09:20:31Z</time>
      </trkpt>
      <trkpt lat="44.69083" lon="6.92641">
        <ele>2805</ele>
        <time>2021-11-17T09:20:38Z</time>
      </trkpt>
      <trkpt lat="44.69081" lon="6.92641">
        <ele>2806</ele>
        <time>2021-11-17T09:20:42Z</time>
      </trkpt>
      <trkpt lat="44.69079" lon="6.92641">
        <ele>2806</ele>
        <time>2021-11-17T09:20:45Z</time>
      </trkpt>
      <trkpt lat="44.69077" lon="6.92641">
        <ele>2806</ele>
        <time>2021-11-17T09:20:47Z</time>
      </trkpt>
      <trkpt lat="44.69076" lon="6.9264">
        <ele>2806</ele>
        <time>2021-11-17T09:20:50Z</time>
      </trkpt>
      <trkpt lat="44.69074" lon="6.92639">
        <ele>2806</ele>
        <time>2021-11-17T09:20:53Z</time>
      </trkpt>
      <trkpt lat="44.69072" lon="6.92635">
        <ele>2807</ele>
        <time>2021-11-17T09:20:59Z</time>
      </trkpt>
      <trkpt lat="44.69068" lon="6.92632">
        <ele>2808</ele>
        <time>2021-11-17T09:21:06Z</time>
      </trkpt>
      <trkpt lat="44.69066" lon="6.92628">
        <ele>2809</ele>
        <time>2021-11-17T09:21:12Z</time>
      </trkpt>
      <trkpt lat="44.69065" lon="6.92625">
        <ele>2810</ele>
        <time>2021-11-17T09:21:15Z</time>
      </trkpt>
      <trkpt lat="44.69061" lon="6.92618">
        <ele>2812</ele>
        <time>2021-11-17T09:21:26Z</time>
      </trkpt>
      <trkpt lat="44.6906" lon="6.92617">
        <ele>2813</ele>
        <time>2021-11-17T09:21:29Z</time>
      </trkpt>
      <trkpt lat="44.69059" lon="6.92616">
        <ele>2813</ele>
        <time>2021-11-17T09:21:31Z</time>
      </trkpt>
      <trkpt lat="44.69058" lon="6.92616">
        <ele>2814</ele>
        <time>2021-11-17T09:21:34Z</time>
      </trkpt>
      <trkpt lat="44.69052" lon="6.92624">
        <ele>2816</ele>
        <time>2021-11-17T09:21:47Z</time>
      </trkpt>
      <trkpt lat="44.69052" lon="6.92627">
        <ele>2816</ele>
        <time>2021-11-17T09:21:51Z</time>
      </trkpt>
      <trkpt lat="44.69052" lon="6.92629">
        <ele>2816</ele>
        <time>2021-11-17T09:21:54Z</time>
      </trkpt>
      <trkpt lat="44.69044" lon="6.92643">
        <ele>2817</ele>
        <time>2021-11-17T09:22:20Z</time>
      </trkpt>
      <trkpt lat="44.69038" lon="6.92652">
        <ele>2820</ele>
        <time>2021-11-17T09:22:37Z</time>
      </trkpt>
      <trkpt lat="44.69035" lon="6.92653">
        <ele>2821</ele>
        <time>2021-11-17T09:22:44Z</time>
      </trkpt>
      <trkpt lat="44.69033" lon="6.92654">
        <ele>2822</ele>
        <time>2021-11-17T09:22:47Z</time>
      </trkpt>
      <trkpt lat="44.69031" lon="6.92654">
        <ele>2822</ele>
        <time>2021-11-17T09:22:49Z</time>
      </trkpt>
      <trkpt lat="44.6903" lon="6.92654">
        <ele>2822</ele>
        <time>2021-11-17T09:22:52Z</time>
      </trkpt>
      <trkpt lat="44.69028" lon="6.92654">
        <ele>2823</ele>
        <time>2021-11-17T09:22:55Z</time>
      </trkpt>
      <trkpt lat="44.69025" lon="6.92656">
        <ele>2824</ele>
        <time>2021-11-17T09:23:01Z</time>
      </trkpt>
      <trkpt lat="44.69023" lon="6.92657">
        <ele>2825</ele>
        <time>2021-11-17T09:23:04Z</time>
      </trkpt>
      <trkpt lat="44.69022" lon="6.92658">
        <ele>2825</ele>
        <time>2021-11-17T09:23:07Z</time>
      </trkpt>
      <trkpt lat="44.6902" lon="6.92657">
        <ele>2826</ele>
        <time>2021-11-17T09:23:10Z</time>
      </trkpt>
      <trkpt lat="44.69018" lon="6.92656">
        <ele>2827</ele>
        <time>2021-11-17T09:23:14Z</time>
      </trkpt>
      <trkpt lat="44.69016" lon="6.92655">
        <ele>2827</ele>
        <time>2021-11-17T09:23:16Z</time>
      </trkpt>
      <trkpt lat="44.69012" lon="6.92656">
        <ele>2827</ele>
        <time>2021-11-17T09:23:19Z</time>
      </trkpt>
      <trkpt lat="44.6901" lon="6.92657">
        <ele>2828</ele>
        <time>2021-11-17T09:23:21Z</time>
      </trkpt>
      <trkpt lat="44.69008" lon="6.92658">
        <ele>2828</ele>
        <time>2021-11-17T09:23:25Z</time>
      </trkpt>
      <trkpt lat="44.69007" lon="6.92659">
        <ele>2828</ele>
        <time>2021-11-17T09:23:27Z</time>
      </trkpt>
      <trkpt lat="44.69005" lon="6.92659">
        <ele>2827</ele>
        <time>2021-11-17T09:23:29Z</time>
      </trkpt>
      <trkpt lat="44.69004" lon="6.92659">
        <ele>2827</ele>
        <time>2021-11-17T09:23:31Z</time>
      </trkpt>
      <trkpt lat="44.69001" lon="6.92659">
        <ele>2826</ele>
        <time>2021-11-17T09:23:34Z</time>
      </trkpt>
      <trkpt lat="44.68993" lon="6.92657">
        <ele>2828</ele>
        <time>2021-11-17T09:23:42Z</time>
      </trkpt>
      <trkpt lat="44.68991" lon="6.92657">
        <ele>2830</ele>
        <time>2021-11-17T09:23:45Z</time>
      </trkpt>
      <trkpt lat="44.68989" lon="6.92656">
        <ele>2830</ele>
        <time>2021-11-17T09:23:47Z</time>
      </trkpt>
      <trkpt lat="44.68986" lon="6.92657">
        <ele>2832</ele>
        <time>2021-11-17T09:23:51Z</time>
      </trkpt>
      <trkpt lat="44.68985" lon="6.92658">
        <ele>2833</ele>
        <time>2021-11-17T09:23:53Z</time>
      </trkpt>
      <trkpt lat="44.68983" lon="6.92658">
        <ele>2834</ele>
        <time>2021-11-17T09:23:55Z</time>
      </trkpt>
      <trkpt lat="44.68981" lon="6.92658">
        <ele>2835</ele>
        <time>2021-11-17T09:23:58Z</time>
      </trkpt>
      <trkpt lat="44.6898" lon="6.92659">
        <ele>2835</ele>
        <time>2021-11-17T09:24:01Z</time>
      </trkpt>
      <trkpt lat="44.68979" lon="6.92661">
        <ele>2835</ele>
        <time>2021-11-17T09:24:03Z</time>
      </trkpt>
      <trkpt lat="44.68977" lon="6.92663">
        <ele>2836</ele>
        <time>2021-11-17T09:24:05Z</time>
      </trkpt>
      <trkpt lat="44.68964" lon="6.9267">
        <ele>2839</ele>
        <time>2021-11-17T09:24:19Z</time>
      </trkpt>
      <trkpt lat="44.68962" lon="6.92671">
        <ele>2839</ele>
        <time>2021-11-17T09:24:21Z</time>
      </trkpt>
      <trkpt lat="44.68958" lon="6.92675">
        <ele>2838</ele>
        <time>2021-11-17T09:24:26Z</time>
      </trkpt>
      <trkpt lat="44.68951" lon="6.92678">
        <ele>2836</ele>
        <time>2021-11-17T09:24:31Z</time>
      </trkpt>
      <trkpt lat="44.68947" lon="6.92681">
        <ele>2835</ele>
        <time>2021-11-17T09:24:35Z</time>
      </trkpt>
      <trkpt lat="44.68946" lon="6.92681">
        <ele>2835</ele>
        <time>2021-11-17T09:24:37Z</time>
      </trkpt>
      <trkpt lat="44.68938" lon="6.92689">
        <ele>2835</ele>
        <time>2021-11-17T09:24:49Z</time>
      </trkpt>
      <trkpt lat="44.68937" lon="6.92691">
        <ele>2836</ele>
        <time>2021-11-17T09:24:51Z</time>
      </trkpt>
      <trkpt lat="44.68936" lon="6.92692">
        <ele>2836</ele>
        <time>2021-11-17T09:24:53Z</time>
      </trkpt>
      <trkpt lat="44.68935" lon="6.92694">
        <ele>2836</ele>
        <time>2021-11-17T09:24:55Z</time>
      </trkpt>
      <trkpt lat="44.68934" lon="6.92701">
        <ele>2838</ele>
        <time>2021-11-17T09:25:01Z</time>
      </trkpt>
      <trkpt lat="44.68934" lon="6.92704">
        <ele>2838</ele>
        <time>2021-11-17T09:25:04Z</time>
      </trkpt>
      <trkpt lat="44.68935" lon="6.92705">
        <ele>2839</ele>
        <time>2021-11-17T09:25:07Z</time>
      </trkpt>
      <trkpt lat="44.68935" lon="6.92705">
        <ele>2841</ele>
        <time>2021-11-17T09:27:14Z</time>
      </trkpt>
      <trkpt lat="44.68933" lon="6.92703">
        <ele>2841</ele>
        <time>2021-11-17T09:27:17Z</time>
      </trkpt>
      <trkpt lat="44.68933" lon="6.92702">
        <ele>2841</ele>
        <time>2021-11-17T09:27:19Z</time>
      </trkpt>
      <trkpt lat="44.68934" lon="6.92698">
        <ele>2841</ele>
        <time>2021-11-17T09:27:21Z</time>
      </trkpt>
      <trkpt lat="44.68944" lon="6.92684">
        <ele>2839</ele>
        <time>2021-11-17T09:27:30Z</time>
      </trkpt>
      <trkpt lat="44.68952" lon="6.92676">
        <ele>2836</ele>
        <time>2021-11-17T09:27:36Z</time>
      </trkpt>
      <trkpt lat="44.6896" lon="6.92672">
        <ele>2833</ele>
        <time>2021-11-17T09:27:42Z</time>
      </trkpt>
      <trkpt lat="44.6897" lon="6.92665">
        <ele>2830</ele>
        <time>2021-11-17T09:27:52Z</time>
      </trkpt>
      <trkpt lat="44.68974" lon="6.92664">
        <ele>2830</ele>
        <time>2021-11-17T09:27:55Z</time>
      </trkpt>
      <trkpt lat="44.68984" lon="6.92659">
        <ele>2831</ele>
        <time>2021-11-17T09:28:01Z</time>
      </trkpt>
      <trkpt lat="44.69001" lon="6.92656">
        <ele>2829</ele>
        <time>2021-11-17T09:28:08Z</time>
      </trkpt>
      <trkpt lat="44.69017" lon="6.92656">
        <ele>2831</ele>
        <time>2021-11-17T09:28:20Z</time>
      </trkpt>
      <trkpt lat="44.69021" lon="6.92657">
        <ele>2832</ele>
        <time>2021-11-17T09:28:28Z</time>
      </trkpt>
      <trkpt lat="44.69018" lon="6.92658">
        <ele>2832</ele>
        <time>2021-11-17T09:29:30Z</time>
      </trkpt>
      <trkpt lat="44.69019" lon="6.92656">
        <ele>2832</ele>
        <time>2021-11-17T09:29:36Z</time>
      </trkpt>
      <trkpt lat="44.69021" lon="6.92656">
        <ele>2832</ele>
        <time>2021-11-17T09:29:40Z</time>
      </trkpt>
      <trkpt lat="44.6902" lon="6.92658">
        <ele>2831</ele>
        <time>2021-11-17T09:29:46Z</time>
      </trkpt>
      <trkpt lat="44.69018" lon="6.92659">
        <ele>2832</ele>
        <time>2021-11-17T09:35:31Z</time>
      </trkpt>
      <trkpt lat="44.69016" lon="6.9266">
        <ele>2833</ele>
        <time>2021-11-17T09:35:36Z</time>
      </trkpt>
      <trkpt lat="44.69016" lon="6.92659">
        <ele>2835</ele>
        <time>2021-11-17T09:35:45Z</time>
      </trkpt>
      <trkpt lat="44.6902" lon="6.92662">
        <ele>2836</ele>
        <time>2021-11-17T09:35:58Z</time>
      </trkpt>
      <trkpt lat="44.69021" lon="6.92662">
        <ele>2837</ele>
        <time>2021-11-17T09:36:16Z</time>
      </trkpt>
      <trkpt lat="44.6902" lon="6.92658">
        <ele>2835</ele>
        <time>2021-11-17T09:37:57Z</time>
      </trkpt>
      <trkpt lat="44.69022" lon="6.92659">
        <ele>2834</ele>
        <time>2021-11-17T09:38:19Z</time>
      </trkpt>
      <trkpt lat="44.69024" lon="6.92657">
        <ele>2834</ele>
        <time>2021-11-17T09:38:31Z</time>
      </trkpt>
      <trkpt lat="44.69025" lon="6.92656">
        <ele>2833</ele>
        <time>2021-11-17T09:38:47Z</time>
      </trkpt>
      <trkpt lat="44.69025" lon="6.92659">
        <ele>2833</ele>
        <time>2021-11-17T09:39:04Z</time>
      </trkpt>
      <trkpt lat="44.69025" lon="6.92661">
        <ele>2832</ele>
        <time>2021-11-17T09:39:12Z</time>
      </trkpt>
      <trkpt lat="44.69023" lon="6.92661">
        <ele>2830</ele>
        <time>2021-11-17T09:39:35Z</time>
      </trkpt>
      <trkpt lat="44.69023" lon="6.92659">
        <ele>2831</ele>
        <time>2021-11-17T09:39:46Z</time>
      </trkpt>
      <trkpt lat="44.69024" lon="6.92659">
        <ele>2833</ele>
        <time>2021-11-17T09:40:25Z</time>
      </trkpt>
      <trkpt lat="44.69022" lon="6.92657">
        <ele>2832</ele>
        <time>2021-11-17T09:41:41Z</time>
      </trkpt>
      <trkpt lat="44.69022" lon="6.92659">
        <ele>2834</ele>
        <time>2021-11-17T09:41:54Z</time>
      </trkpt>
      <trkpt lat="44.69025" lon="6.9266">
        <ele>2833</ele>
        <time>2021-11-17T09:42:56Z</time>
      </trkpt>
      <trkpt lat="44.69033" lon="6.92656">
        <ele>2832</ele>
        <time>2021-11-17T09:43:00Z</time>
      </trkpt>
      <trkpt lat="44.69037" lon="6.92653">
        <ele>2832</ele>
        <time>2021-11-17T09:43:01Z</time>
      </trkpt>
      <trkpt lat="44.69057" lon="6.92623">
        <ele>2827</ele>
        <time>2021-11-17T09:43:06Z</time>
      </trkpt>
      <trkpt lat="44.69065" lon="6.9262">
        <ele>2824</ele>
        <time>2021-11-17T09:43:07Z</time>
      </trkpt>
      <trkpt lat="44.6907" lon="6.92624">
        <ele>2822</ele>
        <time>2021-11-17T09:43:08Z</time>
      </trkpt>
      <trkpt lat="44.69076" lon="6.92629">
        <ele>2819</ele>
        <time>2021-11-17T09:43:09Z</time>
      </trkpt>
      <trkpt lat="44.69089" lon="6.92629">
        <ele>2814</ele>
        <time>2021-11-17T09:43:11Z</time>
      </trkpt>
      <trkpt lat="44.69094" lon="6.92631">
        <ele>2812</ele>
        <time>2021-11-17T09:43:12Z</time>
      </trkpt>
      <trkpt lat="44.69101" lon="6.92631">
        <ele>2809</ele>
        <time>2021-11-17T09:43:14Z</time>
      </trkpt>
      <trkpt lat="44.69111" lon="6.92629">
        <ele>2801</ele>
        <time>2021-11-17T09:43:25Z</time>
      </trkpt>
      <trkpt lat="44.69141" lon="6.92632">
        <ele>2796</ele>
        <time>2021-11-17T09:43:30Z</time>
      </trkpt>
      <trkpt lat="44.69178" lon="6.92634">
        <ele>2789</ele>
        <time>2021-11-17T09:43:36Z</time>
      </trkpt>
      <trkpt lat="44.69197" lon="6.9264">
        <ele>2784</ele>
        <time>2021-11-17T09:43:42Z</time>
      </trkpt>
      <trkpt lat="44.69219" lon="6.92652">
        <ele>2780</ele>
        <time>2021-11-17T09:44:06Z</time>
      </trkpt>
      <trkpt lat="44.69222" lon="6.92655">
        <ele>2780</ele>
        <time>2021-11-17T09:44:08Z</time>
      </trkpt>
      <trkpt lat="44.69225" lon="6.92655">
        <ele>2779</ele>
        <time>2021-11-17T09:44:09Z</time>
      </trkpt>
      <trkpt lat="44.69246" lon="6.92663">
        <ele>2777</ele>
        <time>2021-11-17T09:44:16Z</time>
      </trkpt>
      <trkpt lat="44.69249" lon="6.92663">
        <ele>2777</ele>
        <time>2021-11-17T09:44:17Z</time>
      </trkpt>
      <trkpt lat="44.69252" lon="6.92659">
        <ele>2776</ele>
        <time>2021-11-17T09:44:19Z</time>
      </trkpt>
      <trkpt lat="44.69258" lon="6.9267">
        <ele>2774</ele>
        <time>2021-11-17T09:44:38Z</time>
      </trkpt>
      <trkpt lat="44.69256" lon="6.92659">
        <ele>2774</ele>
        <time>2021-11-17T09:45:08Z</time>
      </trkpt>
      <trkpt lat="44.69253" lon="6.92635">
        <ele>2770</ele>
        <time>2021-11-17T09:45:18Z</time>
      </trkpt>
      <trkpt lat="44.69251" lon="6.92629">
        <ele>2770</ele>
        <time>2021-11-17T09:45:20Z</time>
      </trkpt>
      <trkpt lat="44.69244" lon="6.92602">
        <ele>2768</ele>
        <time>2021-11-17T09:45:30Z</time>
      </trkpt>
      <trkpt lat="44.69242" lon="6.92599">
        <ele>2768</ele>
        <time>2021-11-17T09:45:31Z</time>
      </trkpt>
      <trkpt lat="44.6924" lon="6.92596">
        <ele>2767</ele>
        <time>2021-11-17T09:45:32Z</time>
      </trkpt>
      <trkpt lat="44.69236" lon="6.92584">
        <ele>2765</ele>
        <time>2021-11-17T09:45:37Z</time>
      </trkpt>
      <trkpt lat="44.69209" lon="6.92514">
        <ele>2755</ele>
        <time>2021-11-17T09:45:50Z</time>
      </trkpt>
      <trkpt lat="44.69208" lon="6.92507">
        <ele>2753</ele>
        <time>2021-11-17T09:45:51Z</time>
      </trkpt>
      <trkpt lat="44.69206" lon="6.92479">
        <ele>2743</ele>
        <time>2021-11-17T09:45:55Z</time>
      </trkpt>
      <trkpt lat="44.69206" lon="6.92472">
        <ele>2740</ele>
        <time>2021-11-17T09:45:56Z</time>
      </trkpt>
      <trkpt lat="44.69206" lon="6.92466">
        <ele>2737</ele>
        <time>2021-11-17T09:45:57Z</time>
      </trkpt>
      <trkpt lat="44.69206" lon="6.92459">
        <ele>2734</ele>
        <time>2021-11-17T09:45:58Z</time>
      </trkpt>
      <trkpt lat="44.69206" lon="6.92446">
        <ele>2728</ele>
        <time>2021-11-17T09:46:00Z</time>
      </trkpt>
      <trkpt lat="44.69205" lon="6.92439">
        <ele>2725</ele>
        <time>2021-11-17T09:46:01Z</time>
      </trkpt>
      <trkpt lat="44.69204" lon="6.92427">
        <ele>2719</ele>
        <time>2021-11-17T09:46:03Z</time>
      </trkpt>
      <trkpt lat="44.69206" lon="6.92425">
        <ele>2718</ele>
        <time>2021-11-17T09:46:04Z</time>
      </trkpt>
      <trkpt lat="44.69208" lon="6.92425">
        <ele>2715</ele>
        <time>2021-11-17T09:46:06Z</time>
      </trkpt>
      <trkpt lat="44.69209" lon="6.92429">
        <ele>2714</ele>
        <time>2021-11-17T09:46:51Z</time>
      </trkpt>
      <trkpt lat="44.69213" lon="6.92427">
        <ele>2713</ele>
        <time>2021-11-17T09:46:52Z</time>
      </trkpt>
      <trkpt lat="44.69255" lon="6.92375">
        <ele>2701</ele>
        <time>2021-11-17T09:47:01Z</time>
      </trkpt>
      <trkpt lat="44.6926" lon="6.92348">
        <ele>2694</ele>
        <time>2021-11-17T09:47:05Z</time>
      </trkpt>
      <trkpt lat="44.69264" lon="6.92316">
        <ele>2686</ele>
        <time>2021-11-17T09:47:09Z</time>
      </trkpt>
      <trkpt lat="44.69264" lon="6.92309">
        <ele>2684</ele>
        <time>2021-11-17T09:47:10Z</time>
      </trkpt>
      <trkpt lat="44.69264" lon="6.92301">
        <ele>2682</ele>
        <time>2021-11-17T09:47:11Z</time>
      </trkpt>
      <trkpt lat="44.69264" lon="6.92293">
        <ele>2679</ele>
        <time>2021-11-17T09:47:12Z</time>
      </trkpt>
      <trkpt lat="44.69261" lon="6.9227">
        <ele>2670</ele>
        <time>2021-11-17T09:47:15Z</time>
      </trkpt>
      <trkpt lat="44.69259" lon="6.92263">
        <ele>2667</ele>
        <time>2021-11-17T09:47:16Z</time>
      </trkpt>
      <trkpt lat="44.69257" lon="6.92257">
        <ele>2664</ele>
        <time>2021-11-17T09:47:17Z</time>
      </trkpt>
      <trkpt lat="44.69253" lon="6.92247">
        <ele>2660</ele>
        <time>2021-11-17T09:47:19Z</time>
      </trkpt>
      <trkpt lat="44.69254" lon="6.92244">
        <ele>2659</ele>
        <time>2021-11-17T09:47:20Z</time>
      </trkpt>
      <trkpt lat="44.69248" lon="6.92245">
        <ele>2658</ele>
        <time>2021-11-17T09:47:39Z</time>
      </trkpt>
      <trkpt lat="44.69245" lon="6.92241">
        <ele>2658</ele>
        <time>2021-11-17T09:47:40Z</time>
      </trkpt>
      <trkpt lat="44.69245" lon="6.92236">
        <ele>2658</ele>
        <time>2021-11-17T09:47:41Z</time>
      </trkpt>
      <trkpt lat="44.69248" lon="6.92231">
        <ele>2657</ele>
        <time>2021-11-17T09:47:42Z</time>
      </trkpt>
      <trkpt lat="44.6925" lon="6.92227">
        <ele>2657</ele>
        <time>2021-11-17T09:47:43Z</time>
      </trkpt>
      <trkpt lat="44.69253" lon="6.92223">
        <ele>2656</ele>
        <time>2021-11-17T09:47:44Z</time>
      </trkpt>
      <trkpt lat="44.69256" lon="6.92221">
        <ele>2655</ele>
        <time>2021-11-17T09:47:45Z</time>
      </trkpt>
      <trkpt lat="44.69266" lon="6.92223">
        <ele>2652</ele>
        <time>2021-11-17T09:47:56Z</time>
      </trkpt>
      <trkpt lat="44.6927" lon="6.92222">
        <ele>2651</ele>
        <time>2021-11-17T09:47:57Z</time>
      </trkpt>
      <trkpt lat="44.69271" lon="6.9222">
        <ele>2650</ele>
        <time>2021-11-17T09:47:58Z</time>
      </trkpt>
      <trkpt lat="44.69271" lon="6.92215">
        <ele>2649</ele>
        <time>2021-11-17T09:47:59Z</time>
      </trkpt>
      <trkpt lat="44.69268" lon="6.92195">
        <ele>2642</ele>
        <time>2021-11-17T09:48:02Z</time>
      </trkpt>
      <trkpt lat="44.69267" lon="6.92189">
        <ele>2640</ele>
        <time>2021-11-17T09:48:03Z</time>
      </trkpt>
      <trkpt lat="44.69267" lon="6.92177">
        <ele>2634</ele>
        <time>2021-11-17T09:48:05Z</time>
      </trkpt>
      <trkpt lat="44.69268" lon="6.92171">
        <ele>2631</ele>
        <time>2021-11-17T09:48:06Z</time>
      </trkpt>
      <trkpt lat="44.69272" lon="6.9216">
        <ele>2624</ele>
        <time>2021-11-17T09:48:08Z</time>
      </trkpt>
      <trkpt lat="44.69275" lon="6.92154">
        <ele>2623</ele>
        <time>2021-11-17T09:48:09Z</time>
      </trkpt>
      <trkpt lat="44.69279" lon="6.92149">
        <ele>2620</ele>
        <time>2021-11-17T09:48:10Z</time>
      </trkpt>
      <trkpt lat="44.6929" lon="6.92141">
        <ele>2617</ele>
        <time>2021-11-17T09:48:12Z</time>
      </trkpt>
      <trkpt lat="44.69295" lon="6.92139">
        <ele>2615</ele>
        <time>2021-11-17T09:48:13Z</time>
      </trkpt>
      <trkpt lat="44.69301" lon="6.92139">
        <ele>2613</ele>
        <time>2021-11-17T09:48:14Z</time>
      </trkpt>
      <trkpt lat="44.69308" lon="6.92138">
        <ele>2610</ele>
        <time>2021-11-17T09:48:15Z</time>
      </trkpt>
      <trkpt lat="44.69314" lon="6.92138">
        <ele>2608</ele>
        <time>2021-11-17T09:48:16Z</time>
      </trkpt>
      <trkpt lat="44.69321" lon="6.92137">
        <ele>2606</ele>
        <time>2021-11-17T09:48:17Z</time>
      </trkpt>
      <trkpt lat="44.69327" lon="6.92138">
        <ele>2603</ele>
        <time>2021-11-17T09:48:18Z</time>
      </trkpt>
      <trkpt lat="44.69334" lon="6.9214">
        <ele>2601</ele>
        <time>2021-11-17T09:48:19Z</time>
      </trkpt>
      <trkpt lat="44.69339" lon="6.92142">
        <ele>2598</ele>
        <time>2021-11-17T09:48:20Z</time>
      </trkpt>
      <trkpt lat="44.69345" lon="6.92145">
        <ele>2595</ele>
        <time>2021-11-17T09:48:21Z</time>
      </trkpt>
      <trkpt lat="44.6935" lon="6.92144">
        <ele>2593</ele>
        <time>2021-11-17T09:48:22Z</time>
      </trkpt>
      <trkpt lat="44.69354" lon="6.92144">
        <ele>2591</ele>
        <time>2021-11-17T09:48:23Z</time>
      </trkpt>
      <trkpt lat="44.69359" lon="6.92145">
        <ele>2589</ele>
        <time>2021-11-17T09:48:24Z</time>
      </trkpt>
      <trkpt lat="44.69365" lon="6.92148">
        <ele>2586</ele>
        <time>2021-11-17T09:48:25Z</time>
      </trkpt>
      <trkpt lat="44.69375" lon="6.92158">
        <ele>2581</ele>
        <time>2021-11-17T09:48:28Z</time>
      </trkpt>
      <trkpt lat="44.69369" lon="6.92152">
        <ele>2573</ele>
        <time>2021-11-17T09:50:43Z</time>
      </trkpt>
      <trkpt lat="44.69366" lon="6.92138">
        <ele>2569</ele>
        <time>2021-11-17T09:50:49Z</time>
      </trkpt>
      <trkpt lat="44.69368" lon="6.92128">
        <ele>2568</ele>
        <time>2021-11-17T09:50:55Z</time>
      </trkpt>
      <trkpt lat="44.69379" lon="6.92111">
        <ele>2567</ele>
        <time>2021-11-17T09:51:00Z</time>
      </trkpt>
      <trkpt lat="44.69382" lon="6.92106">
        <ele>2566</ele>
        <time>2021-11-17T09:51:01Z</time>
      </trkpt>
      <trkpt lat="44.69391" lon="6.92099">
        <ele>2564</ele>
        <time>2021-11-17T09:51:03Z</time>
      </trkpt>
      <trkpt lat="44.69404" lon="6.92095">
        <ele>2560</ele>
        <time>2021-11-17T09:51:05Z</time>
      </trkpt>
      <trkpt lat="44.69411" lon="6.92096">
        <ele>2558</ele>
        <time>2021-11-17T09:51:06Z</time>
      </trkpt>
      <trkpt lat="44.69417" lon="6.92096">
        <ele>2555</ele>
        <time>2021-11-17T09:51:07Z</time>
      </trkpt>
      <trkpt lat="44.69424" lon="6.92094">
        <ele>2553</ele>
        <time>2021-11-17T09:51:08Z</time>
      </trkpt>
      <trkpt lat="44.69431" lon="6.92092">
        <ele>2551</ele>
        <time>2021-11-17T09:51:09Z</time>
      </trkpt>
      <trkpt lat="44.69438" lon="6.9209">
        <ele>2549</ele>
        <time>2021-11-17T09:51:10Z</time>
      </trkpt>
      <trkpt lat="44.69443" lon="6.92088">
        <ele>2547</ele>
        <time>2021-11-17T09:51:11Z</time>
      </trkpt>
      <trkpt lat="44.69449" lon="6.92086">
        <ele>2545</ele>
        <time>2021-11-17T09:51:12Z</time>
      </trkpt>
      <trkpt lat="44.69454" lon="6.92085">
        <ele>2542</ele>
        <time>2021-11-17T09:51:13Z</time>
      </trkpt>
      <trkpt lat="44.69489" lon="6.92056">
        <ele>2532</ele>
        <time>2021-11-17T09:51:21Z</time>
      </trkpt>
      <trkpt lat="44.69516" lon="6.92053">
        <ele>2527</ele>
        <time>2021-11-17T09:51:26Z</time>
      </trkpt>
      <trkpt lat="44.69525" lon="6.92055">
        <ele>2525</ele>
        <time>2021-11-17T09:51:28Z</time>
      </trkpt>
      <trkpt lat="44.69533" lon="6.9206">
        <ele>2524</ele>
        <time>2021-11-17T09:51:30Z</time>
      </trkpt>
      <trkpt lat="44.69536" lon="6.92062">
        <ele>2523</ele>
        <time>2021-11-17T09:51:31Z</time>
      </trkpt>
      <trkpt lat="44.69536" lon="6.92057">
        <ele>2520</ele>
        <time>2021-11-17T09:51:58Z</time>
      </trkpt>
      <trkpt lat="44.69538" lon="6.92052">
        <ele>2520</ele>
        <time>2021-11-17T09:52:00Z</time>
      </trkpt>
      <trkpt lat="44.69543" lon="6.92042">
        <ele>2519</ele>
        <time>2021-11-17T09:52:04Z</time>
      </trkpt>
      <trkpt lat="44.69548" lon="6.92036">
        <ele>2518</ele>
        <time>2021-11-17T09:52:07Z</time>
      </trkpt>
      <trkpt lat="44.69561" lon="6.92025">
        <ele>2516</ele>
        <time>2021-11-17T09:52:11Z</time>
      </trkpt>
      <trkpt lat="44.69565" lon="6.92019">
        <ele>2514</ele>
        <time>2021-11-17T09:52:12Z</time>
      </trkpt>
      <trkpt lat="44.69584" lon="6.91984">
        <ele>2514</ele>
        <time>2021-11-17T09:52:21Z</time>
      </trkpt>
      <trkpt lat="44.69602" lon="6.9197">
        <ele>2512</ele>
        <time>2021-11-17T09:52:26Z</time>
      </trkpt>
      <trkpt lat="44.69668" lon="6.91945">
        <ele>2494</ele>
        <time>2021-11-17T09:52:37Z</time>
      </trkpt>
      <trkpt lat="44.6968" lon="6.91934">
        <ele>2492</ele>
        <time>2021-11-17T09:52:40Z</time>
      </trkpt>
      <trkpt lat="44.69685" lon="6.91926">
        <ele>2491</ele>
        <time>2021-11-17T09:52:42Z</time>
      </trkpt>
      <trkpt lat="44.69696" lon="6.91899">
        <ele>2491</ele>
        <time>2021-11-17T09:52:52Z</time>
      </trkpt>
      <trkpt lat="44.69698" lon="6.91898">
        <ele>2490</ele>
        <time>2021-11-17T09:53:09Z</time>
      </trkpt>
      <trkpt lat="44.69703" lon="6.91903">
        <ele>2490</ele>
        <time>2021-11-17T09:53:12Z</time>
      </trkpt>
      <trkpt lat="44.69718" lon="6.9191">
        <ele>2490</ele>
        <time>2021-11-17T09:53:17Z</time>
      </trkpt>
      <trkpt lat="44.69733" lon="6.9191">
        <ele>2486</ele>
        <time>2021-11-17T09:53:33Z</time>
      </trkpt>
      <trkpt lat="44.69741" lon="6.91909">
        <ele>2486</ele>
        <time>2021-11-17T09:53:39Z</time>
      </trkpt>
      <trkpt lat="44.6975" lon="6.91908">
        <ele>2484</ele>
        <time>2021-11-17T09:53:47Z</time>
      </trkpt>
      <trkpt lat="44.69754" lon="6.91903">
        <ele>2484</ele>
        <time>2021-11-17T09:53:50Z</time>
      </trkpt>
      <trkpt lat="44.69759" lon="6.91902">
        <ele>2485</ele>
        <time>2021-11-17T09:54:29Z</time>
      </trkpt>
      <trkpt lat="44.69801" lon="6.9189">
        <ele>2473</ele>
        <time>2021-11-17T09:54:37Z</time>
      </trkpt>
      <trkpt lat="44.69829" lon="6.91891">
        <ele>2459</ele>
        <time>2021-11-17T09:54:42Z</time>
      </trkpt>
      <trkpt lat="44.69832" lon="6.91892">
        <ele>2456</ele>
        <time>2021-11-17T09:54:43Z</time>
      </trkpt>
      <trkpt lat="44.69837" lon="6.91898">
        <ele>2451</ele>
        <time>2021-11-17T09:54:45Z</time>
      </trkpt>
      <trkpt lat="44.69842" lon="6.91902">
        <ele>2448</ele>
        <time>2021-11-17T09:54:46Z</time>
      </trkpt>
      <trkpt lat="44.69851" lon="6.91906">
        <ele>2445</ele>
        <time>2021-11-17T09:54:48Z</time>
      </trkpt>
      <trkpt lat="44.69854" lon="6.91906">
        <ele>2444</ele>
        <time>2021-11-17T09:54:49Z</time>
      </trkpt>
      <trkpt lat="44.69859" lon="6.91904">
        <ele>2442</ele>
        <time>2021-11-17T09:55:04Z</time>
      </trkpt>
      <trkpt lat="44.69868" lon="6.91905">
        <ele>2441</ele>
        <time>2021-11-17T09:55:07Z</time>
      </trkpt>
      <trkpt lat="44.69903" lon="6.919">
        <ele>2434</ele>
        <time>2021-11-17T09:55:16Z</time>
      </trkpt>
      <trkpt lat="44.69916" lon="6.91896">
        <ele>2432</ele>
        <time>2021-11-17T09:55:19Z</time>
      </trkpt>
      <trkpt lat="44.69945" lon="6.91893">
        <ele>2426</ele>
        <time>2021-11-17T09:55:26Z</time>
      </trkpt>
      <trkpt lat="44.69949" lon="6.91894">
        <ele>2425</ele>
        <time>2021-11-17T09:55:27Z</time>
      </trkpt>
      <trkpt lat="44.69961" lon="6.91907">
        <ele>2421</ele>
        <time>2021-11-17T09:55:33Z</time>
      </trkpt>
      <trkpt lat="44.6996" lon="6.9192">
        <ele>2422</ele>
        <time>2021-11-17T10:03:07Z</time>
      </trkpt>
      <trkpt lat="44.6997" lon="6.91916">
        <ele>2424</ele>
        <time>2021-11-17T10:04:40Z</time>
      </trkpt>
      <trkpt lat="44.69973" lon="6.91916">
        <ele>2424</ele>
        <time>2021-11-17T10:04:42Z</time>
      </trkpt>
      <trkpt lat="44.69983" lon="6.91916">
        <ele>2425</ele>
        <time>2021-11-17T10:04:55Z</time>
      </trkpt>
      <trkpt lat="44.69993" lon="6.9192">
        <ele>2429</ele>
        <time>2021-11-17T10:05:28Z</time>
      </trkpt>
      <trkpt lat="44.7" lon="6.91931">
        <ele>2433</ele>
        <time>2021-11-17T10:05:49Z</time>
      </trkpt>
      <trkpt lat="44.7002" lon="6.91949">
        <ele>2438</ele>
        <time>2021-11-17T10:06:20Z</time>
      </trkpt>
      <trkpt lat="44.70028" lon="6.9196">
        <ele>2438</ele>
        <time>2021-11-17T10:06:33Z</time>
      </trkpt>
      <trkpt lat="44.70037" lon="6.91965">
        <ele>2439</ele>
        <time>2021-11-17T10:06:50Z</time>
      </trkpt>
      <trkpt lat="44.70057" lon="6.91976">
        <ele>2443</ele>
        <time>2021-11-17T10:07:25Z</time>
      </trkpt>
      <trkpt lat="44.70059" lon="6.91978">
        <ele>2445</ele>
        <time>2021-11-17T10:07:42Z</time>
      </trkpt>
      <trkpt lat="44.70057" lon="6.91991">
        <ele>2447</ele>
        <time>2021-11-17T10:07:55Z</time>
      </trkpt>
      <trkpt lat="44.70067" lon="6.91998">
        <ele>2453</ele>
        <time>2021-11-17T10:08:17Z</time>
      </trkpt>
      <trkpt lat="44.70075" lon="6.92006">
        <ele>2455</ele>
        <time>2021-11-17T10:08:33Z</time>
      </trkpt>
      <trkpt lat="44.70092" lon="6.92029">
        <ele>2459</ele>
        <time>2021-11-17T10:09:09Z</time>
      </trkpt>
      <trkpt lat="44.70113" lon="6.92053">
        <ele>2464</ele>
        <time>2021-11-17T10:09:48Z</time>
      </trkpt>
      <trkpt lat="44.70111" lon="6.92065">
        <ele>2466</ele>
        <time>2021-11-17T10:10:13Z</time>
      </trkpt>
      <trkpt lat="44.70113" lon="6.92067">
        <ele>2467</ele>
        <time>2021-11-17T10:10:31Z</time>
      </trkpt>
      <trkpt lat="44.70115" lon="6.92079">
        <ele>2469</ele>
        <time>2021-11-17T10:11:28Z</time>
      </trkpt>
      <trkpt lat="44.7012" lon="6.92095">
        <ele>2474</ele>
        <time>2021-11-17T10:11:56Z</time>
      </trkpt>
      <trkpt lat="44.70127" lon="6.92102">
        <ele>2476</ele>
        <time>2021-11-17T10:12:14Z</time>
      </trkpt>
      <trkpt lat="44.70134" lon="6.92113">
        <ele>2479</ele>
        <time>2021-11-17T10:12:35Z</time>
      </trkpt>
      <trkpt lat="44.7013" lon="6.92123">
        <ele>2483</ele>
        <time>2021-11-17T10:12:55Z</time>
      </trkpt>
      <trkpt lat="44.70128" lon="6.92122">
        <ele>2484</ele>
        <time>2021-11-17T10:12:57Z</time>
      </trkpt>
      <trkpt lat="44.70114" lon="6.92132">
        <ele>2489</ele>
        <time>2021-11-17T10:13:34Z</time>
      </trkpt>
      <trkpt lat="44.70115" lon="6.92143">
        <ele>2493</ele>
        <time>2021-11-17T10:14:27Z</time>
      </trkpt>
      <trkpt lat="44.70111" lon="6.92155">
        <ele>2497</ele>
        <time>2021-11-17T10:14:56Z</time>
      </trkpt>
      <trkpt lat="44.70102" lon="6.92164">
        <ele>2501</ele>
        <time>2021-11-17T10:15:15Z</time>
      </trkpt>
      <trkpt lat="44.701" lon="6.92165">
        <ele>2503</ele>
        <time>2021-11-17T10:15:18Z</time>
      </trkpt>
      <trkpt lat="44.70099" lon="6.9217">
        <ele>2509</ele>
        <time>2021-11-17T10:15:24Z</time>
      </trkpt>
      <trkpt lat="44.70105" lon="6.92181">
        <ele>2512</ele>
        <time>2021-11-17T10:15:41Z</time>
      </trkpt>
      <trkpt lat="44.70107" lon="6.92196">
        <ele>2515</ele>
        <time>2021-11-17T10:16:05Z</time>
      </trkpt>
      <trkpt lat="44.70106" lon="6.92203">
        <ele>2518</ele>
        <time>2021-11-17T10:16:08Z</time>
      </trkpt>
      <trkpt lat="44.70107" lon="6.92216">
        <ele>2520</ele>
        <time>2021-11-17T10:16:51Z</time>
      </trkpt>
      <trkpt lat="44.70108" lon="6.92248">
        <ele>2527</ele>
        <time>2021-11-17T10:17:27Z</time>
      </trkpt>
      <trkpt lat="44.70129" lon="6.92259">
        <ele>2536</ele>
        <time>2021-11-17T10:18:08Z</time>
      </trkpt>
      <trkpt lat="44.7013" lon="6.9226">
        <ele>2536</ele>
        <time>2021-11-17T10:18:11Z</time>
      </trkpt>
      <trkpt lat="44.7013" lon="6.92282">
        <ele>2536</ele>
        <time>2021-11-17T10:18:32Z</time>
      </trkpt>
      <trkpt lat="44.70132" lon="6.92298">
        <ele>2535</ele>
        <time>2021-11-17T10:18:40Z</time>
      </trkpt>
      <trkpt lat="44.70134" lon="6.92302">
        <ele>2534</ele>
        <time>2021-11-17T10:18:42Z</time>
      </trkpt>
      <trkpt lat="44.70146" lon="6.9232">
        <ele>2529</ele>
        <time>2021-11-17T10:18:47Z</time>
      </trkpt>
      <trkpt lat="44.70154" lon="6.92343">
        <ele>2523</ele>
        <time>2021-11-17T10:18:52Z</time>
      </trkpt>
      <trkpt lat="44.70166" lon="6.92354">
        <ele>2515</ele>
        <time>2021-11-17T10:19:02Z</time>
      </trkpt>
      <trkpt lat="44.70169" lon="6.92356">
        <ele>2514</ele>
        <time>2021-11-17T10:19:04Z</time>
      </trkpt>
      <trkpt lat="44.70192" lon="6.92375">
        <ele>2513</ele>
        <time>2021-11-17T10:19:35Z</time>
      </trkpt>
      <trkpt lat="44.70194" lon="6.92378">
        <ele>2515</ele>
        <time>2021-11-17T10:19:37Z</time>
      </trkpt>
      <trkpt lat="44.7022" lon="6.92394">
        <ele>2520</ele>
        <time>2021-11-17T10:20:16Z</time>
      </trkpt>
      <trkpt lat="44.70222" lon="6.92396">
        <ele>2520</ele>
        <time>2021-11-17T10:20:19Z</time>
      </trkpt>
      <trkpt lat="44.70221" lon="6.92404">
        <ele>2520</ele>
        <time>2021-11-17T10:21:04Z</time>
      </trkpt>
      <trkpt lat="44.70212" lon="6.92393">
        <ele>2520</ele>
        <time>2021-11-17T10:21:17Z</time>
      </trkpt>
      <trkpt lat="44.70207" lon="6.92357">
        <ele>2523</ele>
        <time>2021-11-17T10:21:24Z</time>
      </trkpt>
      <trkpt lat="44.70204" lon="6.92357">
        <ele>2523</ele>
        <time>2021-11-17T10:21:25Z</time>
      </trkpt>
      <trkpt lat="44.70206" lon="6.92381">
        <ele>2519</ele>
        <time>2021-11-17T10:21:26Z</time>
      </trkpt>
      <trkpt lat="44.70203" lon="6.92381">
        <ele>2518</ele>
        <time>2021-11-17T10:21:29Z</time>
      </trkpt>
      <trkpt lat="44.70191" lon="6.92388">
        <ele>2515</ele>
        <time>2021-11-17T10:22:12Z</time>
      </trkpt>
      <trkpt lat="44.70186" lon="6.92395">
        <ele>2517</ele>
        <time>2021-11-17T10:22:24Z</time>
      </trkpt>
      <trkpt lat="44.70178" lon="6.92397">
        <ele>2518</ele>
        <time>2021-11-17T10:22:33Z</time>
      </trkpt>
      <trkpt lat="44.70175" lon="6.92395">
        <ele>2519</ele>
        <time>2021-11-17T10:22:35Z</time>
      </trkpt>
      <trkpt lat="44.7016" lon="6.92401">
        <ele>2525</ele>
        <time>2021-11-17T10:22:54Z</time>
      </trkpt>
      <trkpt lat="44.7015" lon="6.92405">
        <ele>2528</ele>
        <time>2021-11-17T10:23:39Z</time>
      </trkpt>
      <trkpt lat="44.70134" lon="6.92426">
        <ele>2533</ele>
        <time>2021-11-17T10:24:09Z</time>
      </trkpt>
      <trkpt lat="44.70124" lon="6.9243">
        <ele>2535</ele>
        <time>2021-11-17T10:24:33Z</time>
      </trkpt>
      <trkpt lat="44.70118" lon="6.92428">
        <ele>2536</ele>
        <time>2021-11-17T10:24:42Z</time>
      </trkpt>
      <trkpt lat="44.70119" lon="6.92432">
        <ele>2536</ele>
        <time>2021-11-17T10:24:45Z</time>
      </trkpt>
      <trkpt lat="44.70113" lon="6.92439">
        <ele>2533</ele>
        <time>2021-11-17T10:24:49Z</time>
      </trkpt>
      <trkpt lat="44.70102" lon="6.92438">
        <ele>2533</ele>
        <time>2021-11-17T10:25:03Z</time>
      </trkpt>
      <trkpt lat="44.701" lon="6.92435">
        <ele>2532</ele>
        <time>2021-11-17T10:25:05Z</time>
      </trkpt>
      <trkpt lat="44.70096" lon="6.92437">
        <ele>2533</ele>
        <time>2021-11-17T10:25:09Z</time>
      </trkpt>
      <trkpt lat="44.70099" lon="6.9243">
        <ele>2534</ele>
        <time>2021-11-17T10:26:21Z</time>
      </trkpt>
      <trkpt lat="44.70108" lon="6.92375">
        <ele>2529</ele>
        <time>2021-11-17T10:26:36Z</time>
      </trkpt>
      <trkpt lat="44.70109" lon="6.92372">
        <ele>2528</ele>
        <time>2021-11-17T10:26:38Z</time>
      </trkpt>
      <trkpt lat="44.70108" lon="6.92362">
        <ele>2524</ele>
        <time>2021-11-17T10:26:47Z</time>
      </trkpt>
      <trkpt lat="44.70117" lon="6.92337">
        <ele>2532</ele>
        <time>2021-11-17T10:27:06Z</time>
      </trkpt>
      <trkpt lat="44.7012" lon="6.92331">
        <ele>2533</ele>
        <time>2021-11-17T10:27:10Z</time>
      </trkpt>
      <trkpt lat="44.70121" lon="6.92298">
        <ele>2538</ele>
        <time>2021-11-17T10:27:40Z</time>
      </trkpt>
      <trkpt lat="44.70138" lon="6.92251">
        <ele>2537</ele>
        <time>2021-11-17T10:28:21Z</time>
      </trkpt>
      <trkpt lat="44.70154" lon="6.92233">
        <ele>2539</ele>
        <time>2021-11-17T10:28:51Z</time>
      </trkpt>
      <trkpt lat="44.70156" lon="6.92231">
        <ele>2540</ele>
        <time>2021-11-17T10:29:14Z</time>
      </trkpt>
      <trkpt lat="44.70146" lon="6.92225">
        <ele>2541</ele>
        <time>2021-11-17T10:30:55Z</time>
      </trkpt>
      <trkpt lat="44.70142" lon="6.92215">
        <ele>2542</ele>
        <time>2021-11-17T10:30:57Z</time>
      </trkpt>
      <trkpt lat="44.70152" lon="6.92225">
        <ele>2538</ele>
        <time>2021-11-17T10:31:09Z</time>
      </trkpt>
      <trkpt lat="44.70149" lon="6.92234">
        <ele>2537</ele>
        <time>2021-11-17T10:33:48Z</time>
      </trkpt>
      <trkpt lat="44.70151" lon="6.92239">
        <ele>2539</ele>
        <time>2021-11-17T10:33:57Z</time>
      </trkpt>
      <trkpt lat="44.70151" lon="6.92239">
        <ele>2539</ele>
        <time>2021-11-17T10:34:06Z</time>
      </trkpt>
      <trkpt lat="44.70152" lon="6.92228">
        <ele>2539</ele>
        <time>2021-11-17T10:35:09Z</time>
      </trkpt>
      <trkpt lat="44.70149" lon="6.92231">
        <ele>2538</ele>
        <time>2021-11-17T10:37:03Z</time>
      </trkpt>
      <trkpt lat="44.70149" lon="6.92235">
        <ele>2540</ele>
        <time>2021-11-17T10:37:38Z</time>
      </trkpt>
      <trkpt lat="44.70147" lon="6.92237">
        <ele>2540</ele>
        <time>2021-11-17T10:37:39Z</time>
      </trkpt>
      <trkpt lat="44.70146" lon="6.92243">
        <ele>2540</ele>
        <time>2021-11-17T10:37:42Z</time>
      </trkpt>
      <trkpt lat="44.70129" lon="6.92255">
        <ele>2539</ele>
        <time>2021-11-17T10:37:53Z</time>
      </trkpt>
      <trkpt lat="44.70127" lon="6.92253">
        <ele>2539</ele>
        <time>2021-11-17T10:37:54Z</time>
      </trkpt>
      <trkpt lat="44.70126" lon="6.92249">
        <ele>2538</ele>
        <time>2021-11-17T10:37:55Z</time>
      </trkpt>
      <trkpt lat="44.70126" lon="6.92244">
        <ele>2537</ele>
        <time>2021-11-17T10:37:56Z</time>
      </trkpt>
      <trkpt lat="44.70127" lon="6.92239">
        <ele>2536</ele>
        <time>2021-11-17T10:37:57Z</time>
      </trkpt>
      <trkpt lat="44.70132" lon="6.92226">
        <ele>2533</ele>
        <time>2021-11-17T10:38:01Z</time>
      </trkpt>
      <trkpt lat="44.70129" lon="6.92218">
        <ele>2531</ele>
        <time>2021-11-17T10:38:30Z</time>
      </trkpt>
      <trkpt lat="44.70119" lon="6.9221">
        <ele>2530</ele>
        <time>2021-11-17T10:38:32Z</time>
      </trkpt>
      <trkpt lat="44.70103" lon="6.92189">
        <ele>2527</ele>
        <time>2021-11-17T10:38:35Z</time>
      </trkpt>
      <trkpt lat="44.70091" lon="6.92147">
        <ele>2520</ele>
        <time>2021-11-17T10:38:40Z</time>
      </trkpt>
      <trkpt lat="44.70091" lon="6.92143">
        <ele>2519</ele>
        <time>2021-11-17T10:38:41Z</time>
      </trkpt>
      <trkpt lat="44.70095" lon="6.92143">
        <ele>2512</ele>
        <time>2021-11-17T10:39:09Z</time>
      </trkpt>
      <trkpt lat="44.70094" lon="6.92142">
        <ele>2511</ele>
        <time>2021-11-17T10:39:11Z</time>
      </trkpt>
      <trkpt lat="44.70091" lon="6.92142">
        <ele>2510</ele>
        <time>2021-11-17T10:39:13Z</time>
      </trkpt>
      <trkpt lat="44.70099" lon="6.92143">
        <ele>2508</ele>
        <time>2021-11-17T10:39:46Z</time>
      </trkpt>
      <trkpt lat="44.70104" lon="6.92144">
        <ele>2506</ele>
        <time>2021-11-17T10:39:48Z</time>
      </trkpt>
      <trkpt lat="44.70108" lon="6.92146">
        <ele>2506</ele>
        <time>2021-11-17T10:39:49Z</time>
      </trkpt>
      <trkpt lat="44.70112" lon="6.92145">
        <ele>2506</ele>
        <time>2021-11-17T10:39:50Z</time>
      </trkpt>
      <trkpt lat="44.70116" lon="6.92141">
        <ele>2505</ele>
        <time>2021-11-17T10:39:51Z</time>
      </trkpt>
      <trkpt lat="44.70116" lon="6.92134">
        <ele>2505</ele>
        <time>2021-11-17T10:39:52Z</time>
      </trkpt>
      <trkpt lat="44.70116" lon="6.92128">
        <ele>2503</ele>
        <time>2021-11-17T10:39:53Z</time>
      </trkpt>
      <trkpt lat="44.70117" lon="6.9212">
        <ele>2501</ele>
        <time>2021-11-17T10:39:54Z</time>
      </trkpt>
      <trkpt lat="44.70119" lon="6.92113">
        <ele>2498</ele>
        <time>2021-11-17T10:39:55Z</time>
      </trkpt>
      <trkpt lat="44.70119" lon="6.92107">
        <ele>2495</ele>
        <time>2021-11-17T10:39:56Z</time>
      </trkpt>
      <trkpt lat="44.70117" lon="6.92101">
        <ele>2492</ele>
        <time>2021-11-17T10:39:57Z</time>
      </trkpt>
      <trkpt lat="44.70114" lon="6.92096">
        <ele>2491</ele>
        <time>2021-11-17T10:39:58Z</time>
      </trkpt>
      <trkpt lat="44.7011" lon="6.92093">
        <ele>2489</ele>
        <time>2021-11-17T10:39:59Z</time>
      </trkpt>
      <trkpt lat="44.70097" lon="6.92071">
        <ele>2484</ele>
        <time>2021-11-17T10:40:03Z</time>
      </trkpt>
      <trkpt lat="44.70092" lon="6.92042">
        <ele>2480</ele>
        <time>2021-11-17T10:40:06Z</time>
      </trkpt>
      <trkpt lat="44.70082" lon="6.92024">
        <ele>2473</ele>
        <time>2021-11-17T10:40:10Z</time>
      </trkpt>
      <trkpt lat="44.7008" lon="6.92022">
        <ele>2471</ele>
        <time>2021-11-17T10:40:12Z</time>
      </trkpt>
      <trkpt lat="44.70078" lon="6.92018">
        <ele>2466</ele>
        <time>2021-11-17T10:41:20Z</time>
      </trkpt>
      <trkpt lat="44.70068" lon="6.92009">
        <ele>2464</ele>
        <time>2021-11-17T10:41:23Z</time>
      </trkpt>
      <trkpt lat="44.70033" lon="6.91954">
        <ele>2452</ele>
        <time>2021-11-17T10:41:32Z</time>
      </trkpt>
      <trkpt lat="44.7003" lon="6.91947">
        <ele>2449</ele>
        <time>2021-11-17T10:41:33Z</time>
      </trkpt>
      <trkpt lat="44.70029" lon="6.91931">
        <ele>2446</ele>
        <time>2021-11-17T10:41:35Z</time>
      </trkpt>
      <trkpt lat="44.70022" lon="6.9191">
        <ele>2441</ele>
        <time>2021-11-17T10:41:38Z</time>
      </trkpt>
      <trkpt lat="44.70019" lon="6.91904">
        <ele>2438</ele>
        <time>2021-11-17T10:41:39Z</time>
      </trkpt>
      <trkpt lat="44.70017" lon="6.91898">
        <ele>2436</ele>
        <time>2021-11-17T10:41:40Z</time>
      </trkpt>
      <trkpt lat="44.70012" lon="6.91887">
        <ele>2432</ele>
        <time>2021-11-17T10:41:42Z</time>
      </trkpt>
      <trkpt lat="44.70011" lon="6.91857">
        <ele>2427</ele>
        <time>2021-11-17T10:41:46Z</time>
      </trkpt>
      <trkpt lat="44.7001" lon="6.91851">
        <ele>2426</ele>
        <time>2021-11-17T10:41:47Z</time>
      </trkpt>
      <trkpt lat="44.70008" lon="6.91848">
        <ele>2425</ele>
        <time>2021-11-17T10:41:48Z</time>
      </trkpt>
      <trkpt lat="44.70006" lon="6.91846">
        <ele>2423</ele>
        <time>2021-11-17T10:41:50Z</time>
      </trkpt>
      <trkpt lat="44.70006" lon="6.91841">
        <ele>2421</ele>
        <time>2021-11-17T10:42:05Z</time>
      </trkpt>
      <trkpt lat="44.70004" lon="6.91838">
        <ele>2421</ele>
        <time>2021-11-17T10:42:06Z</time>
      </trkpt>
      <trkpt lat="44.70004" lon="6.91835">
        <ele>2420</ele>
        <time>2021-11-17T10:42:07Z</time>
      </trkpt>
      <trkpt lat="44.70009" lon="6.91824">
        <ele>2418</ele>
        <time>2021-11-17T10:42:10Z</time>
      </trkpt>
      <trkpt lat="44.70023" lon="6.91806">
        <ele>2411</ele>
        <time>2021-11-17T10:42:24Z</time>
      </trkpt>
      <trkpt lat="44.70023" lon="6.91804">
        <ele>2411</ele>
        <time>2021-11-17T10:42:26Z</time>
      </trkpt>
      <trkpt lat="44.70045" lon="6.9172">
        <ele>2407</ele>
        <time>2021-11-17T10:42:43Z</time>
      </trkpt>
      <trkpt lat="44.70053" lon="6.91701">
        <ele>2403</ele>
        <time>2021-11-17T10:42:46Z</time>
      </trkpt>
      <trkpt lat="44.70099" lon="6.91639">
        <ele>2389</ele>
        <time>2021-11-17T10:43:38Z</time>
      </trkpt>
      <trkpt lat="44.70101" lon="6.9164">
        <ele>2389</ele>
        <time>2021-11-17T10:45:56Z</time>
      </trkpt>
      <trkpt lat="44.70102" lon="6.91636">
        <ele>2389</ele>
        <time>2021-11-17T10:46:07Z</time>
      </trkpt>
      <trkpt lat="44.70105" lon="6.91634">
        <ele>2390</ele>
        <time>2021-11-17T10:46:09Z</time>
      </trkpt>
      <trkpt lat="44.70114" lon="6.91621">
        <ele>2389</ele>
        <time>2021-11-17T10:46:16Z</time>
      </trkpt>
      <trkpt lat="44.70119" lon="6.91614">
        <ele>2389</ele>
        <time>2021-11-17T10:46:20Z</time>
      </trkpt>
      <trkpt lat="44.70125" lon="6.91606">
        <ele>2388</ele>
        <time>2021-11-17T10:46:24Z</time>
      </trkpt>
      <trkpt lat="44.70144" lon="6.91588">
        <ele>2388</ele>
        <time>2021-11-17T10:46:34Z</time>
      </trkpt>
      <trkpt lat="44.70185" lon="6.91537">
        <ele>2382</ele>
        <time>2021-11-17T10:46:51Z</time>
      </trkpt>
      <trkpt lat="44.70193" lon="6.91522">
        <ele>2380</ele>
        <time>2021-11-17T10:46:55Z</time>
      </trkpt>
      <trkpt lat="44.70215" lon="6.91484">
        <ele>2375</ele>
        <time>2021-11-17T10:47:08Z</time>
      </trkpt>
      <trkpt lat="44.70218" lon="6.91477">
        <ele>2376</ele>
        <time>2021-11-17T10:47:10Z</time>
      </trkpt>
      <trkpt lat="44.70221" lon="6.91472">
        <ele>2375</ele>
        <time>2021-11-17T10:47:12Z</time>
      </trkpt>
      <trkpt lat="44.70223" lon="6.91468">
        <ele>2375</ele>
        <time>2021-11-17T10:47:16Z</time>
      </trkpt>
      <trkpt lat="44.70228" lon="6.91465">
        <ele>2376</ele>
        <time>2021-11-17T10:47:20Z</time>
      </trkpt>
      <trkpt lat="44.70231" lon="6.91465">
        <ele>2378</ele>
        <time>2021-11-17T10:47:21Z</time>
      </trkpt>
      <trkpt lat="44.70234" lon="6.9146">
        <ele>2379</ele>
        <time>2021-11-17T10:47:24Z</time>
      </trkpt>
      <trkpt lat="44.70238" lon="6.91458">
        <ele>2379</ele>
        <time>2021-11-17T10:47:28Z</time>
      </trkpt>
      <trkpt lat="44.70248" lon="6.91447">
        <ele>2378</ele>
        <time>2021-11-17T10:47:34Z</time>
      </trkpt>
      <trkpt lat="44.7025" lon="6.91444">
        <ele>2378</ele>
        <time>2021-11-17T10:47:35Z</time>
      </trkpt>
      <trkpt lat="44.70251" lon="6.9144">
        <ele>2378</ele>
        <time>2021-11-17T10:47:36Z</time>
      </trkpt>
      <trkpt lat="44.70251" lon="6.91438">
        <ele>2378</ele>
        <time>2021-11-17T10:47:38Z</time>
      </trkpt>
      <trkpt lat="44.70253" lon="6.91438">
        <ele>2378</ele>
        <time>2021-11-17T10:48:47Z</time>
      </trkpt>
      <trkpt lat="44.70293" lon="6.9141">
        <ele>2372</ele>
        <time>2021-11-17T10:48:55Z</time>
      </trkpt>
      <trkpt lat="44.70298" lon="6.91404">
        <ele>2369</ele>
        <time>2021-11-17T10:48:56Z</time>
      </trkpt>
      <trkpt lat="44.70314" lon="6.91387">
        <ele>2359</ele>
        <time>2021-11-17T10:48:59Z</time>
      </trkpt>
      <trkpt lat="44.70325" lon="6.91372">
        <ele>2354</ele>
        <time>2021-11-17T10:49:01Z</time>
      </trkpt>
      <trkpt lat="44.7033" lon="6.91366">
        <ele>2352</ele>
        <time>2021-11-17T10:49:02Z</time>
      </trkpt>
      <trkpt lat="44.7034" lon="6.91357">
        <ele>2348</ele>
        <time>2021-11-17T10:49:04Z</time>
      </trkpt>
      <trkpt lat="44.70355" lon="6.9136">
        <ele>2340</ele>
        <time>2021-11-17T10:49:07Z</time>
      </trkpt>
      <trkpt lat="44.7036" lon="6.91359">
        <ele>2337</ele>
        <time>2021-11-17T10:49:08Z</time>
      </trkpt>
      <trkpt lat="44.70366" lon="6.91356">
        <ele>2335</ele>
        <time>2021-11-17T10:49:09Z</time>
      </trkpt>
      <trkpt lat="44.70372" lon="6.91351">
        <ele>2333</ele>
        <time>2021-11-17T10:49:10Z</time>
      </trkpt>
      <trkpt lat="44.70388" lon="6.91334">
        <ele>2328</ele>
        <time>2021-11-17T10:49:13Z</time>
      </trkpt>
      <trkpt lat="44.70397" lon="6.91321">
        <ele>2324</ele>
        <time>2021-11-17T10:49:15Z</time>
      </trkpt>
      <trkpt lat="44.70401" lon="6.91316">
        <ele>2323</ele>
        <time>2021-11-17T10:49:16Z</time>
      </trkpt>
      <trkpt lat="44.70406" lon="6.91315">
        <ele>2321</ele>
        <time>2021-11-17T10:49:17Z</time>
      </trkpt>
      <trkpt lat="44.70412" lon="6.91316">
        <ele>2320</ele>
        <time>2021-11-17T10:49:18Z</time>
      </trkpt>
      <trkpt lat="44.70445" lon="6.91335">
        <ele>2309</ele>
        <time>2021-11-17T10:49:25Z</time>
      </trkpt>
      <trkpt lat="44.7045" lon="6.91336">
        <ele>2308</ele>
        <time>2021-11-17T10:49:26Z</time>
      </trkpt>
      <trkpt lat="44.70462" lon="6.91335">
        <ele>2304</ele>
        <time>2021-11-17T10:49:28Z</time>
      </trkpt>
      <trkpt lat="44.70469" lon="6.91336">
        <ele>2302</ele>
        <time>2021-11-17T10:49:29Z</time>
      </trkpt>
      <trkpt lat="44.70503" lon="6.91332">
        <ele>2292</ele>
        <time>2021-11-17T10:49:35Z</time>
      </trkpt>
      <trkpt lat="44.7051" lon="6.91336">
        <ele>2291</ele>
        <time>2021-11-17T10:49:37Z</time>
      </trkpt>
      <trkpt lat="44.70561" lon="6.91351">
        <ele>2281</ele>
        <time>2021-11-17T10:49:46Z</time>
      </trkpt>
      <trkpt lat="44.70591" lon="6.91346">
        <ele>2274</ele>
        <time>2021-11-17T10:49:51Z</time>
      </trkpt>
      <trkpt lat="44.70623" lon="6.91325">
        <ele>2264</ele>
        <time>2021-11-17T10:49:57Z</time>
      </trkpt>
      <trkpt lat="44.70634" lon="6.91313">
        <ele>2261</ele>
        <time>2021-11-17T10:49:59Z</time>
      </trkpt>
      <trkpt lat="44.70679" lon="6.91208">
        <ele>2247</ele>
        <time>2021-11-17T10:50:13Z</time>
      </trkpt>
      <trkpt lat="44.70687" lon="6.91197">
        <ele>2243</ele>
        <time>2021-11-17T10:50:16Z</time>
      </trkpt>
      <trkpt lat="44.70698" lon="6.91182">
        <ele>2238</ele>
        <time>2021-11-17T10:50:20Z</time>
      </trkpt>
      <trkpt lat="44.70707" lon="6.91175">
        <ele>2234</ele>
        <time>2021-11-17T10:50:22Z</time>
      </trkpt>
      <trkpt lat="44.70713" lon="6.91171">
        <ele>2232</ele>
        <time>2021-11-17T10:50:23Z</time>
      </trkpt>
      <trkpt lat="44.7073" lon="6.91164">
        <ele>2226</ele>
        <time>2021-11-17T10:50:26Z</time>
      </trkpt>
      <trkpt lat="44.70736" lon="6.91164">
        <ele>2224</ele>
        <time>2021-11-17T10:50:27Z</time>
      </trkpt>
      <trkpt lat="44.70741" lon="6.91163">
        <ele>2223</ele>
        <time>2021-11-17T10:50:28Z</time>
      </trkpt>
      <trkpt lat="44.70776" lon="6.91133">
        <ele>2217</ele>
        <time>2021-11-17T10:50:36Z</time>
      </trkpt>
      <trkpt lat="44.70796" lon="6.91128">
        <ele>2210</ele>
        <time>2021-11-17T10:50:42Z</time>
      </trkpt>
      <trkpt lat="44.70805" lon="6.91123">
        <ele>2207</ele>
        <time>2021-11-17T10:50:45Z</time>
      </trkpt>
      <trkpt lat="44.70813" lon="6.9112">
        <ele>2205</ele>
        <time>2021-11-17T10:50:47Z</time>
      </trkpt>
      <trkpt lat="44.70822" lon="6.91113">
        <ele>2203</ele>
        <time>2021-11-17T10:50:50Z</time>
      </trkpt>
      <trkpt lat="44.70825" lon="6.91111">
        <ele>2202</ele>
        <time>2021-11-17T10:50:51Z</time>
      </trkpt>
      <trkpt lat="44.70842" lon="6.91112">
        <ele>2200</ele>
        <time>2021-11-17T10:50:55Z</time>
      </trkpt>
      <trkpt lat="44.70848" lon="6.91113">
        <ele>2200</ele>
        <time>2021-11-17T10:50:56Z</time>
      </trkpt>
      <trkpt lat="44.70861" lon="6.91114">
        <ele>2201</ele>
        <time>2021-11-17T10:50:59Z</time>
      </trkpt>
      <trkpt lat="44.70867" lon="6.9111">
        <ele>2201</ele>
        <time>2021-11-17T10:51:02Z</time>
      </trkpt>
      <trkpt lat="44.70875" lon="6.91099">
        <ele>2201</ele>
        <time>2021-11-17T10:51:32Z</time>
      </trkpt>
      <trkpt lat="44.70924" lon="6.91109">
        <ele>2196</ele>
        <time>2021-11-17T10:51:43Z</time>
      </trkpt>
      <trkpt lat="44.70956" lon="6.91103">
        <ele>2185</ele>
        <time>2021-11-17T10:51:50Z</time>
      </trkpt>
      <trkpt lat="44.70967" lon="6.9111">
        <ele>2181</ele>
        <time>2021-11-17T10:51:52Z</time>
      </trkpt>
      <trkpt lat="44.70973" lon="6.91108">
        <ele>2179</ele>
        <time>2021-11-17T10:51:53Z</time>
      </trkpt>
      <trkpt lat="44.70979" lon="6.91106">
        <ele>2177</ele>
        <time>2021-11-17T10:51:54Z</time>
      </trkpt>
      <trkpt lat="44.70986" lon="6.91103">
        <ele>2175</ele>
        <time>2021-11-17T10:51:55Z</time>
      </trkpt>
      <trkpt lat="44.70994" lon="6.91101">
        <ele>2172</ele>
        <time>2021-11-17T10:51:56Z</time>
      </trkpt>
      <trkpt lat="44.71013" lon="6.91099">
        <ele>2169</ele>
        <time>2021-11-17T10:51:57Z</time>
      </trkpt>
      <trkpt lat="44.71021" lon="6.91096">
        <ele>2167</ele>
        <time>2021-11-17T10:51:58Z</time>
      </trkpt>
      <trkpt lat="44.7105" lon="6.9109">
        <ele>2159</ele>
        <time>2021-11-17T10:52:02Z</time>
      </trkpt>
      <trkpt lat="44.71056" lon="6.9109">
        <ele>2157</ele>
        <time>2021-11-17T10:52:03Z</time>
      </trkpt>
      <trkpt lat="44.71076" lon="6.91095">
        <ele>2150</ele>
        <time>2021-11-17T10:52:07Z</time>
      </trkpt>
      <trkpt lat="44.7108" lon="6.91097">
        <ele>2149</ele>
        <time>2021-11-17T10:52:08Z</time>
      </trkpt>
      <trkpt lat="44.71091" lon="6.91107">
        <ele>2145</ele>
        <time>2021-11-17T10:52:11Z</time>
      </trkpt>
      <trkpt lat="44.71099" lon="6.91111">
        <ele>2142</ele>
        <time>2021-11-17T10:52:13Z</time>
      </trkpt>
      <trkpt lat="44.71181" lon="6.91133">
        <ele>2119</ele>
        <time>2021-11-17T10:52:31Z</time>
      </trkpt>
      <trkpt lat="44.71184" lon="6.91133">
        <ele>2117</ele>
        <time>2021-11-17T10:52:33Z</time>
      </trkpt>
      <trkpt lat="44.71184" lon="6.91126">
        <ele>2117</ele>
        <time>2021-11-17T10:52:50Z</time>
      </trkpt>
      <trkpt lat="44.71201" lon="6.91124">
        <ele>2120</ele>
        <time>2021-11-17T10:52:55Z</time>
      </trkpt>
      <trkpt lat="44.71213" lon="6.91127">
        <ele>2119</ele>
        <time>2021-11-17T10:52:58Z</time>
      </trkpt>
      <trkpt lat="44.71217" lon="6.91127">
        <ele>2119</ele>
        <time>2021-11-17T10:52:59Z</time>
      </trkpt>
      <trkpt lat="44.71221" lon="6.91123">
        <ele>2119</ele>
        <time>2021-11-17T10:53:01Z</time>
      </trkpt>
      <trkpt lat="44.71223" lon="6.9112">
        <ele>2118</ele>
        <time>2021-11-17T10:53:04Z</time>
      </trkpt>
      <trkpt lat="44.71224" lon="6.91133">
        <ele>2119</ele>
        <time>2021-11-17T10:53:47Z</time>
      </trkpt>
      <trkpt lat="44.71225" lon="6.91131">
        <ele>2120</ele>
        <time>2021-11-17T10:53:50Z</time>
      </trkpt>
      <trkpt lat="44.71231" lon="6.91131">
        <ele>2120</ele>
        <time>2021-11-17T10:55:23Z</time>
      </trkpt>
      <trkpt lat="44.71315" lon="6.91116">
        <ele>2111</ele>
        <time>2021-11-17T10:55:42Z</time>
      </trkpt>
      <trkpt lat="44.71344" lon="6.91106">
        <ele>2106</ele>
        <time>2021-11-17T10:55:46Z</time>
      </trkpt>
      <trkpt lat="44.71351" lon="6.91104">
        <ele>2104</ele>
        <time>2021-11-17T10:55:47Z</time>
      </trkpt>
      <trkpt lat="44.71358" lon="6.91102">
        <ele>2101</ele>
        <time>2021-11-17T10:55:48Z</time>
      </trkpt>
      <trkpt lat="44.71366" lon="6.91099">
        <ele>2099</ele>
        <time>2021-11-17T10:55:49Z</time>
      </trkpt>
      <trkpt lat="44.71373" lon="6.91096">
        <ele>2096</ele>
        <time>2021-11-17T10:55:50Z</time>
      </trkpt>
      <trkpt lat="44.71455" lon="6.91066">
        <ele>2065</ele>
        <time>2021-11-17T10:56:03Z</time>
      </trkpt>
      <trkpt lat="44.71465" lon="6.91064">
        <ele>2061</ele>
        <time>2021-11-17T10:56:05Z</time>
      </trkpt>
      <trkpt lat="44.71481" lon="6.91055">
        <ele>2056</ele>
        <time>2021-11-17T10:56:08Z</time>
      </trkpt>
      <trkpt lat="44.71488" lon="6.91052">
        <ele>2054</ele>
        <time>2021-11-17T10:56:09Z</time>
      </trkpt>
      <trkpt lat="44.71495" lon="6.91049">
        <ele>2052</ele>
        <time>2021-11-17T10:56:10Z</time>
      </trkpt>
      <trkpt lat="44.7153" lon="6.91036">
        <ele>2043</ele>
        <time>2021-11-17T10:56:15Z</time>
      </trkpt>
      <trkpt lat="44.7154" lon="6.91029">
        <ele>2040</ele>
        <time>2021-11-17T10:56:17Z</time>
      </trkpt>
      <trkpt lat="44.71552" lon="6.9101">
        <ele>2037</ele>
        <time>2021-11-17T10:56:21Z</time>
      </trkpt>
      <trkpt lat="44.71555" lon="6.91">
        <ele>2036</ele>
        <time>2021-11-17T10:56:23Z</time>
      </trkpt>
      <trkpt lat="44.71559" lon="6.9098">
        <ele>2033</ele>
        <time>2021-11-17T10:56:26Z</time>
      </trkpt>
      <trkpt lat="44.71569" lon="6.90958">
        <ele>2029</ele>
        <time>2021-11-17T10:56:33Z</time>
      </trkpt>
      <trkpt lat="44.71579" lon="6.90955">
        <ele>2031</ele>
        <time>2021-11-17T10:56:41Z</time>
      </trkpt>
      <trkpt lat="44.71579" lon="6.90949">
        <ele>2031</ele>
        <time>2021-11-17T10:56:48Z</time>
      </trkpt>
      <trkpt lat="44.71581" lon="6.90944">
        <ele>2030</ele>
        <time>2021-11-17T10:56:50Z</time>
      </trkpt>
      <trkpt lat="44.71585" lon="6.90926">
        <ele>2028</ele>
        <time>2021-11-17T10:56:56Z</time>
      </trkpt>
      <trkpt lat="44.71586" lon="6.90916">
        <ele>2027</ele>
        <time>2021-11-17T10:56:59Z</time>
      </trkpt>
      <trkpt lat="44.71587" lon="6.90912">
        <ele>2027</ele>
        <time>2021-11-17T10:57:00Z</time>
      </trkpt>
      <trkpt lat="44.71588" lon="6.90909">
        <ele>2026</ele>
        <time>2021-11-17T10:57:01Z</time>
      </trkpt>
      <trkpt lat="44.716" lon="6.90902">
        <ele>2024</ele>
        <time>2021-11-17T10:57:05Z</time>
      </trkpt>
      <trkpt lat="44.71604" lon="6.90898">
        <ele>2023</ele>
        <time>2021-11-17T10:57:06Z</time>
      </trkpt>
      <trkpt lat="44.71608" lon="6.90892">
        <ele>2022</ele>
        <time>2021-11-17T10:57:07Z</time>
      </trkpt>
      <trkpt lat="44.7164" lon="6.9079">
        <ele>2015</ele>
        <time>2021-11-17T10:57:20Z</time>
      </trkpt>
      <trkpt lat="44.71668" lon="6.90738">
        <ele>2010</ele>
        <time>2021-11-17T10:57:29Z</time>
      </trkpt>
      <trkpt lat="44.71672" lon="6.90725">
        <ele>2008</ele>
        <time>2021-11-17T10:57:31Z</time>
      </trkpt>
      <trkpt lat="44.71677" lon="6.90703">
        <ele>2007</ele>
        <time>2021-11-17T10:57:34Z</time>
      </trkpt>
      <trkpt lat="44.71707" lon="6.90644">
        <ele>2001</ele>
        <time>2021-11-17T10:57:42Z</time>
      </trkpt>
      <trkpt lat="44.71756" lon="6.90579">
        <ele>1993</ele>
        <time>2021-11-17T10:57:53Z</time>
      </trkpt>
      <trkpt lat="44.71776" lon="6.90529">
        <ele>1983</ele>
        <time>2021-11-17T10:58:07Z</time>
      </trkpt>
      <trkpt lat="44.71821" lon="6.90458">
        <ele>1985</ele>
        <time>2021-11-17T10:58:38Z</time>
      </trkpt>
      <trkpt lat="44.71871" lon="6.90395">
        <ele>1979</ele>
        <time>2021-11-17T10:59:08Z</time>
      </trkpt>
    </trkseg>
  </trk>
</gpx>